[[[{"header":{"parameterUnit":"kt","parameterCategory":2,"dx":1,"dy":1,"la1":29.285339999999998,"la2":30.599998999999997,"lo1":-89.70041500000002,"lo2":-87.6738589999976,"nx":112,"ny":82,"refTime":"2022-09-25T12:00:00:Z","depth":0,"parameterNumber":1,"parameterNumberName":"U-component_of_WINDS"},"data":[2.7747,2.9104,3.0994,3.0211,3.2209,3.3971,3.2492,3.3612,3.4939,3.4905,3.5856,3.7315,3.9191,3.9752,4.0421,4.1739,4.083,3.9619,0.0,3.8029,3.8029,3.8855,3.8382,3.8096,3.8404,3.8746,3.9054,3.915,3.8397,3.8087,3.8511,3.8485,3.8485,3.8485,3.8485,3.8485,3.8485,3.785,3.7509,3.7509,3.6825,3.6508,3.6508,3.6508,3.6508,3.6508,3.6508,3.6508,3.6508,3.6508,3.6508,3.6508,3.6508,3.6508,3.6313,3.4873,3.4361,3.4239,3.3531,3.3262,3.3262,3.3262,3.3775,3.4361,3.4361,3.4849,3.5386,3.5386,3.5386,3.5386,3.5386,3.4873,3.4361,3.4361,3.3799,3.3089,3.2605,3.1588,3.0396,2.9059,2.8288,2.7357,2.6086,2.6348,2.631,2.5209,2.5285,2.5475,2.5475,2.5722,2.5912,2.5912,2.434,2.3306,2.3306,2.2094,2.1688,2.2552,2.3958,2.4823,2.5102,2.5632,2.5614,2.5102,2.5084,2.5084,2.5084,2.5934,2.6612,2.7057,2.7888,2.836,2.6258,2.7447,2.951,2.9061,3.1705,3.3971,3.2437,3.4105,3.5733,3.4847,3.6064,3.7306,3.7607,3.8651,3.9685,4.0267,3.9881,3.9488,0.0,3.7889,3.7206,3.8377,3.8238,3.7877,3.7366,3.8372,3.885,3.8561,3.8147,3.8113,3.8511,3.8168,3.7997,3.7997,3.7631,3.7435,3.7435,3.6777,3.6435,3.6435,3.5727,3.5386,3.5386,3.5386,3.5386,3.5386,3.5386,3.5386,3.5386,3.5386,3.5386,3.5386,3.5386,3.5386,3.5215,3.3751,3.3214,3.3116,3.2359,3.2115,3.2115,3.2115,3.2604,3.3214,3.3214,3.3702,3.4287,3.4287,3.4287,3.4287,3.4287,3.3751,3.3214,3.3214,3.2652,3.2115,3.2115,3.1117,3.0127,2.9344,2.8321,2.7194,2.5924,2.5763,2.5549,2.4506,2.4318,2.4222,2.3726,2.3726,2.3726,2.3726,2.2128,2.0838,2.0344,1.9946,2.0044,2.0995,2.2366,2.3714,2.5074,2.5584,2.587,2.587,2.587,2.587,2.587,2.6184,2.6641,2.6948,2.6785,2.6652,2.5385,2.565,2.74,2.7529,3.0585,3.3622,3.3668,3.6071,3.7963,3.7017,3.755,3.7905,3.6944,3.8209,3.9361,3.9421,3.9451,0.0,0.0,3.7976,3.6836,3.6763,3.6767,3.7148,3.8287,3.7497,3.7286,3.8376,3.7485,3.7425,3.8438,3.7484,3.6827,3.6827,3.5922,3.5386,3.5386,3.5361,3.5337,3.5337,3.5288,3.5288,3.5288,3.5288,3.5288,3.5288,3.5288,3.5288,3.5288,3.5288,3.5288,3.5288,3.5288,3.5288,3.502,3.2896,3.2115,3.2115,3.2115,3.2115,3.2115,3.2115,3.2115,3.2115,3.2115,3.2115,3.2115,3.2115,3.2115,3.2115,3.2115,3.2115,3.2115,3.2115,3.2115,3.2115,3.2115,3.1202,3.0386,3.03,2.8438,2.6855,2.6855,2.5919,2.4622,2.3271,2.2965,2.2579,2.1313,2.1117,2.1117,2.1117,2.1117,2.0542,1.9277,2.0244,2.1509,2.2869,2.1802,2.2323,2.4944,2.369,2.2965,2.2965,2.2965,2.2965,2.2965,2.3871,2.4981,2.6196,2.5399,2.5038,2.6278,2.633,2.7717,2.9042,3.1523,3.3813,3.4364,3.5829,3.7335,3.7793,3.738,0.0,0.0,0.0,3.7544,3.8485,0.0,3.9678,3.8779,3.9771,3.9753,3.7217,3.6827,3.7063,3.7298,3.8615,3.9186,3.8537,3.7551,3.7006,3.7313,3.6411,3.5825,3.5825,3.5556,3.5386,3.5386,3.4605,3.4214,3.4214,3.3409,3.3018,3.3018,3.3018,3.3018,3.3018,3.3018,3.3018,3.3018,3.3018,3.3018,3.3018,3.3018,3.3018,3.2921,3.2335,3.2115,3.2115,3.2115,3.2115,3.2115,3.2115,3.2115,3.2115,3.2115,3.2115,3.2115,3.2115,3.2115,3.2115,3.2115,3.2115,3.2115,3.2115,3.2115,3.2115,3.2115,3.184,3.1371,3.0472,2.908,2.7854,2.6946,2.6508,2.588,2.4698,2.4508,2.4318,2.4013,2.3936,2.3936,2.3936,2.3,2.2272,2.19,2.1313,2.1509,2.2869,2.3594,2.3822,2.3576,2.4109,2.3995,2.2965,2.3995,2.4508,2.4508,2.475,2.5073,2.5361,2.5133,2.5038,2.8091,2.7855,2.91,3.0614,3.2344,3.3711,3.4159,3.5608,3.6944,3.7478,0.0,0.0,0.0,0.0,0.0,0.0,3.8014,3.8501,3.7742,3.9372,3.9877,3.785,3.809,3.8208,3.7685,3.7979,3.7954,3.7239,3.6249,3.5867,3.6264,3.5288,3.4702,3.4702,3.4263,3.4019,3.4019,3.3384,3.3092,3.3092,3.2433,3.2115,3.2115,3.2115,3.2115,3.2115,3.2115,3.2115,3.2115,3.2115,3.2115,3.2115,3.2115,3.2115,3.2115,3.2115,3.2115,3.2115,3.2115,3.2115,3.2115,3.2115,3.2115,3.2115,3.2115,3.2115,3.2115,3.2115,3.2115,3.2115,3.2115,3.2115,3.2115,3.2115,3.2115,3.2115,3.2115,3.2115,3.184,3.1202,3.0127,2.8903,2.7764,2.7129,2.6231,2.4471,2.4204,2.4013,2.342,2.3324,2.3324,2.3324,2.2614,2.2094,2.2094,2.1411,2.1313,2.2094,2.3403,2.3786,2.2965,2.4299,2.4716,2.39,2.4622,2.5038,2.5038,2.5038,2.5038,2.5038,2.5038,2.5038,3.0515,3.0011,3.1193,3.2036,3.2908,3.3677,3.3831,0.0,3.6679,3.6893,0.0,3.7836,3.7116,0.0,0.0,3.5725,3.6511,3.7126,3.6911,3.7676,3.8109,3.8109,3.9109,3.9395,3.8216,3.6455,3.5386,3.5386,3.4385,3.4214,3.5142,3.419,3.3604,3.3604,3.2628,3.2115,3.2115,3.2115,3.2115,3.2115,3.2115,3.2115,3.2115,3.2115,3.2115,3.2115,3.2115,3.2115,3.2115,3.2115,3.2115,3.2115,3.2115,3.2115,3.2115,3.2115,3.2115,3.2115,3.2115,3.2115,3.2115,3.2115,3.2115,3.2115,3.2115,3.2115,3.2115,3.2115,3.2115,3.2115,3.2115,3.2115,3.2115,3.2115,3.2115,3.2115,3.2115,3.2115,3.2115,3.2115,3.1093,2.9954,2.8925,2.7764,2.6191,2.3731,2.3253,2.279,2.1624,2.1428,2.1428,2.1428,2.1428,2.1411,2.1215,2.133,2.133,2.1019,2.2192,2.2965,2.2965,2.4013,2.4716,2.483,2.5038,2.5038,2.5038,2.5038,2.5038,2.5038,2.5038,2.5038,3.2911,3.2537,3.312,3.3245,3.3472,3.3908,0.0,0.0,0.0,3.7823,3.7505,3.7128,3.7989,3.7316,3.6832,3.7684,3.889,3.9344,3.8297,3.6847,3.5976,3.5976,3.619,3.627,3.5981,3.56,3.5386,3.5386,3.4385,3.3897,3.4092,3.3043,3.2433,3.2433,3.2213,3.2115,3.2115,3.2115,3.2115,3.2115,3.2115,3.2115,3.2115,3.2115,3.2115,3.2115,3.2115,3.2115,3.2115,3.2115,3.2115,3.2115,3.2115,3.2115,3.2115,3.2115,3.2115,3.2115,3.2115,3.2115,3.2115,3.2115,3.2115,3.2115,3.2115,3.2115,3.2115,3.2115,3.2115,3.2115,3.2115,3.2115,3.2115,3.2115,3.2115,3.2115,3.2115,3.2115,3.2115,3.2115,3.1093,3.0214,3.0041,2.8992,2.7743,2.6283,2.5226,2.4527,2.4336,2.4318,2.4318,2.4318,2.4318,2.3804,2.2676,2.3612,2.3324,2.1117,2.2192,2.2965,2.2965,2.2209,2.2306,2.3271,2.4508,2.5038,2.5038,2.5038,2.5038,2.5038,2.5038,2.5038,3.4028,3.3885,3.4229,3.4336,3.4024,0.0,0.0,3.4136,3.4569,3.5081,3.5054,3.5011,3.5165,3.464,3.4487,3.5184,3.6345,3.6886,3.6187,3.5172,3.469,3.5293,3.5386,3.5386,3.5386,3.4897,3.458,3.458,3.358,3.2945,3.2945,3.2408,3.2115,3.2115,3.2115,3.2115,3.2115,3.2115,3.2115,3.2115,3.2115,3.2115,3.2115,3.2115,3.2115,3.2115,3.2115,3.2115,3.2115,3.2115,3.2115,3.2115,3.2115,3.2115,3.2115,3.2115,3.2115,3.2115,3.2115,3.2115,3.2115,3.2115,3.2115,3.2115,3.2115,3.2115,3.2115,3.2115,3.2115,3.2115,3.2115,3.2115,3.2115,3.2115,3.2115,3.2115,3.2115,3.2115,3.2115,3.2115,3.1564,3.1008,3.0386,2.9344,2.8235,2.7038,2.5826,2.5038,2.5038,2.5038,2.5038,2.5038,2.5038,2.4811,2.409,2.4622,2.4527,2.3132,2.3708,2.3995,2.3995,2.342,2.3324,2.3995,2.4716,2.5038,2.5038,2.5038,2.5038,2.5038,2.5038,2.5038,3.4518,3.4919,3.5422,3.5257,3.4575,0.0,3.2335,3.267,3.3028,3.2105,3.2506,3.2902,3.2044,3.1897,3.192,3.2016,3.2869,3.3293,3.275,3.2796,3.3376,3.4249,3.457,3.4751,3.4751,3.397,3.3458,3.3458,3.2604,3.2115,3.2115,3.2115,3.2115,3.2115,3.2115,3.2115,3.2115,3.2115,3.2115,3.2115,3.2115,3.2115,3.2115,3.2115,3.2115,3.2115,3.2115,3.2115,3.2115,3.2115,3.2115,3.2115,3.2115,3.2115,3.2115,3.2115,3.2115,3.2115,3.2115,3.2115,3.2115,3.2115,3.2115,3.2115,3.2115,3.2115,3.2115,3.2115,3.2115,3.2115,3.2115,3.2115,3.2115,3.2115,3.2115,3.2115,3.2115,3.2115,3.2115,3.2115,3.2115,3.1756,3.0838,2.9716,2.8481,2.7311,2.6178,2.5302,2.5133,2.5038,2.5038,2.5038,2.5038,2.4925,2.4716,2.4925,2.483,2.4336,2.4527,2.4622,2.4622,2.4622,2.4811,2.5038,2.5038,2.5038,2.5038,2.5038,2.5038,2.5038,2.5038,2.5038,3.4565,3.6142,3.7478,3.5598,3.5118,0.0,3.2382,3.1999,3.1985,3.1923,3.2007,3.2007,3.1911,3.1934,3.1934,3.1934,3.2045,3.1437,2.9408,3.0033,3.0734,3.0907,3.1839,3.2482,3.2482,3.2359,3.2286,3.2286,3.2189,3.2115,3.2115,3.2115,3.2115,3.2115,3.2115,3.2115,3.2115,3.2115,3.2115,3.2115,3.2115,3.2115,3.2115,3.2115,3.2115,3.2115,3.2115,3.2115,3.2115,3.2115,3.2115,3.2115,3.2115,3.2115,3.2115,3.2115,3.2115,3.2115,3.2115,3.2115,3.2115,3.2115,3.2115,3.2115,3.2115,3.2115,3.2115,3.2115,3.2115,3.2115,3.2115,3.2115,3.2115,3.2115,3.2115,3.2115,3.2115,3.2115,3.2115,3.2115,3.2115,3.2008,3.1924,3.0946,2.978,2.857,2.7423,2.6251,2.5227,2.5038,2.5038,2.5038,2.5038,2.4527,2.3271,2.4318,2.4032,2.1624,2.2482,2.3175,2.3175,2.3175,2.3786,2.5038,2.5038,2.5038,2.5038,2.5038,2.5038,2.5038,2.5038,2.5038,3.3339,3.485,3.5972,3.4623,0.0,0.0,3.1331,3.0394,2.9721,2.9051,2.8928,2.8928,2.8928,2.8928,2.9137,2.9883,2.8781,2.7871,2.7618,2.8549,2.9519,3.0214,3.1371,3.2115,3.2115,3.2115,3.2115,3.2115,3.2115,3.2115,3.2115,3.2115,3.2115,3.2115,3.2115,3.2341,3.2949,3.2949,3.3249,3.3866,3.3866,3.3572,3.2949,3.2949,3.2646,3.2115,3.2115,3.2115,3.2115,3.2115,3.2115,3.2115,3.2115,3.2115,3.2115,3.2115,3.2115,3.2115,3.2115,3.2115,3.2174,3.2811,3.2949,3.2949,3.2949,3.2949,3.2868,3.2258,3.2115,3.2115,3.2115,3.2115,3.2115,3.2115,3.2115,3.2115,3.2115,3.2115,3.2115,3.2115,3.2115,3.2115,3.2115,3.1117,3.0127,2.9693,2.8012,2.6692,2.6178,2.5471,2.5038,2.5038,2.5038,2.483,2.4204,2.4716,2.464,2.342,2.39,2.4204,2.4204,2.4204,2.4508,2.5038,2.5038,2.5038,2.5038,2.5038,2.5038,2.5038,2.5038,2.5038,3.2575,0.0,0.0,0.0,0.0,0.0,2.9167,2.8438,2.7673,2.6079,2.6046,2.6344,2.6344,2.6344,2.662,2.7423,2.6198,2.5397,2.6251,2.7332,2.8481,2.9693,3.0838,3.1756,3.2008,3.2115,3.2115,3.2115,3.2115,3.2115,3.2115,3.2115,3.2115,3.2115,3.2115,3.2564,3.3652,3.3652,3.4183,3.5195,3.5195,3.4653,3.3652,3.3652,3.3031,3.2115,3.2115,3.2424,3.2949,3.2949,3.2949,3.2868,3.2646,3.2482,3.2482,3.2174,3.2115,3.2115,3.2424,3.2482,3.2646,3.333,3.3812,3.3945,3.333,3.3411,3.3491,3.2729,3.2482,3.2482,3.2482,3.2258,3.2115,3.2115,3.2115,3.2115,3.2115,3.2115,3.2115,3.2115,3.2115,3.2115,3.2115,3.1371,3.0667,3.0386,2.8881,2.7562,2.6855,2.6086,2.5491,2.5133,2.5038,2.5038,2.5038,2.5038,2.5038,2.5038,2.5038,2.5038,2.5038,2.4716,2.4622,2.5038,2.4716,2.4716,2.5038,2.5038,2.5038,2.5038,2.5038,2.5038,0.0,0.0,0.0,3.2169,3.1035,2.9252,2.5795,2.5986,2.6099,2.3541,2.4186,2.5133,2.5133,2.5133,2.5133,2.5227,2.5133,2.5133,2.5133,2.6178,2.7311,2.8481,2.9693,3.0838,3.1924,3.2115,3.2115,3.2115,3.2115,3.2115,3.2115,3.2115,3.2115,3.2115,3.2115,3.2564,3.3652,3.3652,3.4183,3.5195,3.5195,3.4653,3.3652,3.3652,3.3031,3.2115,3.2115,3.3193,3.5118,3.5118,3.5118,3.4964,3.3945,3.3572,3.3411,3.2424,3.2115,3.2174,3.3275,3.3572,3.3572,3.3652,3.434,3.4731,3.2729,3.2811,3.3652,3.3572,3.3572,3.3572,3.3572,3.2811,3.2115,3.2115,3.2115,3.2115,3.2115,3.2115,3.2115,3.2115,3.2115,3.2115,3.2115,3.2032,3.1648,3.0472,3.03,2.9409,2.7129,2.6763,2.6344,2.5208,2.5038,2.5038,2.5038,2.5038,2.5038,2.5038,2.5038,2.5038,2.5038,2.369,2.369,2.5038,2.369,2.369,2.5038,2.5038,2.5038,2.5038,2.5038,2.5038,3.1094,3.0516,2.9697,2.8617,2.679,2.4957,2.3699,2.3182,2.2738,2.1802,2.2693,2.369,2.369,2.369,2.3995,2.4925,2.5038,2.5038,2.5038,2.6086,2.6946,2.7402,2.9168,3.0472,3.0838,3.1564,3.2115,3.2115,3.2115,3.2115,3.2115,3.2115,3.2424,3.3112,3.3112,3.3945,3.5652,3.5728,3.6179,3.7262,3.7262,3.6724,3.5728,3.5728,3.5118,3.4104,3.4104,3.4575,3.5195,3.5195,3.5195,3.5118,3.4809,3.4261,3.3652,3.4024,3.3732,3.3275,3.434,3.4653,3.4809,3.5501,3.5954,3.6104,3.5424,3.5424,3.5577,3.4886,3.4653,3.4653,3.4653,3.4419,3.3945,3.3249,3.2564,3.2115,3.2115,3.2115,3.2115,3.2115,3.2115,3.2115,3.2115,3.2115,3.1924,3.1564,3.0838,3.0041,2.9233,2.7833,2.6692,2.6251,2.5565,2.5038,2.5038,2.5038,2.5038,2.5038,2.5038,2.5038,2.5038,2.4622,2.4622,2.5038,2.4622,2.4622,2.5038,2.5038,2.5038,2.5038,2.5038,2.5038,2.8312,2.6788,2.5224,2.4061,2.2546,2.1264,2.0793,2.0857,2.0822,2.0443,2.1313,2.2386,2.2869,2.2579,2.2693,2.4109,2.4299,2.4508,2.5019,2.5733,2.6344,2.6763,2.8192,2.9409,3.0214,3.1032,3.1648,3.2008,3.2115,3.2115,3.2115,3.2424,3.2949,3.3652,3.4024,3.4809,3.6179,3.6577,3.7262,3.8274,3.8274,3.7721,3.6724,3.6724,3.6179,3.5271,3.5954,3.6253,3.6253,3.6253,3.6253,3.6253,3.5879,3.5348,3.4809,3.5041,3.4731,3.434,3.5424,3.5728,3.5879,3.6503,3.7017,3.719,3.6402,3.6402,3.6577,3.5954,3.5728,3.5728,3.5728,3.5728,3.5424,3.3945,3.3112,3.2646,3.2646,3.2341,3.1993,3.1603,3.153,3.1489,3.1394,3.1399,3.1479,3.1795,3.1166,3.0395,2.9744,2.8309,2.7138,2.6312,2.5312,2.4633,2.4633,2.4381,2.4127,2.4127,2.4127,2.4127,2.4127,2.4023,2.408,2.4583,2.4359,2.4116,2.3651,2.4017,2.4127,2.4127,2.4127,2.4127,2.4698,2.2312,2.0033,1.8684,1.8389,1.8117,1.706,1.8789,2.0328,1.9177,1.9946,2.1313,2.2482,2.1705,2.1313,2.2676,2.2965,2.3481,2.483,2.5038,2.5471,2.66,2.6763,2.7743,3.0041,3.03,3.0838,3.2008,3.2115,3.2115,3.2115,3.3031,3.3652,3.3732,3.4731,3.5348,3.5348,3.6327,3.7335,3.8274,3.8274,3.7793,3.6798,3.6798,3.6253,3.5501,3.7407,3.8274,3.8274,3.8274,3.8274,3.8175,3.719,3.6798,3.6651,3.5728,3.5348,3.5424,3.6476,3.6798,3.6798,3.6798,3.7478,3.7963,3.5954,3.6029,3.6798,3.6798,3.6798,3.6798,3.6798,3.6798,3.6327,3.4261,3.3812,3.3812,3.3652,3.2793,3.171,3.0761,3.0565,3.0455,3.0205,3.0173,3.0436,3.112,3.1261,3.067,2.8749,2.845,2.7618,2.5652,2.4563,2.3988,2.3906,2.3113,2.2645,2.2561,2.2561,2.2561,2.2561,2.2048,2.2355,2.353,2.3073,2.2234,2.1068,2.2031,2.2476,2.2476,2.2476,2.2476,2.1412,1.7415,1.4614,1.4308,1.3428,1.3293,1.5059,1.6011,1.673,1.7395,1.8587,1.9663,1.9946,1.9762,2.0244,2.2579,2.2965,2.3481,2.483,2.5038,2.5227,2.5471,2.6344,2.7402,2.8925,2.978,3.0838,3.2008,3.2115,3.2115,3.2115,3.3031,3.3945,3.4731,3.5804,3.6724,3.7478,3.7793,3.8034,3.8274,3.8274,3.8175,3.7863,3.7863,3.7721,3.7579,3.8034,3.8274,3.8274,3.8274,3.8274,3.8274,3.8034,3.7407,3.6798,3.7335,3.7017,3.6476,3.7579,3.7863,3.7863,3.7863,3.8104,3.8175,3.765,3.7721,3.7863,3.7863,3.7863,3.7863,3.7863,3.7863,3.7579,3.6253,3.5954,3.5501,3.3945,3.2472,3.1429,3.1118,3.1092,3.0916,3.0224,3.0651,3.0864,3.0507,3.0935,3.112,3.0573,2.9291,2.8225,2.7618,2.6028,2.4624,2.3988,2.3677,2.328,2.2541,2.2561,2.2561,2.2561,2.2408,2.2156,2.1739,2.1549,2.1724,2.2116,2.167,2.1413,2.1413,2.1413,2.0877,1.8142,1.3384,0.9907,0.993,0.9847,1.0285,1.2558,1.3531,1.4481,1.5853,1.6755,1.7254,1.7254,1.7776,1.9076,2.1705,2.2094,2.279,2.483,2.5038,2.5038,2.5038,2.5659,2.6712,2.8414,2.919,3.0237,3.1924,3.2115,3.2115,3.2115,3.3031,3.3866,3.4497,3.5954,3.7017,3.765,3.8034,3.8274,3.8274,3.8274,3.8274,3.8274,3.8274,3.8274,3.8274,3.8274,3.8274,3.8274,3.8274,3.8274,3.8274,3.8274,3.7963,3.7478,3.8104,3.7963,3.7478,3.8104,3.8274,3.8274,3.8274,3.8274,3.8274,3.8274,3.8274,3.8274,3.8274,3.7867,3.743,3.743,3.6994,3.6289,3.5269,3.5031,3.4748,3.3564,3.2618,3.1747,3.0935,3.0094,2.9534,2.9317,2.9617,3.0016,3.0344,3.0734,3.0863,3.0475,2.9471,2.8539,2.7897,2.635,2.4821,2.361,2.3065,2.2376,2.1536,2.1455,2.1455,2.1455,2.1798,2.1657,2.1055,2.0708,2.0625,2.0788,2.0625,2.0544,2.0544,2.0544,2.0198,1.4453,0.9688,0.5917,0.5949,0.6911,0.8177,1.0014,1.1408,1.2682,1.4377,1.4701,1.4701,1.4909,1.6175,1.8007,2.0542,2.1019,2.1917,2.4716,2.5038,2.5038,2.5038,2.5208,2.6198,2.8414,2.8748,2.9716,3.1924,3.2115,3.2115,3.2115,3.3031,3.3652,3.3652,3.5652,3.6724,3.6724,3.7793,3.8274,3.8274,3.8274,3.8274,3.8245,3.7896,3.775,3.775,3.775,3.775,3.775,3.775,3.775,3.775,3.775,3.775,3.775,3.775,3.775,3.775,3.775,3.775,3.775,3.775,3.775,3.775,3.775,3.775,3.775,3.775,3.6965,3.6092,3.6092,3.5278,3.4181,3.3283,3.2834,3.2582,3.2582,3.2582,3.2094,3.0533,2.8922,2.7977,2.8411,2.8494,2.8976,3.0343,3.0654,3.0399,2.9653,2.9419,2.8796,2.7441,2.6314,2.5035,2.3409,2.227,2.1198,2.0271,2.0064,1.9989,1.9989,2.0653,2.1033,2.1033,2.0273,1.9439,1.8656,1.9439,1.9819,1.9819,1.9667,1.9515,0.9193,0.529,0.2897,0.2923,0.3036,0.4217,0.8071,0.9135,0.9991,1.2682,1.3227,1.3541,1.4805,1.6175,1.8007,2.0542,2.1019,2.1917,2.4716,2.5038,2.5038,2.5038,2.5919,2.7058,2.8392,2.9431,3.0581,3.1948,3.2115,3.2115,3.2115,3.3031,3.3652,3.3652,3.5652,3.6724,3.6724,3.7793,3.8274,3.8274,3.8274,3.8274,3.8186,3.6063,3.5068,3.5068,3.5068,3.5068,3.5068,3.5068,3.5068,3.5068,3.5068,3.5068,3.5068,3.5068,3.5068,3.5068,3.5068,3.5068,3.5068,3.5068,3.5068,3.5068,3.5068,3.5068,3.5068,3.5068,3.4894,3.472,3.472,3.4546,3.4372,3.4181,3.2593,3.1063,3.1063,3.1063,3.0977,3.0685,3.0397,3.0169,3.0257,3.0286,3.0086,2.9653,3.0229,3.0654,3.0512,2.9855,2.9242,2.8976,2.7603,2.6274,2.5145,2.3574,2.2219,2.1198,2.0421,1.9989,1.9989,2.0122,2.0198,2.0198,1.9265,1.904,1.9743,1.9058,1.8733,1.8733,1.7882,1.6942,0.731,0.349,0.0973,0.0978,0.2173,0.401,0.6911,0.8095,0.885,0.9383,1.0642,1.2119,1.3636,1.5647,1.7715,1.9663,2.0526,2.1721,2.369,2.4622,2.5038,2.5038,2.6086,2.7311,2.8481,2.9177,2.9979,3.118,3.0749,3.0456,3.0456,3.0957,3.1165,3.1165,3.3077,3.4089,3.4089,3.5537,3.6296,3.6296,3.6296,3.6296,3.6238,3.4952,3.4401,3.4401,3.4401,3.4401,3.4401,3.4401,3.4401,3.4401,3.4401,3.4401,3.4401,3.4401,3.4401,3.4401,3.4401,3.4401,3.4401,3.4401,3.4401,3.4401,3.4401,3.4401,3.4401,3.4401,3.3907,3.3385,3.3385,3.2981,3.2457,3.2457,3.1555,3.071,3.071,3.071,3.0598,3.0086,3.0028,2.9855,2.9477,2.9739,3.0028,3.0028,3.0456,3.071,3.071,3.0343,2.9855,2.9419,2.8676,2.7488,2.5585,2.4765,2.3412,2.1472,2.0977,2.0496,2.0064,1.9989,1.9989,1.9989,1.9515,1.9515,1.9989,1.9515,1.9287,1.9287,1.8733,1.827,0.6712,0.2839,-0.0109,-0.0435,0.1193,0.3248,0.4871,0.6272,0.7029,0.5734,0.8058,1.0602,1.1716,1.447,1.7088,1.8357,1.9747,2.1117,2.2676,2.39,2.4716,2.5038,2.6364,2.7499,2.8199,2.8804,2.9425,3.0085,2.9459,2.8994,2.8994,2.8994,2.8994,2.8994,3.0579,3.147,3.1678,3.3349,3.4245,3.4401,3.4401,3.4401,3.4372,3.382,3.362,3.362,3.362,3.362,3.362,3.362,3.362,3.362,3.362,3.362,3.362,3.362,3.362,3.362,3.362,3.362,3.362,3.362,3.362,3.362,3.362,3.362,3.362,3.362,3.2862,3.2078,3.2078,3.1381,3.071,3.071,3.071,3.071,3.071,3.071,3.0512,2.9797,2.9653,2.9477,2.8796,2.9242,2.9913,3.0598,3.071,3.071,3.071,3.071,3.0456,2.9711,2.9477,2.844,2.6264,2.5717,2.4447,2.2198,2.1638,2.1051,2.0346,2.0121,1.9989,1.9989,1.9989,1.9989,1.9989,1.9989,1.9894,1.9704,1.948,1.9312,0.6242,0.2606,-0.0325,-0.1619,-0.1732,-0.1193,0.0325,0.1726,0.2695,0.2587,0.5806,0.8809,0.8923,1.2329,1.5611,1.6883,1.8329,2.0145,2.2579,2.3061,2.3576,2.4925,2.7079,2.8067,2.7202,2.9136,3.0012,2.9214,2.9043,2.8994,2.8994,2.8994,2.8994,2.8994,3.0027,3.1006,3.1678,3.2792,3.3703,3.4401,3.4401,3.4401,3.4314,3.205,3.106,3.106,3.106,3.106,3.106,3.106,3.106,3.106,3.106,3.106,3.106,3.106,3.106,3.106,3.106,3.106,3.106,3.106,3.106,3.106,3.106,3.106,3.106,3.106,3.0972,3.0885,3.0885,3.0797,3.071,3.071,3.071,3.071,3.071,3.071,3.071,3.0598,3.0598,3.0541,3.0512,3.0541,3.0598,3.071,3.071,3.071,3.071,3.071,3.0654,3.0598,2.9855,2.8976,2.8038,2.6393,2.5035,2.4083,2.2342,2.1345,2.1272,2.0496,1.9989,1.9989,1.9989,1.9989,1.9989,1.9989,1.959,1.876,1.7808,1.7005,1.1924,0.802,0.4519,0.1872,0.0213,-0.065,-0.0108,-0.0865,-0.0971,0.1617,0.4185,0.6747,0.9355,1.1927,1.4158,1.5496,1.6908,1.8703,2.1395,2.2482,2.3302,2.4133,2.6255,2.7266,2.6289,2.7675,2.848,2.8039,2.7357,2.7176,2.7773,2.7773,2.8021,2.8467,2.8932,2.9519,3.0285,3.0661,3.1331,3.2166,3.2166,3.2166,3.2137,3.1176,3.071,3.071,3.071,3.071,3.0766,3.1123,3.1069,3.0822,3.158,3.1419,3.0766,3.1178,3.1069,3.071,3.071,3.071,3.071,3.071,3.071,3.071,3.071,3.071,3.071,3.071,3.071,3.071,3.071,3.071,3.071,3.071,3.071,3.071,3.071,3.071,3.071,3.071,3.071,3.071,3.071,3.071,3.071,3.071,3.071,3.071,3.071,3.071,3.0877,3.1287,3.0596,2.9971,2.9484,2.8027,2.6508,2.5059,2.3317,2.1782,2.059,1.9213,1.8489,1.8489,1.8489,1.8489,1.8489,1.8489,1.8318,1.7928,1.7499,1.7197,1.7423,1.3058,0.857,0.4877,0.186,-0.032,-0.1065,-0.3385,-0.4317,-0.0954,0.1482,0.445,0.8603,1.0968,1.2663,1.4064,1.5805,1.7925,2.0625,2.1619,2.2457,2.3553,2.5386,2.6267,2.529,2.6506,2.7256,2.6938,2.6407,2.6334,2.6957,2.7277,2.7629,2.8188,2.8188,2.8555,2.936,2.936,2.9855,3.071,3.071,3.071,3.071,3.071,3.071,3.071,3.071,3.071,3.0766,3.1203,3.1123,3.0822,3.1739,3.1633,3.1069,3.1527,3.1527,3.1257,3.1257,3.1257,3.1257,3.1257,3.1178,3.1014,3.1014,3.0877,3.071,3.071,3.071,3.071,3.071,3.071,3.071,3.071,3.071,3.071,3.071,3.071,3.071,3.071,3.0419,3.0127,3.0127,2.9836,2.9603,2.9603,2.9603,2.9603,2.9603,2.9894,3.0438,3.1282,3.0606,2.9959,2.948,2.8038,2.649,2.4931,2.3098,2.1494,2.0078,1.8638,1.7766,1.7502,1.7502,1.7502,1.7502,1.7502,1.7388,1.7141,1.7141,1.7009,2.1495,1.6313,1.0613,0.6138,0.2277,-0.103,-0.3603,-0.6011,-0.7409,-0.615,-0.2575,0.1666,0.5703,0.8809,1.1128,1.2586,1.522,1.7993,2.0625,2.0346,2.0847,2.3388,2.4915,2.5268,2.4237,2.6085,2.6938,2.5752,2.653,2.7021,2.7021,2.7754,2.8188,2.8188,2.8188,2.8555,2.936,2.936,2.9855,3.071,3.071,3.071,3.071,3.071,3.071,3.071,3.071,3.071,3.071,3.071,3.071,3.071,3.071,3.1123,3.1686,3.1686,3.2075,3.2636,3.2636,3.2636,3.2636,3.2636,3.2179,3.1686,3.1686,3.1203,3.071,3.071,3.071,3.071,3.071,3.071,3.071,3.071,3.071,3.071,3.071,3.071,3.071,3.071,2.969,2.8763,2.8763,2.7716,2.6873,2.6873,2.6873,2.6873,2.6873,2.7978,2.9311,3.0564,2.9574,2.8388,2.7515,2.5808,2.4318,2.3403,2.1277,2.0034,2.0012,1.9151,1.827,1.7502,1.7502,1.7502,1.7502,1.7502,1.7085,1.6368,1.6368,1.5851,2.5396,2.1203,1.6274,0.9944,0.4691,-0.0195,-0.5254,-0.6937,-0.7768,-0.8558,-0.4611,0.0415,0.5484,0.7131,0.883,1.2261,1.4333,1.6768,2.051,2.1092,2.1814,2.3667,2.429,2.4497,2.4299,2.5429,2.6333,2.6555,2.6893,2.7504,2.8555,2.8856,2.9301,2.9913,2.9301,2.9419,3.0286,2.9653,2.9855,3.071,3.071,3.071,3.071,3.071,3.071,3.071,3.071,3.071,3.071,3.071,3.0959,3.1419,3.1867,3.1633,3.1123,3.2024,3.2179,3.2024,3.2485,3.2636,3.2636,3.2636,3.2535,3.2281,3.1815,3.1527,3.1257,3.0822,3.071,3.0302,2.8502,2.8065,2.8065,2.8065,2.8065,2.8065,2.8065,2.8065,2.8065,2.8065,2.7716,2.7455,2.7455,2.7106,2.6844,2.6844,2.6844,2.6844,2.6844,2.7479,2.8137,2.8524,2.8227,2.7881,2.7695,2.6229,2.5045,2.4292,2.1155,1.8959,1.8052,1.7335,1.6543,1.5813,1.5734,1.5734,1.5734,1.5734,1.5602,1.5414,1.5414,1.5223,3.0254,2.5789,2.0043,1.283,0.8837,0.5012,-0.1426,-0.4161,-0.5657,-0.6734,-0.3713,-0.0102,0.285,0.5622,0.8808,1.2591,1.5238,1.7653,2.0213,2.0956,2.1899,2.3276,2.356,2.381,2.4221,2.5472,2.64,2.6957,2.7566,2.8311,2.9301,2.9653,3.0143,3.071,3.0172,3.0143,3.071,3.0143,3.0398,3.1419,3.1419,3.1311,3.1069,3.1069,3.1069,3.1069,3.0822,3.0877,3.1069,3.0822,3.0959,3.1365,3.1762,3.158,3.1203,3.2281,3.2383,3.2066,3.221,3.2119,3.1974,3.2214,3.1957,3.1513,3.1363,3.0955,3.0372,2.9506,2.9253,2.8956,2.7714,2.7412,2.7412,2.7412,2.7299,2.7126,2.7126,2.7126,2.7059,2.6893,2.6581,2.6325,2.6135,2.5681,2.5361,2.5361,2.5361,2.5361,2.5361,2.625,2.6867,2.6867,2.7501,2.7637,2.7048,2.53,2.4009,2.3407,2.0954,1.8933,1.7615,1.716,1.6479,1.5447,1.5411,1.5242,1.4959,1.4959,1.4959,1.4959,1.4959,1.4959,3.536,2.9852,2.2639,1.526,1.4325,1.3459,0.6754,0.1829,-0.1422,-0.1497,-0.0193,0.059,-0.0925,0.4627,1.037,1.3394,1.728,2.0012,1.9885,2.0475,2.1365,2.2733,2.2971,2.3401,2.4314,2.5956,2.7021,2.7085,2.8494,2.936,2.9477,3.0229,3.071,3.0766,3.0766,3.0822,3.0877,3.0877,3.1443,3.248,3.248,3.224,3.1792,3.1792,3.1792,3.1739,3.1005,3.103,3.1536,3.0833,3.0529,3.0529,3.0529,3.0882,3.1542,3.2176,3.2455,3.2366,3.1783,3.1172,3.0782,3.1423,3.08,2.9891,3.0415,2.9763,2.8563,2.7312,2.6747,2.6842,2.7803,2.8026,2.8026,2.8026,2.7713,2.7363,2.7317,2.7317,2.7162,2.665,2.5951,2.5313,2.4827,2.3732,2.2947,2.2947,2.2947,2.2947,2.2989,2.4525,2.5572,2.5615,2.7157,2.7459,2.5735,2.3428,2.1852,2.1227,2.0615,1.9676,1.8316,1.8287,1.7637,1.6205,1.617,1.5783,1.5072,1.5015,1.4959,1.4959,1.4959,1.4959,3.6272,3.3471,2.9043,2.0862,1.9307,1.8466,1.3397,0.9104,0.5767,0.4373,0.5617,0.642,0.4766,0.7415,1.0761,1.3613,1.7348,2.0071,2.0597,2.1996,2.345,2.4577,2.4213,2.4184,2.5231,2.6375,2.7251,2.7879,2.8796,2.9653,3.0343,3.0598,3.0933,3.1419,3.1473,3.1686,3.2179,3.2179,3.1809,3.1004,3.1004,3.1514,3.2434,3.2434,3.2434,3.2372,3.1126,3.0666,3.0671,2.9451,2.893,2.893,2.893,2.9054,2.921,2.9901,3.0119,3.0185,3.0518,3.054,3.046,3.0579,3.042,3.0136,2.9781,2.9441,2.9029,2.8214,2.6309,2.449,2.4751,2.4792,2.4792,2.4792,2.5005,2.5125,2.471,2.4627,2.446,2.3935,2.3673,2.3553,2.3426,2.3121,2.2947,2.2947,2.2947,2.3043,2.3454,2.4284,2.4935,2.5306,2.5733,2.5652,2.485,2.3885,2.272,2.1274,2.1042,2.0163,1.8339,1.8287,1.7848,1.6891,1.6369,1.606,1.5838,1.5242,1.4959,1.4959,1.4959,1.4959,4.047,3.8068,3.443,2.9203,2.7865,2.6453,2.123,1.7175,1.43,1.3288,1.3789,1.3967,1.2685,1.3564,1.5384,1.7699,2.0297,2.2199,2.289,2.3147,2.401,2.6024,2.5067,2.4982,2.6882,2.7369,2.7852,2.8594,2.9742,3.0471,3.0628,3.0598,3.0482,3.0177,3.0146,3.0342,3.0678,3.1252,3.1272,3.0683,3.1187,3.1439,3.1478,3.2593,3.2404,3.1114,3.0911,3.0472,2.992,2.8961,2.8506,2.8378,2.8378,2.8378,2.8391,2.8754,2.9095,2.933,2.9076,2.881,2.8584,2.8887,2.8772,2.8545,2.8466,2.8234,2.7824,2.686,2.5735,2.4692,2.4203,2.4242,2.4356,2.4126,2.4096,2.4088,2.3774,2.3725,2.3535,2.3001,2.3155,2.3209,2.2989,2.2947,2.2947,2.2947,2.2947,2.3155,2.3685,2.4173,2.4661,2.5193,2.547,2.5334,2.455,2.4211,2.3505,2.2101,2.1701,2.0849,1.9256,1.9156,1.8678,1.7668,1.732,1.6945,1.6567,1.5838,1.5523,1.5504,1.5129,1.4959,4.507,4.2729,3.9812,3.8776,3.7656,3.5479,3.0377,2.6494,2.3936,2.3765,2.3319,2.2626,2.1567,2.1372,2.1947,2.3564,2.4378,2.5022,2.5432,2.4153,2.4106,2.6783,2.5688,2.5682,2.8224,2.8399,2.8539,2.8971,3.0463,3.1039,3.0244,3.0183,2.9702,2.8555,2.8555,2.8382,2.8063,2.9173,3.0018,3.0574,3.1441,3.1281,3.014,3.2252,3.1886,2.9621,3.0449,3.0233,2.9249,2.873,2.8344,2.8086,2.8086,2.8044,2.8063,2.8063,2.8327,2.8586,2.7479,2.6727,2.6376,2.7025,2.6804,2.6494,2.7062,2.6804,2.6165,2.5011,2.5334,2.5709,2.4734,2.4839,2.5051,2.4587,2.4165,2.3853,2.3932,2.3814,2.3645,2.325,2.3454,2.3575,2.325,2.3167,2.3167,2.3072,2.3043,2.3209,2.3655,2.4126,2.4618,2.5225,2.5641,2.5541,2.4587,2.4513,2.4096,2.3085,2.2378,2.1466,2.0425,2.0377,1.9798,1.8624,1.8447,1.8034,1.7298,1.6621,1.6205,1.6115,1.5447,1.5072,4.5283,4.6225,4.7252,4.7397,4.5332,4.3005,4.1986,3.8711,3.5566,3.4464,3.3377,3.2106,3.0315,2.8682,2.7852,2.8595,2.7425,2.6454,2.6396,2.5522,2.5073,2.5692,2.6187,2.6649,2.72,2.8419,2.8943,2.8398,2.9298,2.9544,2.8748,2.8731,2.8873,2.9178,2.922,2.8306,2.6427,2.683,2.7721,2.9097,2.9264,2.9832,3.0768,3.1163,3.1092,3.0629,2.9803,2.9358,2.9084,2.7827,2.7075,2.673,2.673,2.66,2.6394,2.6394,2.6185,2.5868,2.568,2.5513,2.5548,2.6068,2.617,2.6102,2.6236,2.617,2.607,2.5875,2.5607,2.5229,2.4624,2.455,2.4587,2.4513,2.4438,2.4475,2.4943,2.4318,2.3814,2.4173,2.3971,2.3814,2.4211,2.4249,2.4096,2.3655,2.3605,2.3615,2.3695,2.3774,2.4203,2.519,2.5366,2.5158,2.455,2.4513,2.4249,2.3615,2.2593,2.1673,2.1089,2.1042,2.0688,1.9919,1.9281,1.8631,1.8109,1.7298,1.6675,1.6115,1.6005,1.5615,4.68,4.7955,4.8941,4.817,4.6996,4.5707,4.4735,4.3138,4.164,4.088,4.0482,3.9742,3.7958,3.605,3.4848,3.5152,3.4002,3.2298,3.0168,2.7806,2.658,2.7164,2.7087,2.737,2.8615,2.8034,2.7905,2.835,2.8799,2.87,2.7887,2.8139,2.8024,2.7552,2.7589,2.7118,2.626,2.6379,2.6986,2.8152,2.8732,2.9039,2.9153,3.0577,3.0342,2.881,2.9272,2.8995,2.8183,2.7592,2.72,2.6935,2.6781,2.6529,2.626,2.626,2.6007,2.5675,2.5675,2.5675,2.5741,2.5975,2.604,2.604,2.604,2.604,2.5975,2.5709,2.5641,2.5504,2.4698,2.4729,2.4839,2.455,2.4513,2.455,2.4802,2.4507,2.4211,2.4438,2.4487,2.4541,2.4768,2.4644,2.4338,2.3874,2.3835,2.4012,2.4507,2.4544,2.4839,2.5607,2.5435,2.5158,2.4911,2.4624,2.4249,2.3765,2.293,2.2204,2.1656,2.1365,2.0876,2.0208,1.9894,1.9553,1.9331,1.7962,1.6964,1.6303,1.5104,1.4604,4.7626,0.0,4.7815,4.6546,4.6545,4.6515,0.0,4.5224,4.5577,4.5432,4.5575,4.524,4.3766,4.1973,4.0548,4.0161,3.9028,3.7073,3.3711,3.0439,2.8502,2.8808,2.8341,2.8479,2.9477,2.7891,2.7154,2.7989,2.8062,2.7783,2.7114,2.7476,2.7158,2.6073,2.6104,2.626,2.6555,2.6643,2.7018,2.758,2.844,2.8371,2.765,2.9671,2.9311,2.725,2.8727,2.8749,2.767,2.7812,2.7729,2.7516,2.7348,2.6983,2.6555,2.6499,2.626,2.5975,2.5909,2.5875,2.5875,2.5875,2.5942,2.604,2.604,2.604,2.5975,2.5573,2.5709,2.5809,2.4911,2.4875,2.4983,2.4587,2.44,2.4363,2.4624,2.4587,2.455,2.4807,2.5096,2.5291,2.53,2.5074,2.4676,2.4139,2.4059,2.419,2.4676,2.4875,2.5154,2.5641,2.5403,2.5296,2.5296,2.4802,2.4325,2.3932,2.3413,2.2791,2.2001,2.1566,2.102,2.0222,2.039,2.0165,1.962,1.7979,1.6796,1.6132,1.4429,1.3843,0.0,4.5205,4.4489,4.4355,4.5426,4.638,4.59,4.7096,0.0,4.8619,4.8296,4.7627,4.6536,4.4892,4.3023,4.1113,3.9289,3.7422,3.5254,3.3065,3.1017,2.9167,3.0121,3.0183,2.8154,2.8355,2.8039,2.6703,2.6592,2.6453,2.6171,2.6172,2.6139,2.604,2.6291,2.6618,2.699,2.7314,2.7554,2.758,2.7659,2.7659,2.758,2.7799,2.7764,2.758,2.8072,2.8366,2.8493,2.8493,2.8278,2.797,2.7948,2.7549,2.6962,2.6555,2.6194,2.581,2.5438,2.5331,2.5331,2.5331,2.5641,2.604,2.604,2.604,2.604,2.6007,2.6007,2.5909,2.5366,2.4875,2.455,2.4513,2.4096,2.401,2.5015,2.4839,2.4771,2.5743,2.5968,2.5959,2.5974,2.5942,2.5579,2.461,2.4442,2.4126,2.3225,2.3614,2.4179,2.455,2.4983,2.5296,2.5296,2.4802,2.4475,2.4438,2.3971,2.3138,2.2001,2.1913,2.1368,2.0228,2.0824,2.002,1.7855,1.6754,1.5841,1.5057,1.4902,1.4551,4.4231,4.3736,4.3704,4.3573,4.4576,4.5555,4.5426,4.6801,4.8212,4.8672,4.8478,4.7837,4.6631,4.5063,4.3287,4.1384,4.0026,3.8493,3.6655,3.4629,3.2621,3.0838,2.8799,2.695,2.5428,2.5102,2.4983,2.4853,2.5086,2.5187,2.5055,2.5709,2.604,2.604,2.6289,2.6647,2.7018,2.7427,2.7738,2.7965,2.7965,2.8045,2.8187,2.8187,2.8293,2.8437,2.8608,2.8776,0.0,2.8829,2.8722,2.8573,2.8437,2.7951,2.7375,2.7208,2.6792,2.6194,2.6036,2.5876,2.5775,2.5775,2.5909,2.604,2.604,2.604,2.5975,2.5641,2.5573,2.5504,2.5331,2.5368,2.5178,2.4044,2.3618,2.326,2.2509,2.2383,2.2703,2.3598,2.3463,2.3845,2.5703,2.6055,2.5924,2.5514,2.5483,2.5056,2.4074,2.4137,2.4111,2.3697,2.4534,2.4827,2.3984,2.2471,2.1692,2.1928,2.1295,2.0439,1.9349,1.9308,1.8765,1.7669,1.8241,1.8115,1.7209,1.7117,1.6439,1.5037,1.375,1.3318,4.1337,4.059,4.0086,3.9814,4.1119,4.2596,4.3137,4.5182,4.7278,4.842,4.8438,4.7808,4.6548,4.5219,4.3618,4.1411,3.9982,3.8408,3.6328,3.3922,3.1908,3.0682,2.7472,2.5134,2.4474,2.3603,2.3298,2.3737,2.4237,2.4624,2.4952,2.5675,2.617,2.6356,2.6533,2.6844,2.7401,2.7665,2.7989,2.8316,2.8316,2.8428,2.8703,2.8703,2.8794,2.8971,2.8948,2.9038,2.9171,2.9081,2.9054,2.8996,2.8846,2.844,2.8032,2.7788,2.7408,2.6921,2.6701,2.6412,2.6167,2.6167,2.6104,2.604,2.604,2.5646,2.5025,2.4212,2.3984,2.3984,2.3984,2.4246,2.4114,2.2733,2.2415,2.1971,2.0401,2.0271,2.0784,2.1894,2.0771,2.038,2.2872,2.2928,2.264,2.2692,2.2666,2.2987,2.3885,2.4564,2.4302,2.253,2.3471,2.3599,2.2122,2.118,2.0492,2.0245,1.9722,1.906,1.8223,1.797,1.7362,1.6286,1.683,1.6727,1.5812,1.6578,1.6083,1.441,1.2958,1.2645,3.7517,3.5307,3.2755,3.2507,3.4602,3.7132,3.8844,4.2237,4.5757,4.8273,4.8481,4.7845,4.6656,4.5691,4.4114,4.1293,3.9019,3.6733,3.4018,3.0907,2.87,2.8018,2.6549,2.564,2.5755,2.4631,2.3765,2.3525,2.4111,2.4947,2.5975,2.604,2.6325,2.699,2.7018,2.7366,2.8162,2.8197,2.8337,2.8588,2.8588,2.8721,2.8971,2.8971,2.8971,2.8951,2.8949,2.9054,2.9185,2.9276,2.929,2.9148,2.9148,2.909,2.8883,2.8242,2.7992,2.7903,2.7279,2.6758,2.6436,2.6436,2.626,2.604,2.6007,2.4764,2.3017,2.1569,2.1185,2.1185,2.1185,2.1069,2.0892,2.0494,2.037,2.009,1.906,1.88,1.9363,2.1214,1.8196,1.5807,1.7078,1.6228,1.5358,1.5346,1.5371,1.7163,2.2222,2.4668,2.4538,2.0956,2.1592,2.1577,1.9765,2.1259,2.156,1.9893,1.9767,1.9596,1.9195,1.8545,1.7675,1.651,1.7242,1.623,1.3427,1.4698,1.4464,1.2827,1.2827,1.2827,3.4792,3.312,3.1609,3.1666,3.2413,3.4075,3.7505,4.0411,4.3517,4.7567,4.8291,4.7859,4.67,4.5246,4.3252,4.0242,3.7448,3.4556,3.1339,2.8211,2.564,2.4191,2.2749,2.1594,2.0826,2.0266,2.0247,2.1012,2.2768,2.4157,2.4947,2.5299,2.5743,2.6325,2.6798,2.7127,2.7375,2.7918,2.8337,2.8588,2.8588,2.8739,2.9098,2.9098,2.9194,2.9391,2.9392,2.938,2.9466,2.9566,2.9465,2.9134,2.9253,2.9207,2.9064,2.8904,2.8153,2.7297,2.7292,2.6969,2.6601,2.6797,2.6618,2.608,2.4688,2.3412,2.2145,2.1182,2.0765,2.0587,2.0308,2.0463,2.0397,1.9072,1.8767,1.8312,1.6729,1.6594,1.7141,1.8318,1.7551,1.6844,1.724,1.6207,1.5347,1.5358,1.537,1.5919,1.7378,1.8134,1.8467,1.83,1.8183,1.7831,1.7096,1.7283,1.7054,1.6196,1.6225,1.5916,1.5141,1.4942,1.4583,1.3946,1.4141,1.3843,1.3027,1.366,1.3568,1.2827,1.3408,1.3344,2.2011,2.212,2.2518,2.2866,2.6568,3.1167,3.495,3.8154,4.1828,4.7068,4.8171,4.7864,4.6686,4.5074,4.2613,3.8608,3.5816,3.2279,2.6851,2.4129,2.1486,1.834,1.7685,1.7158,1.6266,1.716,1.8068,1.8762,2.1299,2.2928,2.3187,2.4023,2.5025,2.6066,2.6701,2.72,2.7633,2.8113,2.8493,2.881,2.881,2.8991,2.9316,2.9316,2.9405,2.9526,2.9612,2.9586,2.9577,2.9753,2.9661,2.938,2.9466,2.9458,2.9357,2.9148,2.8517,2.7811,2.7963,2.75,2.6831,2.6962,2.6012,2.4552,2.3118,2.1897,2.0787,1.9637,1.894,1.849,1.8283,1.8313,1.8189,1.717,1.6932,1.655,1.533,1.5232,1.5411,1.551,1.5534,1.5902,1.7097,1.6645,1.6116,1.612,1.614,1.6145,1.6125,1.5884,1.5949,1.6468,1.6171,1.587,1.5732,1.5071,1.4639,1.4575,1.4518,1.4277,1.3894,1.3605,1.3268,1.2838,1.2805,1.2821,1.2827,1.3069,1.3036,1.2827,1.3312,1.3344,0.3824,0.6108,0.8661,0.9534,1.7998,2.7107,3.0994,3.5276,4.0229,4.6458,4.7895,4.7677,4.6467,4.4544,4.1428,3.6244,3.3435,2.91,2.0948,1.8858,1.6302,1.1323,1.205,1.2782,1.2154,1.4933,1.672,1.6613,1.9532,2.1105,2.0679,2.2137,2.3851,2.5707,2.6309,2.7064,2.8039,2.8243,2.8555,2.8939,2.9087,2.9316,2.9575,2.9571,2.9544,2.9544,2.9678,2.9664,2.96,2.9828,2.9823,2.9725,2.9747,2.9726,2.9694,2.9208,2.9045,2.903,2.8911,2.8102,2.7085,2.6803,2.4616,2.1921,2.1332,2.0379,1.9193,1.7612,1.651,1.5775,1.5696,1.5374,1.507,1.507,1.507,1.4928,1.4554,1.4501,1.4164,1.3051,1.2836,1.3677,1.6415,1.7026,1.711,1.711,1.7224,1.7262,1.7136,1.6612,1.5994,1.5299,1.5301,1.53,1.5182,1.4223,1.3837,1.4321,1.4063,1.4006,1.4321,1.3833,1.3329,1.2845,1.2813,1.2813,1.2842,1.2818,1.2818,1.2727,1.2794,1.3003,-0.0779,0.0599,0.2556,0.4838,0.9395,1.5554,2.4109,3.0134,3.6049,4.3815,4.6251,4.6465,4.4786,4.0423,3.5716,3.1728,2.602,2.0196,1.4629,1.2277,0.9934,0.677,0.8381,0.967,0.954,1.2454,1.4358,1.4284,1.6387,1.7365,1.6641,1.911,2.1089,2.2227,2.307,2.3654,2.3979,2.5813,2.6954,2.7363,2.8658,2.9465,2.9698,2.9694,2.9701,2.9701,2.9728,2.9715,2.9687,2.9765,2.9689,2.9613,2.9715,2.9745,2.9704,2.9497,2.9535,2.9603,2.8674,2.8163,2.7555,2.5327,2.2314,1.9592,1.9434,1.9014,1.8424,1.7778,1.6836,1.5946,1.5429,1.4785,1.4229,1.4229,1.4229,1.4171,1.3852,1.381,1.3625,1.2955,1.2831,1.3027,1.366,1.4882,1.5779,1.5779,1.666,1.6921,1.5909,1.5631,1.5232,1.4376,1.4842,1.4841,1.3899,1.3689,1.3318,1.263,1.2895,1.2904,1.2448,1.2796,1.2936,1.2823,1.2823,1.2851,1.2833,1.2806,1.2573,1.2075,1.2601,1.263,-1.4804,-1.4233,-1.2155,-0.6834,-0.1133,0.6004,1.673,2.3438,3.0323,4.0536,4.3713,4.4275,4.3098,3.8789,3.3042,2.5873,1.993,1.3909,0.71,0.5244,0.3788,0.1679,0.367,0.5506,0.6303,0.9383,1.1466,1.1865,1.3843,1.4765,1.4108,1.5885,1.8148,2.0762,2.1584,2.2376,2.3207,2.4556,2.5412,2.5816,2.6679,2.7182,2.7303,2.7293,2.7323,2.7297,2.6646,2.7632,2.9515,2.7908,2.8187,2.9653,2.966,2.965,2.9661,2.9549,2.9641,2.9688,2.919,2.6945,2.4038,2.2544,2.0859,1.9353,1.8953,1.8625,1.8272,1.7896,1.7022,1.6072,1.5343,1.4318,1.3389,1.3139,1.3074,1.3082,1.3217,1.3241,1.2993,1.2066,1.2062,1.2008,1.1501,1.2933,1.4412,1.5242,1.5933,1.613,1.5437,1.4982,1.4497,1.3967,1.4169,1.4098,1.3466,1.3084,1.2606,1.2007,1.1915,1.1812,1.1684,1.2412,1.2832,1.2821,1.1889,1.1898,1.2821,1.2833,1.2482,1.185,1.2203,1.2157,-2.9389,-2.9259,-2.6503,-1.9318,-1.1466,-0.2688,0.8185,1.5441,2.3189,3.4785,3.9364,4.1108,4.0432,3.6455,2.9909,1.9486,1.3018,0.656,-0.1304,-0.2346,-0.2657,-0.3565,-0.1063,0.1332,0.3072,0.6294,0.8719,0.9592,1.1219,1.2067,1.1825,1.2506,1.4739,1.8646,1.9622,2.0882,2.2538,2.3277,2.3852,2.4237,2.4563,2.4689,2.4682,2.4675,2.4319,2.3685,2.2558,2.4936,2.9314,2.6534,2.6705,2.8712,2.7957,2.7684,2.7704,2.769,2.7757,2.784,2.8085,2.4557,1.9915,1.9648,1.9735,1.9818,1.9006,1.865,1.8431,1.8019,1.707,1.5961,1.5116,1.3692,1.2337,1.18,1.1661,1.18,1.2212,1.2405,1.2131,1.1097,1.105,1.0928,1.0049,1.127,1.278,1.4188,1.4695,1.4993,1.5264,1.4416,1.3659,1.3329,1.3171,1.3011,1.2829,1.195,1.1372,1.1258,1.0634,1.0401,1.0644,1.1374,1.1796,1.1767,1.0579,1.0693,1.2316,1.2675,1.238,1.152,1.1513,1.1354,-3.292,-3.2416,-2.8321,-2.4744,-1.8762,-1.1584,-0.3137,0.5357,1.3918,2.2338,3.0961,3.6484,3.485,2.8838,2.1504,1.347,0.1691,-0.7583,-1.0696,-1.0973,-1.015,-0.8449,-0.4547,-0.1335,0.0323,0.4274,0.7047,0.7863,0.7582,0.7716,0.8549,0.9104,1.0261,1.2105,1.386,1.5832,1.7949,2.0492,2.1932,2.2358,2.406,2.4789,2.4676,2.4579,2.2862,1.9961,1.9524,2.3262,2.9507,2.907,2.7305,2.4539,2.1467,2.0276,2.0282,2.0256,2.0574,2.094,2.0989,2.0444,1.9457,1.8121,1.8574,1.9521,1.874,1.8577,1.8552,1.8142,1.6813,1.5242,1.41,1.2397,1.083,1.0335,1.0205,1.0205,1.0278,1.0664,1.0953,1.0884,1.0454,1.0089,0.995,1.014,1.0366,1.0595,1.2088,1.366,1.5007,1.3802,1.242,1.1375,1.1641,1.1498,1.0482,0.9423,0.8839,0.8839,0.8209,0.7712,0.7434,0.7538,0.7615,0.7619,0.9118,1.0034,1.0282,1.2012,1.1931,1.0189,1.0175,0.9909,-2.7026,-3.0509,-3.1633,-2.9706,-2.5394,-1.9713,-1.2612,-0.5392,0.2736,1.2746,2.1783,2.7674,2.6999,2.4387,1.8003,0.4614,-0.3718,-1.0306,-1.5291,-1.4895,-1.3183,-1.0744,-0.6234,-0.2233,0.0518,0.3801,0.6102,0.6859,0.5615,0.5128,0.5851,0.5693,0.6172,0.7477,0.8955,1.094,1.3373,1.8052,2.0448,2.0577,2.1348,2.1647,2.1504,2.1073,2.0018,1.8564,1.8087,1.9688,2.2653,2.2674,2.1722,2.0157,1.8597,1.6953,1.5748,1.8021,1.8997,1.9116,1.8531,1.649,1.4421,1.5763,1.7154,1.8272,1.793,1.8475,1.9112,1.8561,1.571,1.287,1.3031,0.9824,0.651,0.6247,0.5235,0.429,0.407,0.5078,0.5931,0.5716,0.7963,0.991,0.9925,0.8923,0.8151,0.8156,1.0832,1.2685,1.2272,1.2501,1.2126,1.0514,1.0548,1.0474,0.9947,0.8693,0.7929,0.7929,0.6135,0.4762,0.3996,0.3324,0.3611,0.4933,0.5822,0.6297,0.6309,0.7182,0.8113,0.9061,0.9057,0.8266,-2.1053,-2.8917,-3.5067,-3.3721,-3.0706,-2.6686,-2.1406,-1.5674,-0.8715,0.1001,1.0065,1.6472,1.7157,1.7278,1.2492,-0.2127,-0.8015,-1.2922,-1.9107,-1.7011,-1.4014,-1.16,-0.5958,-0.1447,0.0774,0.3365,0.4505,0.3607,0.2172,0.1476,0.1784,0.1383,0.1608,0.25,0.3792,0.5591,0.7939,1.3238,1.7107,1.9525,1.758,1.7163,1.8023,1.7463,1.6928,1.6466,1.5894,1.5582,1.5447,1.5936,1.6433,1.6706,1.5757,1.4043,1.2442,1.5454,1.6565,1.6234,1.3771,1.0494,0.8066,1.2304,1.4315,1.4623,1.2024,1.2614,1.44,1.5772,1.2673,0.891,0.8801,0.4937,0.1075,0.1037,-0.0285,-0.1605,-0.1898,-0.1073,-0.0856,-0.2823,0.0396,0.3764,0.4717,0.3557,0.3101,0.4819,0.763,0.8438,0.5279,0.6123,0.7551,0.8982,0.9108,0.8903,0.8334,0.6945,0.5831,0.5246,0.3054,0.1057,-0.0552,-0.1451,-0.0768,0.1681,0.1709,0.172,0.1709,0.1463,0.3317,0.7075,0.6228,0.4992,-1.8854,-2.9964,-3.8174,-3.6268,-3.4118,-3.1968,-2.9764,-2.4992,-1.9893,-1.5705,-0.5638,0.2904,0.4676,0.4086,0.1504,-0.4237,-1.2888,-2.0056,-2.3525,-1.7951,-1.287,-1.1134,-0.3253,0.1521,0.0191,0.2459,0.1657,-0.3865,-0.4367,-0.4589,-0.4914,-0.4394,-0.4004,-0.3829,-0.219,-0.0551,0.1087,0.4109,1.0394,1.9718,1.2924,1.1651,1.5366,1.4954,1.38,1.2172,1.1873,1.1177,1.0442,1.2285,1.4013,1.5115,1.1646,1.0184,1.0088,1.0302,1.0371,0.9477,0.3109,0.0738,0.1468,0.7211,0.9121,0.7402,-0.2269,-0.3166,0.0566,0.7356,0.6572,0.2855,-0.0799,-0.3369,-0.5036,-0.5158,-0.5462,-0.5734,-0.5747,-0.6634,-0.9152,-1.502,-1.5006,-1.2971,-0.9493,-0.8972,-0.693,-0.0599,0.0525,-0.1671,-0.8074,-0.8817,-0.4713,0.5842,0.6972,0.61,0.4003,0.2722,0.1099,-0.1133,-0.1987,-0.3829,-0.6972,-0.715,-0.5907,-0.3179,-0.3151,-0.3136,-0.3136,-0.4148,-0.1721,0.3677,0.0442,-0.0927,-1.153,-2.3958,-3.4841,-3.7251,-3.6571,-3.5081,-3.4048,-3.0936,-2.8272,-2.8355,-1.7514,-0.9025,-1.2295,-0.7143,-0.5033,-1.294,-1.6881,-2.0202,-2.392,-2.0338,-1.6615,-1.4402,-0.8104,-0.3955,-0.3979,-0.341,-0.4923,-0.9626,-0.9595,-0.9646,-1.0262,-0.9958,-0.9608,-0.9293,-0.8204,-0.8838,-1.1394,-0.6923,-0.0692,0.7054,0.5595,0.5734,0.7318,0.8014,0.7205,0.5265,0.5922,0.6847,0.7969,0.867,1.0848,1.347,1.0926,0.8329,0.6012,0.5839,0.3402,-0.0173,-0.2562,-0.4805,-0.604,-0.2427,-0.3001,-0.5782,-0.9421,-1.1135,-0.7933,1.0747,0.612,-0.3871,-0.1418,-0.5347,-0.9949,-1.0006,-1.0923,-1.1917,-1.254,-1.4057,-1.6027,-1.838,-1.8573,-1.793,-1.6632,-1.5433,-1.3582,-1.0341,-1.0588,-1.1973,-1.4352,-1.391,-1.0965,-0.4637,-0.603,-0.7751,-0.8555,-0.2935,0.0256,-0.0578,-0.3918,-0.7859,-1.2395,-1.257,-1.103,-0.7689,-0.7631,-0.7636,-0.7613,-0.9167,-0.7761,-0.3647,-0.5394,-0.4882,-0.7899,-2.2146,-3.5757,-3.8381,-3.8353,-3.7561,-3.7273,-3.5372,-3.4012,-3.5347,-2.6966,-2.0287,-2.3296,-1.7333,-1.3738,-1.9314,-2.0263,-2.126,-2.4126,-2.0422,-1.7055,-1.5869,-1.0009,-0.6439,-0.7492,-0.9242,-1.176,-1.5145,-1.5097,-1.519,-1.574,-1.5654,-1.5517,-1.5468,-1.49,-1.6385,-2.0071,-1.6415,-1.1531,-0.5553,-0.6063,-0.4956,-0.2331,0.0957,0.1522,-0.0,0.0359,0.1147,0.242,0.4751,0.7466,0.9944,0.7264,0.4255,0.1274,0.0148,-0.3445,-0.7641,-0.7149,-0.9081,-1.1532,-0.9504,-1.0642,-1.3262,-1.5542,-1.8098,-1.636,0.2247,-0.2206,-1.1693,-0.8011,-1.1481,-1.584,-1.5507,-1.6777,-1.7933,-1.7484,-1.9392,-2.0932,-2.005,-1.9969,-2.0013,-2.0032,-1.9012,-1.7909,-1.7056,-1.7438,-1.7906,-1.8081,-1.6883,-1.5077,-1.2672,-1.4568,-1.6153,-1.6489,-1.0264,-0.6018,-0.5217,-0.8337,-1.2178,-1.6609,-1.6784,-1.5398,-1.2454,-1.1358,-1.1118,-1.1739,-1.2748,-1.2082,-0.99,-1.1043,-1.0082,-0.8349,-2.488,-4.0941,-3.9546,-3.9401,-3.9642,-3.981,-3.8544,-3.7241,-3.6753,-3.3942,-3.0694,-2.7617,-2.6281,-2.4908,-2.2785,-2.3141,-2.3905,-2.4517,-1.8268,-1.4123,-1.542,-0.8572,-0.5603,-1.0348,-1.4879,-1.8399,-2.042,-2.0936,-2.1219,-2.132,-2.1433,-2.173,-2.2262,-2.2214,-2.2834,-2.4249,-2.3905,-2.1381,-1.678,-2.1466,-2.0032,-1.3014,-0.5982,-0.3059,-0.3552,-0.4793,-0.5994,-0.6527,0.02,0.3567,0.4207,0.0202,-0.23,-0.4031,-0.6995,-1.0046,-1.2554,-1.0867,-1.2332,-1.4783,-1.3431,-1.3062,-1.4347,-2.0947,-2.4405,-2.4853,-1.9222,-1.8837,-2.0354,-2.1232,-2.2113,-2.2576,-2.1687,-2.2824,-2.3297,-2.0262,-2.2281,-2.3725,-2.0615,-2.0021,-2.0008,-2.0004,-2.0014,-2.0035,-2.0025,-1.9378,-1.9055,-1.958,-1.8304,-1.739,-1.7376,-1.7359,-1.7775,-1.8789,-1.8904,-1.7911,-1.5627,-1.5466,-1.6715,-1.9523,-1.9629,-1.892,-1.7393,-1.4315,-1.3583,-1.5351,-1.4784,-1.4498,-1.4557,-1.6333,-1.6636,-0.4983,-1.6865,-2.761,-3.5127,-4.0144,-4.3299,-4.3409,-4.3091,-4.2005,-3.9331,-3.6529,-3.4036,-3.2228,-3.0613,-2.9197,-2.8108,-2.8223,-2.8146,-2.7274,-2.4631,-2.2103,-2.0201,-1.6549,-1.6361,-2.2022,-2.2851,-2.3409,-2.416,-2.4732,-2.5018,-2.4855,-2.4444,-2.436,-2.4677,-2.6205,-2.7208,-2.7614,-2.5481,-2.3512,-2.1762,-2.307,-2.1958,-1.8543,-1.513,-1.2863,-1.1591,-1.1914,-1.2344,-1.2582,-1.0657,-0.8396,-0.6289,-0.8551,-0.8973,-0.8797,-1.297,-1.511,-1.5316,-1.1621,-1.2316,-1.5248,-1.6944,-1.8659,-2.051,-2.2379,-2.4375,-2.594,-2.5336,-2.4048,-2.2897,-2.3159,-2.3686,-2.4066,-2.3589,-2.3953,-2.4342,-2.413,-2.4086,-2.325,-2.03,-1.9766,-1.9765,-1.9767,-1.9732,-1.9815,-2.0011,-1.9851,-1.9706,-1.9628,-1.924,-1.8977,-1.8996,-1.8989,-1.9189,-1.9661,-1.9681,-1.9357,-1.8488,-1.8443,-1.8815,-1.961,-1.9819,-1.9607,-1.8994,-1.6118,-1.4841,-1.5358,-1.6514,-1.7239,-1.7644,-1.8139,-2.0632,0.3658,-0.65,-1.7481,-2.7619,-3.5774,-4.1553,-4.2504,-4.3261,-4.2955,-3.9985,-3.8104,-3.6563,-3.5502,-3.4315,-3.3171,-3.1972,-3.1798,-3.1357,-2.9937,-2.8776,-2.739,-2.5564,-2.4144,-2.474,-2.8496,-2.8043,-2.777,-2.8367,-2.8359,-2.8256,-2.8115,-2.7321,-2.6958,-2.7138,-2.8477,-2.9224,-2.9215,-2.7617,-2.6599,-2.6232,-2.6248,-2.5127,-2.3011,-2.1609,-1.927,-1.6395,-1.5949,-1.5456,-1.4911,-1.428,-1.2944,-1.1443,-1.2923,-1.2938,-1.2557,-1.6539,-1.7612,-1.6631,-1.3364,-1.4209,-1.7041,-1.8734,-2.0908,-2.3081,-2.3965,-2.5483,-2.7121,-2.7953,-2.7261,-2.6268,-2.6257,-2.6514,-2.6488,-2.557,-2.5928,-2.652,-2.6786,-2.6403,-2.5585,-2.406,-2.3779,-2.2919,-2.0107,-1.9638,-1.9748,-2.0001,-2.0008,-1.9955,-1.9823,-1.9694,-1.9629,-1.9635,-1.9744,-1.9818,-1.9849,-1.9638,-1.9491,-1.931,-1.8903,-1.8832,-1.9308,-1.9464,-2.0881,-2.3724,-1.9213,-1.68,-1.6829,-1.9472,-2.169,-2.349,-2.3391,-2.534,1.3383,0.4306,-0.8422,-1.7131,-2.7291,-3.5677,0.0,-4.0485,-4.1927,-3.9837,-3.9159,-3.8733,-3.79,-3.7433,-3.6589,-3.4717,-3.4339,-3.3854,-3.2394,-3.1395,-3.0868,-3.1033,-3.0996,-3.1111,-3.1428,-3.1323,-3.1538,-3.2333,-3.1608,-3.1071,-3.1067,-3.0207,-2.9704,-2.9704,-3.0043,-3.0174,-3.0083,-3.0236,-3.0126,-2.9747,-2.9696,-2.8546,-2.6448,-2.5627,-2.2991,-1.9104,-1.805,-1.6735,-1.5277,-1.3585,-1.3,-1.3264,-1.4545,-1.5232,-1.5843,-1.8599,-1.8721,-1.7432,-1.647,-1.7507,-1.9227,-1.9231,-2.0896,-2.3326,-2.5412,-2.7062,-2.8181,-2.8189,-2.8845,-2.9542,-2.9557,-2.9518,-2.9082,-2.7398,-2.81,-2.8914,-2.8307,-2.8539,-2.898,-2.9327,-2.9398,-2.753,-2.1735,-2.0747,-2.0822,-2.1069,-2.1113,-2.1146,-2.1137,-2.0271,-1.9674,-1.9681,-1.9869,-1.993,-1.9654,-1.9037,-1.8853,-1.9274,-1.8652,-1.8711,-1.9624,-1.9796,-2.2897,-2.9293,-2.3156,-1.9945,-2.0071,-2.3417,-2.6723,-2.9914,-2.9701,-3.0084,0.0,0.0,0.0,0.0,0.0,0.0,0.0,-3.7457,-4.4056,-4.1892,-4.1707,-4.1607,-4.0498,-3.9469,-3.8369,-3.7039,-3.6574,-3.5819,-3.4304,-3.3899,-3.4257,-3.5514,-3.5305,-3.4717,-3.3842,-3.4004,-3.3909,-3.3267,-3.3428,-3.3446,-3.3209,-3.3203,-3.3206,-3.3206,-3.4096,-3.421,-3.3491,-3.3702,-3.2461,-2.9753,-2.9432,-2.8822,-2.7918,-2.6002,-2.4064,-2.2213,-2.095,-1.9609,-1.8184,-1.5598,-1.5193,-1.6232,-1.6546,-1.7994,-2.0143,-2.1541,-2.1367,-2.0702,-2.2825,-2.1672,-1.9267,-1.9253,-2.0932,-2.3325,-2.5407,-2.706,-2.8181,-2.8179,-2.8842,-2.9542,-2.9557,-2.9327,-2.8951,-2.8357,-2.8467,-2.8576,-2.8284,-2.8265,-2.8357,-2.8424,-2.8465,-2.8278,-2.7701,-2.762,-2.765,-2.7669,-2.7891,-2.8011,-2.8012,-2.3295,-1.9953,-1.9928,-1.9969,-1.9921,-1.9657,-1.8388,-1.8895,-2.1941,-2.3544,-2.4441,-2.4638,-2.5767,-2.7035,-2.8412,-2.7089,-2.6748,-2.7478,-2.8202,-2.8916,-2.9626,-2.9787,-3.2631,0.0,0.0,0.0,0.0,0.0,0.0,0.0,0.0,0.0,0.0,0.0,-4.0192,-3.9888,0.0,-3.8969,-3.8399,-3.7688,-3.6972,-3.6153,-3.5898,-3.6152,-3.7087,-3.6926,-3.6606,-3.6296,-3.6498,-3.6524,-3.6164,-3.5848,-3.5632,-3.5486,-3.4861,-3.4503,-3.4503,-3.5572,-3.5937,-3.5486,-3.5682,-3.4343,-3.1504,-3.1818,-3.1155,-2.9598,-2.8051,-2.5971,-2.3583,-2.2358,-2.1224,-1.9918,-1.639,-1.6246,-1.8319,-1.9587,-2.0536,-2.1513,-2.3868,-2.352,-2.2204,-2.4765,-2.4294,-2.2432,-2.2445,-2.4467,-2.7234,-2.9597,-2.8822,-2.7283,-2.7997,-2.8829,-2.9461,-2.9164,-2.9017,-2.8919,-2.8646,-2.8479,-2.8364,-2.8201,-2.8187,-2.8164,-2.8164,-2.8211,-2.8307,-2.878,-2.923,-2.9551,-2.9559,-2.9743,-2.9941,-2.9954,-2.7028,-2.369,-2.0385,-1.99,-1.9663,-1.9294,-1.804,-1.8932,-2.2695,-2.3903,-2.4946,-2.6005,-2.6727,-2.7088,-2.7127,-2.7122,-2.7703,-2.8861,-2.8865,-3.0493,-3.3532,-3.3672,-3.5799,0.0,0.0,0.0,0.0,0.0,0.0,0.0,0.0,0.0,0.0,0.0,0.0,0.0,0.0,0.0,-3.8403,-3.7837,-3.7441,-3.7495,-3.7256,-3.7193,-3.7584,-3.7542,-3.7648,-3.8143,-3.8314,-3.8578,-3.8919,-3.8111,-3.7607,-3.7607,-3.6438,-3.5735,-3.5735,-3.6667,-3.717,-3.717,-3.7326,-3.6176,-3.3864,-3.4745,0.0,-3.1436,-3.0418,-2.8057,-2.4762,-2.402,-2.2626,-2.0626,-1.8077,-1.7909,-1.9492,-2.1898,-2.2621,-2.2655,-2.5885,-2.5835,-2.4249,-2.5292,-2.565,-2.569,-2.5662,-2.7965,-3.1182,-3.3804,-3.1611,0.0,-2.9677,-2.9665,-2.9256,-2.9123,-2.9469,-2.9707,-2.9154,-2.8906,-2.866,-2.827,-2.7965,-2.7859,-2.8126,-2.8185,-2.8246,-2.8407,-2.906,-2.9576,-2.9596,-2.9781,-2.9937,-2.9917,-2.9917,-2.7866,-2.2492,-2.0545,-1.9404,-1.8901,-1.8561,-1.9483,-2.2079,-2.2219,-2.2966,-2.4701,-2.472,-2.4727,-2.4753,-2.5232,-2.6512,-2.8693,-2.9175,-3.2223,-3.7493,-3.7505,-3.8196,0.0,0.0,0.0,0.0,0.0,0.0,0.0,0.0,0.0,0.0,0.0,0.0,0.0,0.0,0.0,0.0,-3.6627,-3.7132,-3.7466,-3.7466,-3.7584,-3.7985,-3.8012,-3.8133,-3.8414,-3.8789,-3.8988,-3.9056,-3.9255,-3.9356,-3.9356,-3.9213,0.0,0.0,0.0,-3.9481,-3.9481,-3.9592,-3.8496,-3.6162,-3.6282,-3.5355,-3.3449,-3.2056,-2.9926,-2.7251,-2.7831,-2.4773,-1.9729,-2.3054,-2.2423,-1.9408,-2.1096,-2.3556,-2.6352,-2.7569,-2.8772,-2.9399,-2.663,0.0,0.0,-2.5639,-2.7961,-3.1226,-3.3814,-3.5358,-3.6238,-3.6426,-3.2552,-2.8746,-3.0541,-3.1945,-3.2531,-3.0985,-3.0812,-3.0456,-2.8583,-2.7204,-2.6675,-2.7935,-2.8179,-2.8429,-2.9247,-2.9461,-2.9623,-2.9855,-2.9899,-2.9937,-2.9917,-2.9917,-2.9647,-2.891,-2.3317,0.0,-1.8901,-2.0986,-2.1526,-1.9773,-1.9657,-1.975,-1.9984,-1.9984,-2.002,-1.998,-2.2177,-2.5632,-3.0456,-3.2745,-3.5136,-3.7511,-3.7516,-3.8204,0.0,0.0,0.0,0.0,0.0,0.0,0.0,0.0,0.0,0.0,0.0,0.0,0.0,0.0,0.0,0.0,-3.5952,-3.7321,-3.7202,-3.759,-3.7931,-3.8065,-3.8367,-3.8627,-3.8826,-3.9124,-3.9313,-3.9405,-3.9644,-3.9784,-3.9784,-3.986,-3.9874,-3.9874,-3.9868,-3.9864,-3.9864,-3.9921,-3.9437,-3.8457,-3.8402,-3.74,-3.5586,-3.3977,-3.2187,-3.0305,-2.9994,-2.7259,-2.3112,-2.4956,-2.3142,-1.9574,0.0,0.0,0.0,0.0,-2.886,-2.7823,-2.8406,-2.7351,-2.5633,-2.5633,-2.7961,-3.0903,-3.1988,-3.3951,-3.5298,-3.2776,-3.1519,-3.0974,-3.1219,-3.2188,-3.2906,-3.2224,-3.2112,-3.1842,-3.0604,-2.804,-2.6491,-2.7933,-2.8176,0.0,-3.3503,-3.1603,-2.9652,-2.988,-2.6644,-2.5547,-2.9423,-2.9917,-2.995,-2.9929,-2.72,-2.509,-2.4325,-2.3476,0.0,0.0,0.0,-1.4022,-1.4066,-1.4015,0.0,0.0,0.0,-1.854,-2.4545,-2.7814,0.0,0.0,-2.8454,-3.1566,0.0,0.0,0.0,0.0,0.0,0.0,0.0,0.0,0.0,0.0,0.0,0.0,0.0,0.0,0.0,0.0,-3.1274,-3.3137,-3.1971,-3.393,-3.6153,-3.7962,-3.8648,-3.9003,-3.9182,-3.9421,-3.9785,-4.0353,-4.0539,-4.0794,-4.1249,-4.1342,-4.1383,-4.1383,-4.129,-4.1225,-4.1225,-4.1225,-4.0998,-4.0547,-4.0395,-3.937,-3.7522,-3.6045,-3.483,-3.3918,-3.2435,-2.9959,-2.6963,-2.6037,-2.3215,-1.9784,-2.2918,-2.6236,-2.9506,-3.1205,-3.0233,-2.8392,-3.0082,-2.8507,-2.5673,-2.5665,-2.797,-3.0841,-3.1557,-3.3095,-3.4082,-3.1459,-3.2615,-3.4445,-3.3441,-3.3707,-3.4164,-3.3562,-3.3799,-3.3864,-3.2856,-3.0411,-2.8695,-2.9764,-3.0379,-3.2286,-3.72,-3.4852,-3.2357,-3.2684,-2.7015,-2.4485,-2.9306,-2.9952,-2.9954,-2.9941,-2.9717,-2.9162,-2.8261,-2.4985,-1.9622,-1.1804,-0.9823,-0.8925,-0.889,-0.8933,-0.7358,-0.4048,-0.7544,-1.14,0.0,0.0,0.0,0.0,0.0,0.0,0.0,0.0,0.0,0.0,0.0,0.0,0.0,0.0,0.0,0.0,0.0,0.0,0.0,0.0,0.0,0.0,0.0,0.0,-1.9226,-2.4622,-3.1247,-3.7725,-3.8844,-3.9182,-3.9425,-3.9696,-4.0505,-4.2178,-4.2401,-4.3205,-4.4837,-4.4837,-4.4761,-4.4761,-4.4741,-4.4748,-4.4748,-4.4748,-4.3914,-4.2278,-4.2147,-4.1061,-3.9161,-3.8211,-3.7977,-3.8158,-3.5588,-3.2976,-3.0338,-2.7018,-2.3437,-2.0004,-2.0159,-2.2486,-2.6482,-3.2337,-3.4397,-3.3958,-3.1557,-2.8513,-2.5639,-2.5675,-2.797,-3.1178,-3.3691,-3.4573,-3.4978,-3.6766,-3.8172,-3.9042,-3.8094,-3.7911,-3.7407,-3.5404,-3.6198,-3.6835,-3.4926,-3.4406,-3.434,-3.4399,-3.5932,-3.7706,-3.9175,-3.9271,-3.9288,-3.9666,-3.3941,0.0,-2.991,-2.9917,-2.9948,-2.9932,-2.9702,-2.9185,-2.8272,-2.4969,-2.06,-1.517,-0.8878,-0.5407,-0.5399,-0.5412,-0.5325,-0.5189,-0.6419,-0.6062,-0.4025,0.0,0.0,0.0,0.0,0.0,0.0,0.0,0.0,0.0,0.0,0.0,0.0,0.0,0.0,0.0,0.0,0.0,0.0,0.0,0.0,0.0,0.0,0.0,0.0,-1.5082,-2.6061,-3.6921,-3.8642,-3.9053,-3.9288,-3.9594,-4.0011,-4.077,-4.0888,-4.1648,-4.3319,-4.3395,-4.3888,-4.4989,-4.4936,-4.4913,-4.4913,-4.4913,-4.4609,-4.404,-4.3922,-4.3099,-4.1713,-4.2028,-4.0598,-3.7734,-3.5532,-3.1838,-2.7098,-2.3439,-2.0392,-1.8423,-2.1951,-2.772,-3.4272,-3.5914,-3.6516,-3.6216,-3.4038,-3.1419,-2.8632,-2.6384,-2.7927,-3.1208,-3.3801,-3.4572,-3.5012,-3.694,-3.7828,-3.8186,-3.8327,-3.8028,-3.7589,-3.7128,-3.6839,-3.6411,-3.5761,-3.5057,-3.4573,-3.4607,-3.5108,-3.6136,-3.7867,-3.8919,-3.9577,-3.9974,-3.7888,-3.4661,-3.0248,-2.9831,-2.9943,-2.9932,-2.9866,-2.9392,-2.8298,-2.6213,-2.2926,-1.8087,-1.3922,-1.0765,-0.8681,-0.8563,-0.8605,-0.8604,-1.0442,-0.9513,-0.5791,0.0,0.0,0.0,0.0,0.0,0.0,0.0,0.0,0.0,0.0,0.0,0.0,0.0,0.0,0.0,0.0,0.0,0.0,0.0,0.0,0.0,0.0,0.0,0.0,0.0,0.0,-3.4969,-3.6364,0.0,-3.8116,-3.8385,-3.9169,-4.0813,-4.1496,-4.2332,-4.3395,-4.4002,-4.4799,-4.59,-4.5809,-4.6013,-4.662,-4.662,-4.6354,-4.5751,-4.5629,-4.5091,-4.4196,-4.5463,-4.4176,-4.0686,-3.6463,-3.2076,-2.7299,-1.933,-1.5243,-1.4635,-2.0081,-2.7885,-3.6182,-3.7168,-3.755,-3.7261,-3.5269,-3.2884,-3.0151,-2.679,-2.715,-2.9454,-3.2341,-3.3866,-3.4993,-3.6968,-3.7842,-3.8272,-3.8455,-3.8158,-3.7817,-3.7613,-3.7104,-3.6426,-3.5768,-3.4336,-3.3742,-3.5558,-3.5198,-3.5221,-3.7161,-3.6659,-3.6871,-3.965,-3.9703,-3.7928,-3.3623,-3.1257,-2.9952,-2.9917,-2.9933,-2.9582,-2.8731,-2.7531,-2.4995,-2.0839,-1.8004,-1.5608,-1.3565,-1.2539,-1.2517,-1.3722,-1.5162,-1.3701,0.0,0.0,0.0,0.0,0.0,0.0,0.0,0.0,0.0,0.0,0.0,0.0,0.0,0.0,0.0,0.0,0.0,0.0,0.0,0.0,0.0,0.0,0.0,0.0,0.0,0.0,0.0,-3.1243,-3.1569,0.0,0.0,0.0,0.0,-4.0386,-4.2633,-4.3924,-4.4189,-4.6051,-4.7191,-4.7305,-4.7172,-4.7947,-4.9616,-4.9654,-4.8896,-4.7378,-4.734,-4.7029,-4.6473,-4.8337,-4.8386,-4.6585,-3.8334,-3.3625,-3.0464,-1.4771,-0.8336,-0.8869,-1.4172,-2.2044,-3.0935,-3.5031,-3.6784,-3.69,-3.4853,-3.2429,-2.9632,-2.64,-2.5243,-2.5675,-2.8866,-3.1726,0.0,0.0,-3.8265,-3.9329,-3.868,-3.8496,-3.8198,-3.6933,-3.7045,-3.6936,-3.51,-3.2606,-3.2126,-3.698,-3.6105,-3.5204,-3.7202,0.0,-3.2338,-3.9023,-3.9708,-3.947,-3.9459,-3.4158,-3.0283,-2.9975,-2.9952,-2.9851,-2.9577,-2.8697,-2.6699,-2.3157,-2.072,-1.9507,-1.9524,-1.6914,-1.7039,-2.0267,-1.993,0.0,0.0,0.0,0.0,0.0,0.0,0.0,0.0,0.0,0.0,0.0,0.0,0.0,0.0,0.0,0.0,0.0,0.0,0.0,0.0,0.0,0.0,0.0,0.0,0.0,0.0,0.7149,-0.9365,-1.9542,-1.9052,-1.8078,0.0,0.0,0.0,0.0,0.0,0.0,-3.1711,-3.8834,-4.363,-4.55,-4.5521,-4.6315,-4.8024,-4.8024,-4.8441,-4.9238,-4.9054,-4.875,-4.8309,-4.8891,-4.8389,-4.6689,-4.0145,-3.3323,-2.5605,-0.9008,-0.2248,-0.2382,-0.3832,-0.5969,-0.9337,-1.882,-2.666,-3.2046,-2.9016,-2.5675,-2.2607,-2.1743,-1.9274,-1.6847,-1.7739,0.0,0.0,0.0,0.0,-3.9425,-3.924,-3.8863,-3.8329,-3.7832,-3.7079,-3.6388,-3.5891,-3.309,-3.1094,-3.2372,-3.3682,-3.5224,-3.7185,-3.7207,0.0,-3.975,-3.9729,-3.9445,-3.9459,-3.8042,-3.5218,-3.043,-2.9937,-2.9823,-2.9575,-2.871,-2.6683,-2.3157,-2.2324,-2.2601,-2.3956,-2.3294,-2.332,-2.4233,0.0,0.0,0.0,0.0,0.0,0.0,0.0,0.0,0.0,0.0,0.0,0.0,0.0,0.0,0.0,0.0,0.0,0.0,0.0,0.0,0.0,0.0,0.0,0.0,0.0,0.0,0.0,1.4839,0.0871,-0.8405,-0.6721,-0.5185,0.0,0.0,0.0,0.0,0.0,0.0,0.0,0.0,0.0,-3.5297,-3.6442,-3.9901,-4.5994,-4.607,-4.6577,-4.7659,-4.7334,-4.6801,-4.6079,-4.5341,-4.4189,-4.2605,-3.7664,-2.7416,-1.3197,-0.1091,0.3826,0.4157,0.0,0.0,0.0,0.0,-0.3229,-1.0555,-1.6315,-1.6496,-1.3622,-0.9512,0.0,0.0,0.0,0.0,0.0,0.0,0.0,-3.4326,-3.8414,-3.8752,-3.7918,-3.7389,-3.6991,-3.6517,-3.5653,-3.2956,-3.0261,-2.8781,-2.819,-2.8856,-3.197,-3.3949,0.0,0.0,0.0,-3.9459,-3.9444,-3.9474,-3.8152,-3.4751,-3.1701,-2.9848,-2.9563,-2.8718,-2.8129,-2.8038,-2.7008,-2.6132,-2.5659,-2.5675,-2.4204,0.0,0.0,0.0,0.0,0.0,0.0,0.0,0.0,0.0,0.0,0.0,0.0,0.0,0.0,0.0,0.0,0.0,0.0,0.0,0.0,0.0,0.0,0.0,0.0,0.0,0.0,0.0,0.0,0.0,1.3609,0.3597,0.0,0.0,0.0,0.0,0.0,0.0,0.0,0.0,0.0,0.0,0.0,0.0,0.0,-2.9987,-4.0634,-4.1736,-4.2734,-4.3719,-4.3623,-4.3026,-4.1889,-3.9454,-3.7587,-3.6012,-2.9466,0.0,0.2118,0.681,0.0,0.0,0.0,0.0,0.0,0.0,0.0,0.0,0.0,0.0,0.0,0.0,0.0,0.0,0.0,0.0,0.0,0.0,0.0,0.0,0.0,0.0,-3.7319,-3.6521,-3.6764,-3.5743,-3.0692,-2.7772,-2.5426,-2.2813,-1.8533,-1.6818,0.0,0.0,0.0,0.0,0.0,0.0,-3.9419,-3.9452,-3.9594,-3.9924,-3.4771,-3.1171,-3.0859,-2.9974,-3.093,-3.4407,-3.2144,-2.9226,-2.5796,-2.4771,0.0,0.0,0.0,0.0,0.0,0.0,0.0,0.0,0.0,0.0,0.0,0.0,0.0,0.0,0.0,0.0,0.0,0.0,0.0,0.0,0.0,0.0,0.0,0.0,0.0,0.0,0.0,0.0,0.0,0.0,0.0,0.0,0.0,0.0,0.0,0.0,0.0,0.0,0.0,0.0,0.0,0.0,0.0,0.0,0.0,0.0,0.0,0.0,0.0,0.0,-4.0029,-4.0436,-3.9597,-3.3872,-3.1022,-2.9206,-0.7368,0.5602,1.1091,0.9418,0.0,0.0,0.0,0.0,0.0,0.0,0.0,0.0,0.0,0.0,0.0,0.0,0.0,0.0,0.0,0.0,0.0,0.0,0.0,0.0,0.0,0.0,-3.7481,-3.7316,-3.618,-2.9242,-0.7792,0.0,0.0,0.0,0.0,0.0,0.0,0.0,0.0,0.0,0.0,0.0,-3.9324,-3.9452,-3.9489,-3.9575,-3.8796,-3.8138,-3.7761,-3.6609,-3.5515,-3.4658,-3.2148,-2.9225,0.0,0.0,0.0,0.0,0.0,0.0,0.0,0.0,0.0,0.0,0.0,0.0,0.0,0.0,0.0,0.0,0.0,0.0,0.0,0.0,0.0,0.0,0.0,0.0,0.0,0.0,0.0,0.0,0.0,0.0,0.0,0.0,0.0,0.0,0.0,0.0,0.0,0.0,0.0,0.0,0.0,0.0,0.0,0.0,0.0,0.0,0.0,0.0,0.0,0.0,0.0,0.0,0.0,0.0,0.0,0.0,0.0,0.0,0.6805,1.7684,0.0,0.0,0.0,0.0,0.0,0.0,0.0,0.0,0.0,0.0,0.0,0.0,0.0,0.0,0.0,0.0,0.0,0.0,0.0,0.0,0.0,0.0,0.0,0.0,0.0,0.0,0.0,0.0,0.0,0.0,0.0,0.0,0.0,0.0,0.0,0.0,0.0,0.0,0.0,0.0,-3.7927,-3.9012,-3.9467,-3.9454,-3.9812,-3.9876,-3.9513,-3.8282,-3.6105,-3.2803,-2.9734,0.0,0.0,0.0,0.0,0.0,0.0,0.0,0.0,0.0,0.0,0.0,0.0,0.0,0.0,0.0,0.0,0.0,0.0,0.0,0.0,0.0,0.0,0.0,0.0,0.0,0.0,0.0,0.0,0.0,0.0,0.0,0.0,0.0,0.0,0.0,0.0,0.0,0.0,0.0,0.0,0.0,0.0,0.0,0.0,0.0,0.0,0.0,0.0,0.0,0.0,0.0,0.0,0.0,0.0,0.0,0.0,0.0,0.0,0.0,1.7567,2.5278,0.0,0.0,0.0,0.0,0.0,0.0,0.0,0.0,0.0,0.0,0.0,0.0,0.0,0.0,0.0,0.0,0.0,0.0,0.0,0.0,0.0,0.0,0.0,0.0,0.0,0.0,0.0,0.0,0.0,0.0,0.0,0.0,0.0,0.0,0.0,0.0,0.0,0.0,0.0,0.0,-3.4432,-3.7644,-3.9463,-3.9445,-3.9802,-3.9898,-3.9495,-3.8299,-3.5577,-3.1025,-2.61,0.0,0.0,0.0,0.0,0.0,0.0,0.0,0.0,0.0,0.0,0.0,0.0,0.0,0.0,0.0,0.0,0.0,0.0,0.0,0.0,0.0,0.0,0.0,0.0,0.0,0.0,0.0,0.0,0.0,0.0,0.0,0.0,0.0,0.0,0.0,0.0,0.0,0.0,0.0,0.0,0.0,0.0,0.0,0.0,0.0,0.0,0.0,0.0,0.0,0.0,0.0,0.0,0.0,0.0,0.0,0.0,0.0,0.0,0.0,0.0,0.0,0.0,0.0,0.0,0.0,0.0,0.0,0.0,0.0,0.0,0.0,0.0,0.0,0.0,0.0,0.0,0.0,0.0,0.0,0.0,0.0,0.0,0.0,0.0,0.0,0.0,0.0,0.0,0.0,0.0,0.0,0.0,0.0,0.0,0.0,0.0,0.0,0.0,0.0,0.0,0.0,-2.704,-3.4335,-3.9457,-3.9474,-3.9802,-3.9898,-3.9495,-3.8255,-3.5569,-3.1007,0.0,0.0,0.0,0.0,0.0,0.0,0.0,0.0,0.0,0.0,0.0,0.0,0.0,0.0,0.0,0.0,0.0,0.0,0.0,0.0,0.0,0.0,0.0,0.0,0.0,0.0,0.0,0.0,0.0,0.0,0.0,0.0,0.0,0.0,0.0,0.0,0.0,0.0,0.0,0.0,0.0,0.0,0.0,0.0,0.0,0.0,0.0,0.0,0.0,0.0,0.0,0.0,0.0,0.0,0.0,0.0,0.0,0.0,0.0,0.0,0.0,0.0,0.0,0.0,0.0,0.0,0.0,0.0,0.0,0.0,0.0,0.0,0.0,0.0,0.0,0.0,0.0,0.0,0.0,0.0,0.0,0.0,0.0,0.0,0.0,0.0,0.0,0.0,0.0,0.0,0.0,0.0,0.0,0.0,0.0,0.0,0.0,0.0,0.0,0.0,0.0,0.0,-3.2342,-3.6093,-3.8585,-3.9399,-3.9802,-3.9898,-3.9495,-3.8291,-3.5574,-3.102,0.0,0.0,0.0,0.0,0.0,0.0,0.0,0.0,0.0,0.0,0.0,0.0,0.0,0.0,0.0,0.0,0.0,0.0,0.0,0.0,0.0,0.0,0.0,0.0,0.0,0.0,0.0,0.0,0.0,0.0,0.0,0.0,0.0,0.0,0.0,0.0,0.0,0.0,0.0,0.0,0.0,0.0,0.0,0.0,0.0,0.0,0.0,0.0,0.0,0.0,0.0,0.0,0.0,0.0,0.0,0.0,0.0,0.0,0.0,0.0,0.0,0.0,0.0,0.0,0.0,0.0,0.0,0.0,0.0,0.0,0.0,0.0,0.0,0.0,0.0,0.0,0.0,0.0,0.0,0.0,0.0,0.0,0.0,0.0,0.0,0.0,0.0,0.0,0.0,0.0,0.0,0.0,0.0,0.0,0.0,0.0,0.0,0.0,0.0,0.0,0.0,0.0,-3.5218,-3.7271,-3.8474,-3.9361,-3.9802,-3.9898,-3.9495,-3.828,-3.5587,-3.1038,0.0,0.0,0.0,0.0,0.0,0.0,0.0,0.0,0.0,0.0,0.0,0.0,0.0,0.0,0.0,0.0,0.0,0.0,0.0,0.0,0.0,0.0,0.0,0.0,0.0,0.0,0.0,0.0,0.0,0.0,0.0,0.0,0.0,0.0,0.0,0.0,0.0,0.0,0.0,0.0,0.0,0.0,0.0,0.0,0.0,0.0,0.0,0.0,0.0,0.0,0.0,0.0,0.0,0.0,0.0,0.0,0.0,0.0,0.0,0.0,0.0,0.0,0.0,0.0,0.0,0.0,0.0,0.0,0.0,0.0,0.0,0.0,0.0,0.0,0.0,0.0,0.0,0.0,0.0,0.0,0.0,0.0,0.0,0.0,0.0,0.0,0.0,0.0,0.0,0.0,0.0,0.0,0.0,0.0,0.0,0.0,0.0,0.0,0.0,0.0,0.0,0.0,-3.2117,-3.6641,-3.9439,-3.9474,-3.9802,-3.9898,-3.9495,-3.828,-3.5558,0.0,0.0,0.0,0.0,0.0,0.0,0.0,0.0,0.0,0.0,0.0,0.0,0.0,0.0,0.0,0.0,0.0,0.0,0.0,0.0,0.0,0.0,0.0,0.0,0.0,0.0,0.0,0.0,0.0,0.0,0.0,0.0,0.0,0.0,0.0,0.0,0.0,0.0,0.0,0.0,0.0,0.0,0.0,0.0,0.0,0.0,0.0,0.0,0.0,0.0,0.0,0.0,0.0,0.0,0.0,0.0,0.0,0.0,0.0,0.0,0.0,0.0,0.0,0.0,0.0,0.0,0.0,0.0,0.0,0.0,0.0,0.0,0.0,0.0,0.0,0.0,0.0,0.0,0.0,0.0,0.0,0.0,0.0,0.0,0.0,0.0,0.0,0.0,0.0,0.0,0.0,0.0,0.0,0.0,0.0,0.0,0.0,0.0,0.0,0.0,0.0,0.0,0.0,-3.701,-3.8578,-3.9467,-3.9445,-3.9802,-3.9898,-3.9495,-3.828,-3.4582,-2.7668,0.0,0.0,0.0,0.0,0.0,0.0,0.0,0.0,0.0,0.0,0.0,0.0,0.0,0.0,0.0,0.0,0.0,0.0,0.0,0.0,0.0,0.0,0.0,0.0,0.0,0.0,0.0,0.0,0.0,0.0,0.0,0.0,0.0,0.0,0.0,0.0,0.0,0.0,0.0,0.0,0.0,0.0,0.0,0.0,0.0,0.0,0.0,0.0,0.0,0.0,0.0,0.0,0.0,0.0,0.0,0.0,0.0,0.0,0.0,0.0,0.0,0.0,0.0,0.0,0.0,0.0,0.0,0.0,0.0,0.0,0.0,0.0,0.0,0.0,0.0,0.0,0.0,0.0,0.0,0.0,0.0,0.0,0.0,0.0,0.0,0.0,0.0,0.0,0.0,0.0,0.0,0.0,0.0,0.0,0.0,0.0,0.0,0.0,0.0,0.0,0.0,0.0,0.0,-3.9471,-3.945,-3.9466,-3.9799,-3.9898,-3.9495,-3.8299,-3.413,-2.6189,0.0,0.0,0.0,0.0,0.0,0.0,0.0,0.0,0.0,0.0,0.0,0.0,0.0,0.0,0.0,0.0,0.0,0.0,0.0,0.0,0.0,0.0,0.0,0.0,0.0,0.0,0.0,0.0,0.0,0.0,0.0,0.0,0.0,0.0,0.0,0.0,0.0,0.0,0.0,0.0,0.0,0.0,0.0,0.0,0.0,0.0,0.0,0.0,0.0,0.0,0.0,0.0,0.0,0.0,0.0,0.0,0.0,0.0,0.0,0.0,0.0,0.0,0.0,0.0,0.0,0.0,0.0,0.0,0.0,0.0,0.0,0.0,0.0,0.0,0.0,0.0,0.0,0.0,0.0,0.0,0.0,0.0,0.0,0.0,0.0,0.0,0.0,0.0,0.0,0.0,0.0,0.0,0.0,0.0,0.0,0.0,0.0,0.0,0.0,0.0,0.0,0.0,0.0,-3.9812,-3.9977,-3.9514,-3.9795,-3.9898,-3.9495,-3.826,-3.4092,-2.6171,-1.3952,0.0,0.0,0.0,0.0,0.0,0.0,0.0,0.0,0.0,0.0,0.0,0.0,0.0,0.0,0.0,0.0,0.0,0.0,0.0,0.0,0.0,0.0,0.0,0.0,0.0,0.0,0.0,0.0,0.0,0.0,0.0,0.0,0.0,0.0,0.0,0.0,0.0,0.0,0.0,0.0,0.0,0.0,0.0,0.0,0.0,0.0,0.0,0.0,0.0,0.0,0.0,0.0,0.0,0.0,0.0,0.0,0.0,0.0,0.0,0.0,0.0,0.0,0.0,0.0,0.0,0.0,0.0,0.0,0.0,0.0,0.0,0.0,0.0,0.0,0.0,0.0,0.0,0.0,0.0,0.0,0.0,0.0,0.0,0.0,0.0,0.0,0.0,0.0,0.0,0.0,0.0,0.0,0.0,0.0,0.0,0.0,0.0,0.0,0.0,0.0,0.0,0.0,-4.3208,-4.4992,-3.9976,-3.9795,-3.9898,-3.9495,-3.826,-3.4092,-2.6171,-1.3913,0.0,0.0,0.0,0.0,0.0,0.0,0.0,0.0,0.0,0.0,0.0,0.0,0.0,0.0,0.0,0.0,0.0,0.0,0.0,0.0,0.0,0.0,0.0,0.0,0.0,0.0,0.0,0.0,0.0,0.0,0.0,0.0,0.0,0.0,0.0,0.0,0.0,0.0,0.0,0.0,0.0,0.0,0.0,0.0,0.0,0.0,0.0,0.0,0.0,0.0,0.0,0.0,0.0,0.0,0.0,0.0,0.0,0.0,0.0,0.0,0.0,0.0,0.0,0.0,0.0,0.0,0.0,0.0,0.0,0.0,0.0,0.0,0.0,0.0,0.0,0.0,0.0,0.0,0.0,0.0,0.0,0.0,0.0,0.0,0.0,0.0,0.0,0.0,0.0,0.0,0.0,0.0,0.0,0.0,0.0,0.0,0.0,0.0,0.0,0.0,0.0,0.0,-3.9779,-4.2695,-3.9785,-3.9643,-3.9708,-3.9495,-3.826,-3.5643,-3.1352,-2.1298,0.0,0.0,0.0,0.0,0.0,0.0,0.0,0.0,0.0,0.0,0.0,0.0,0.0,0.0,0.0,0.0,0.0,0.0,0.0,0.0,0.0,0.0,0.0,0.0,0.0,0.0,0.0,0.0,0.0,0.0,0.0,0.0,0.0,0.0,0.0,0.0,0.0,0.0,0.0,0.0,0.0,0.0,0.0,0.0,0.0,0.0,0.0,0.0,0.0,0.0,0.0,0.0,0.0,0.0,0.0,0.0,0.0,0.0,0.0,0.0,0.0,0.0,0.0,0.0,0.0,0.0,0.0,0.0,0.0,0.0,0.0,0.0,0.0,0.0,0.0,0.0,0.0,0.0,0.0,0.0,0.0,0.0,0.0,0.0,0.0,0.0,0.0,0.0,0.0,0.0,0.0,0.0,0.0,0.0,0.0,0.0,0.0,0.0,0.0,0.0,0.0,0.0,0.0,-3.8231,-3.9334,-3.9492,-3.9515,-3.9504,-3.8371,-3.7306,-3.6459,0.0,0.0,0.0,0.0,0.0,0.0,0.0,0.0,0.0,0.0,0.0,0.0,0.0,0.0,0.0,0.0,0.0,0.0,0.0,0.0,0.0,0.0,0.0,0.0,0.0,0.0,0.0,0.0,0.0,0.0,0.0,0.0,0.0,0.0,0.0,0.0,0.0,0.0,0.0,0.0,0.0,0.0,0.0,0.0,0.0,0.0,0.0,0.0,0.0,0.0,0.0,0.0,0.0,0.0,0.0,0.0,0.0,0.0,0.0,0.0,0.0,0.0,0.0,0.0,0.0,0.0,0.0,0.0,0.0,0.0,0.0,0.0,0.0,0.0,0.0,0.0,0.0,0.0,0.0,0.0,0.0,0.0,0.0,0.0,0.0,0.0,0.0,0.0,0.0,0.0,0.0,0.0,0.0,0.0,0.0,0.0,0.0,0.0,0.0,0.0,0.0,0.0,0.0,0.0,-3.9249,-3.9438,-3.9574,-3.9615,-3.9633,-3.884,-3.6297,-3.1573,0.0,0.0,0.0,0.0,0.0,0.0,0.0,0.0,0.0,0.0,0.0,0.0,0.0,0.0]}],[{"header":{"parameterUnit":"kt","parameterCategory":2,"dx":1,"dy":1,"la1":29.285339999999998,"la2":30.599998999999997,"lo1":-89.70041500000002,"lo2":-87.6738589999976,"nx":112,"ny":82,"refTime":"2022-09-25T12:00:00:Z","depth":0,"parameterNumber":2,"parameterNumberName":"V-component_of_WINDS"},"data":[3.4882,3.5149,3.4726,3.1835,3.179,3.2097,3.0566,3.1758,3.3447,3.4301,3.4026,3.3452,3.3031,3.1198,2.9367,2.8552,2.9124,3.0127,0.0,3.2052,3.2052,3.1046,3.3218,3.4909,3.5191,3.566,3.7549,4.1618,4.1903,4.305,4.5693,4.5864,4.5864,4.5864,4.5864,4.5864,4.5864,4.5108,4.4701,4.4701,4.3887,4.3509,4.3509,4.3509,4.3509,4.3509,4.3509,4.3509,4.3509,4.3509,4.3509,4.3509,4.3509,4.3509,4.3276,4.156,4.0949,4.0804,3.9961,3.9641,3.9641,3.9641,4.0251,4.0949,4.0949,4.1531,4.2171,4.2171,4.2171,4.2171,4.2171,4.156,4.0949,4.0949,4.028,3.9785,4.0085,4.0796,4.1645,4.268,4.419,4.5305,4.4955,4.5636,4.5571,4.3664,4.3795,4.4124,4.4124,4.4551,4.488,4.488,4.5536,4.5989,4.5989,4.6583,4.7317,4.8088,4.7531,4.7685,4.8738,4.8461,4.8428,4.8738,4.8704,4.8704,4.8704,4.9032,4.9013,4.8812,4.9042,4.9122,3.301,3.4198,3.4859,3.1714,3.1705,3.2097,3.0514,3.1115,3.2316,3.3214,3.3192,3.3006,3.2547,3.1299,3.0041,2.9256,2.978,3.03,0.0,3.2218,3.3062,3.1635,3.4129,3.6418,3.7694,3.738,3.8681,4.2267,4.2181,4.3078,4.5693,4.5486,4.5283,4.5283,4.4847,4.4614,4.4614,4.3829,4.3421,4.3421,4.2578,4.2171,4.2171,4.2171,4.2171,4.2171,4.2171,4.2171,4.2171,4.2171,4.2171,4.2171,4.2171,4.2171,4.1967,4.0222,3.9582,3.9466,3.8565,3.8274,3.8274,3.8274,3.8855,3.9582,3.9582,4.0164,4.0862,4.0862,4.0862,4.0862,4.0862,4.0222,3.9582,3.9582,3.8914,3.8274,3.8274,3.8944,3.9619,4.0203,4.1988,4.331,4.2933,4.3956,4.4476,4.3758,4.3645,4.3698,4.3927,4.3927,4.3927,4.3927,4.4626,4.5201,4.5426,4.5601,4.6097,4.6881,4.6369,4.6292,4.6909,4.6633,4.6431,4.6431,4.6431,4.6431,4.6431,4.6995,4.7087,4.6912,4.6393,4.6162,3.22,3.358,3.4914,3.2953,3.2942,3.333,3.323,3.2621,3.2424,3.333,3.2786,3.2374,3.3411,3.1778,3.034,3.0386,3.0409,0.0,0.0,3.2291,3.3754,3.3835,3.5817,3.7802,3.9132,3.7991,3.878,4.2435,4.1449,4.2115,4.5606,4.4672,4.4084,4.4084,4.2811,4.2171,4.2171,4.2142,4.2113,4.2113,4.2055,4.2055,4.2055,4.2055,4.2055,4.2055,4.2055,4.2055,4.2055,4.2055,4.2055,4.2055,4.2055,4.2055,4.1735,3.9204,3.8274,3.8274,3.8274,3.8274,3.8274,3.8274,3.8274,3.8274,3.8274,3.8274,3.8274,3.8274,3.8274,3.8274,3.8274,3.8274,3.8274,3.8274,3.8274,3.8274,3.8274,3.8876,3.9421,3.9488,4.0803,4.1952,4.1952,4.2714,4.3518,4.3998,4.4115,4.4314,4.4937,4.5029,4.5029,4.5029,4.5029,4.5336,4.5971,4.547,4.4843,4.4165,4.4701,4.4529,4.3422,4.386,4.4115,4.4115,4.4115,4.4115,4.4115,4.5613,4.601,4.5373,4.3992,4.3368,3.0229,3.2953,3.5002,3.3409,3.4401,3.5167,3.2896,3.2831,3.3031,3.2564,3.1644,0.0,0.0,0.0,3.0675,3.1444,0.0,3.2563,3.1684,3.352,3.5794,3.8372,3.932,4.0447,4.2531,4.087,4.1113,4.4724,4.2257,4.1827,4.4468,4.3392,4.2694,4.2694,4.2374,4.2171,4.2171,4.124,4.0775,4.0775,3.9815,3.935,3.935,3.935,3.935,3.935,3.935,3.935,3.935,3.935,3.935,3.935,3.935,3.935,3.9233,3.8535,3.8274,3.8274,3.8274,3.8274,3.8274,3.8274,3.8274,3.8274,3.8274,3.8274,3.8274,3.8274,3.8274,3.8274,3.8274,3.8274,3.8274,3.8274,3.8274,3.8274,3.8274,3.8454,3.874,3.9355,4.0394,4.1295,4.1893,4.2217,4.2649,4.3432,4.3539,4.3645,4.377,4.3856,4.3856,4.3856,4.4183,4.4427,4.4654,4.4937,4.4843,4.4165,4.3911,4.3875,4.3878,4.3718,4.3737,4.4115,4.3737,4.3539,4.3539,4.3969,4.4092,4.3927,4.3532,4.3368,2.8711,3.2328,3.5301,3.4149,3.5297,3.6309,3.4458,3.3791,3.3411,3.2868,0.0,0.0,0.0,0.0,0.0,0.0,3.4378,3.4972,3.4283,3.5763,3.7676,3.9712,4.1205,4.2434,4.3352,4.218,4.2152,4.4184,4.1884,4.126,4.3218,4.2055,4.1357,4.1357,4.0833,4.0542,4.0542,3.9786,3.9437,3.9437,3.8652,3.8274,3.8274,3.8274,3.8274,3.8274,3.8274,3.8274,3.8274,3.8274,3.8274,3.8274,3.8274,3.8274,3.8274,3.8274,3.8274,3.8274,3.8274,3.8274,3.8274,3.8274,3.8274,3.8274,3.8274,3.8274,3.8274,3.8274,3.8274,3.8274,3.8274,3.8274,3.8274,3.8274,3.8274,3.8274,3.8274,3.8274,3.8454,3.8876,3.9619,4.0521,4.1356,4.1775,4.2389,4.3473,4.3665,4.377,4.4047,4.4098,4.4098,4.4098,4.4382,4.4558,4.4558,4.489,4.4937,4.4558,4.4014,4.3808,4.4115,4.3612,4.3465,4.3789,4.3518,4.3368,4.3368,4.3368,4.3368,4.3368,4.3368,4.3368,2.784,3.1763,3.5412,3.5115,3.5913,3.6752,3.692,0.0,3.4204,3.4253,0.0,3.3036,3.4011,0.0,0.0,3.5415,3.6671,3.7451,3.7397,3.8507,3.9463,3.9463,4.2124,4.3561,4.263,4.2308,4.2171,4.2171,4.0978,4.0775,4.188,4.0746,4.0048,4.0048,3.8884,3.8274,3.8274,3.8274,3.8274,3.8274,3.8274,3.8274,3.8274,3.8274,3.8274,3.8274,3.8274,3.8274,3.8274,3.8274,3.8274,3.8274,3.8274,3.8274,3.8274,3.8274,3.8274,3.8274,3.8274,3.8274,3.8274,3.8274,3.8274,3.8274,3.8274,3.8274,3.8274,3.8274,3.8274,3.8274,3.8274,3.8274,3.8274,3.8274,3.8274,3.8274,3.8274,3.8274,3.8274,3.8274,3.8915,3.975,4.0552,4.1356,4.2325,4.3708,4.3964,4.4249,4.483,4.4924,4.4924,4.4924,4.4924,4.489,4.4983,4.4971,4.4971,4.5075,4.451,4.4115,4.4115,4.377,4.3465,4.3444,4.3368,4.3368,4.3368,4.3368,4.3368,4.3368,4.3368,4.3368,2.8862,3.1835,3.4147,3.5964,3.6529,3.7004,0.0,0.0,0.0,3.7989,3.7179,3.6805,3.7823,3.7316,3.7155,3.8181,3.9231,3.9689,3.8802,4.0388,4.1568,4.1568,4.2186,4.2467,4.2314,4.2239,4.2171,4.2171,4.0978,4.0397,4.0629,3.9379,3.8652,3.8652,3.839,3.8274,3.8274,3.8274,3.8274,3.8274,3.8274,3.8274,3.8274,3.8274,3.8274,3.8274,3.8274,3.8274,3.8274,3.8274,3.8274,3.8274,3.8274,3.8274,3.8274,3.8274,3.8274,3.8274,3.8274,3.8274,3.8274,3.8274,3.8274,3.8274,3.8274,3.8274,3.8274,3.8274,3.8274,3.8274,3.8274,3.8274,3.8274,3.8274,3.8274,3.8274,3.8274,3.8274,3.8274,3.8274,3.8915,3.9554,3.9685,4.0458,4.1324,4.2267,4.3039,4.3572,4.3679,4.3645,4.3645,4.3645,4.3645,4.3841,4.4265,4.3945,4.4098,4.5029,4.451,4.4115,4.4115,4.4544,4.4495,4.3998,4.3539,4.3368,4.3368,4.3368,4.3368,4.3368,4.3368,4.3368,2.8552,3.1186,3.3199,3.5401,3.6327,0.0,0.0,3.8079,3.7892,3.8453,3.7755,3.738,3.8376,3.8136,3.7967,3.8565,3.9664,4.0609,4.1082,4.2102,4.2647,4.2248,4.2171,4.2171,4.2171,4.1589,4.1211,4.1211,4.0019,3.9263,3.9263,3.8623,3.8274,3.8274,3.8274,3.8274,3.8274,3.8274,3.8274,3.8274,3.8274,3.8274,3.8274,3.8274,3.8274,3.8274,3.8274,3.8274,3.8274,3.8274,3.8274,3.8274,3.8274,3.8274,3.8274,3.8274,3.8274,3.8274,3.8274,3.8274,3.8274,3.8274,3.8274,3.8274,3.8274,3.8274,3.8274,3.8274,3.8274,3.8274,3.8274,3.8274,3.8274,3.8274,3.8274,3.8274,3.8274,3.8274,3.8274,3.8274,3.8632,3.8982,3.9421,4.0203,4.1082,4.1834,4.277,4.3368,4.3368,4.3368,4.3368,4.3368,4.3368,4.3411,4.3685,4.3518,4.3572,4.42,4.3893,4.3737,4.3737,4.4047,4.4098,4.3737,4.3465,4.3368,4.3368,4.3368,4.3368,4.3368,4.3368,4.3368,2.8077,3.0489,3.2601,3.4647,3.5804,0.0,3.8535,3.8252,3.7994,3.9121,3.8739,3.8353,3.922,3.9389,3.9418,3.9536,4.0409,4.1482,4.268,4.2741,4.2337,4.1733,4.1566,4.1415,4.1415,4.0484,3.9873,3.9873,3.8855,3.8274,3.8274,3.8274,3.8274,3.8274,3.8274,3.8274,3.8274,3.8274,3.8274,3.8274,3.8274,3.8274,3.8274,3.8274,3.8274,3.8274,3.8274,3.8274,3.8274,3.8274,3.8274,3.8274,3.8274,3.8274,3.8274,3.8274,3.8274,3.8274,3.8274,3.8274,3.8274,3.8274,3.8274,3.8274,3.8274,3.8274,3.8274,3.8274,3.8274,3.8274,3.8274,3.8274,3.8274,3.8274,3.8274,3.8274,3.8274,3.8274,3.8274,3.8274,3.8274,3.8523,3.9117,3.9976,4.0865,4.1656,4.2511,4.317,4.3313,4.3368,4.3368,4.3368,4.3368,4.3389,4.3465,4.3389,4.3444,4.3679,4.3572,4.3518,4.3518,4.3518,4.3411,4.3368,4.3368,4.3368,4.3368,4.3368,4.3368,4.3368,4.3368,4.3368,2.862,3.0462,3.2579,3.4678,3.5271,0.0,4.0168,4.0957,4.1496,4.3538,4.3852,4.3852,4.3922,4.3953,4.3953,4.3953,4.4107,4.3469,4.142,4.0403,3.9872,3.9738,3.9143,3.871,3.871,3.8565,3.8477,3.8477,3.8361,3.8274,3.8274,3.8274,3.8274,3.8274,3.8274,3.8274,3.8274,3.8274,3.8274,3.8274,3.8274,3.8274,3.8274,3.8274,3.8274,3.8274,3.8274,3.8274,3.8274,3.8274,3.8274,3.8274,3.8274,3.8274,3.8274,3.8274,3.8274,3.8274,3.8274,3.8274,3.8274,3.8274,3.8274,3.8274,3.8274,3.8274,3.8274,3.8274,3.8274,3.8274,3.8274,3.8274,3.8274,3.8274,3.8274,3.8274,3.8274,3.8274,3.8274,3.8274,3.8274,3.8315,3.8384,3.908,3.9881,4.0803,4.1628,4.2421,4.3258,4.3368,4.3368,4.3368,4.3368,4.3572,4.3998,4.3645,4.3804,4.483,4.4363,4.4048,4.4048,4.4048,4.3808,4.3368,4.3368,4.3368,4.3368,4.3368,4.3368,4.3368,4.3368,4.3368,2.9238,3.0969,3.2674,3.5387,0.0,0.0,3.9743,4.0702,4.1476,4.2869,4.3089,4.3089,4.3089,4.3089,4.2994,4.2479,4.3278,4.333,4.1727,4.0772,4.0075,3.9554,3.874,3.8274,3.8274,3.8274,3.8274,3.8274,3.8274,3.8274,3.8274,3.8274,3.8274,3.8274,3.8274,3.8034,3.7407,3.7407,3.7089,3.6476,3.6476,3.6798,3.7407,3.7407,3.7721,3.8274,3.8274,3.8274,3.8274,3.8274,3.8274,3.8274,3.8274,3.8274,3.8274,3.8274,3.8274,3.8274,3.8274,3.8274,3.8175,3.7579,3.7407,3.7407,3.7407,3.7407,3.7478,3.8104,3.8274,3.8274,3.8274,3.8274,3.8274,3.8274,3.8274,3.8274,3.8274,3.8274,3.8274,3.8274,3.8274,3.8274,3.8274,3.8944,3.9619,3.9946,4.1142,4.21,4.2511,4.3027,4.3368,4.3368,4.3368,4.3444,4.3665,4.3465,4.3551,4.4047,4.3789,4.3665,4.3665,4.3665,4.3539,4.3368,4.3368,4.3368,4.3368,4.3368,4.3368,4.3368,4.3368,4.3368,3.0644,0.0,0.0,0.0,0.0,0.0,4.0144,4.0803,4.1416,4.2349,4.2503,4.2364,4.2364,4.2364,4.2191,4.1628,4.2543,4.3115,4.2421,4.1688,4.0865,3.9946,3.9117,3.8523,3.8315,3.8274,3.8274,3.8274,3.8274,3.8274,3.8274,3.8274,3.8274,3.8274,3.8274,3.7793,3.6724,3.6724,3.6179,3.5195,3.5195,3.5728,3.6724,3.6724,3.7335,3.8274,3.8274,3.7963,3.7407,3.7407,3.7407,3.7478,3.7721,3.7863,3.7863,3.8175,3.8274,3.8274,3.7963,3.7863,3.7721,3.7017,3.6577,3.6402,3.7017,3.6944,3.6871,3.765,3.7863,3.7863,3.7863,3.8104,3.8274,3.8274,3.8274,3.8274,3.8274,3.8274,3.8274,3.8274,3.8274,3.8274,3.8274,3.874,3.9252,3.9421,4.049,4.1445,4.1952,4.2568,4.3059,4.3313,4.3368,4.3368,4.3368,4.3368,4.3368,4.3368,4.3368,4.3368,4.3368,4.3465,4.3518,4.3368,4.3465,4.3465,4.3368,4.3368,4.3368,4.3368,4.3368,4.3368,0.0,0.0,0.0,3.7831,3.8669,3.9894,4.2301,4.2406,4.2382,4.3811,4.3632,4.3313,4.3313,4.3313,4.3313,4.3258,4.3313,4.3313,4.3313,4.2511,4.1656,4.0865,3.9946,3.9117,3.8384,3.8274,3.8274,3.8274,3.8274,3.8274,3.8274,3.8274,3.8274,3.8274,3.8274,3.7793,3.6724,3.6724,3.6179,3.5195,3.5195,3.5728,3.6724,3.6724,3.7335,3.8274,3.8274,3.719,3.5271,3.5271,3.5271,3.5424,3.6402,3.6798,3.6944,3.7963,3.8274,3.8175,3.7118,3.6798,3.6798,3.6724,3.6029,3.5652,3.765,3.7579,3.6724,3.6798,3.6798,3.6798,3.6798,3.7579,3.8274,3.8274,3.8274,3.8274,3.8274,3.8274,3.8274,3.8274,3.8274,3.8274,3.8274,3.8344,3.8563,3.9355,3.9488,4.0108,4.1775,4.201,4.2364,4.3225,4.3368,4.3368,4.3368,4.3368,4.3368,4.3368,4.3368,4.3368,4.3368,4.386,4.386,4.3368,4.386,4.386,4.3368,4.3368,4.3368,4.3368,4.3368,4.3368,3.5145,3.7184,3.9231,4.0305,4.1451,4.2581,4.3423,4.383,4.4148,4.4701,4.4299,4.386,4.386,4.386,4.3737,4.3389,4.3368,4.3368,4.3368,4.2568,4.1893,4.1596,4.0331,3.9355,3.9117,3.8632,3.8274,3.8274,3.8274,3.8274,3.8274,3.8274,3.7963,3.7262,3.7262,3.6402,3.4731,3.4653,3.4183,3.3112,3.3112,3.3652,3.4653,3.4653,3.5271,3.6253,3.6253,3.5804,3.5195,3.5195,3.5195,3.5271,3.5577,3.6104,3.6724,3.6327,3.6651,3.7118,3.6029,3.5728,3.5577,3.4886,3.4419,3.4261,3.4964,3.4964,3.4809,3.5501,3.5728,3.5728,3.5728,3.5954,3.6402,3.7089,3.7793,3.8274,3.8274,3.8274,3.8274,3.8274,3.8274,3.8274,3.8274,3.8274,3.8384,3.8632,3.9117,3.9685,4.0236,4.1264,4.21,4.2421,4.2971,4.3368,4.3368,4.3368,4.3368,4.3368,4.3368,4.3368,4.3368,4.3518,4.3518,4.3368,4.3518,4.3518,4.3368,4.3368,4.3368,4.3368,4.3368,4.3368,3.8087,4.009,4.198,4.2745,4.3776,4.4582,4.4845,4.4983,4.5166,4.5381,4.4937,4.4412,4.4165,4.4314,4.4299,4.3718,4.3612,4.3539,4.3335,4.2826,4.2364,4.201,4.1019,4.0108,3.9554,3.9012,3.8563,3.8315,3.8274,3.8274,3.8274,3.7963,3.7407,3.6724,3.6327,3.5577,3.4183,3.3812,3.3112,3.2115,3.2115,3.2646,3.3652,3.3652,3.4183,3.5118,3.4419,3.4104,3.4104,3.4104,3.4104,3.4104,3.4497,3.5041,3.5577,3.5348,3.5652,3.6029,3.4964,3.4653,3.4497,3.3891,3.333,3.3193,3.3945,3.3945,3.3812,3.4419,3.4653,3.4653,3.4653,3.4653,3.4964,3.6402,3.7262,3.7721,3.7721,3.8034,3.8128,3.7663,3.7576,3.7362,3.6596,3.6441,3.6372,3.6096,3.6491,3.7037,3.7562,3.8608,3.9486,4.0132,4.0904,4.1405,4.1405,4.1598,4.1789,4.1789,4.1789,4.1789,4.1789,4.2461,4.2778,4.2579,4.3274,4.3062,4.2017,4.1809,4.1789,4.1789,4.1789,4.1789,4.172,4.3555,4.4733,4.5107,4.5515,4.5992,4.6556,4.5926,4.5391,4.6013,4.5601,4.4937,4.4363,4.4749,4.4937,4.4265,4.4115,4.3929,4.3444,4.3368,4.3027,4.2159,4.201,4.1324,3.9685,3.9488,3.9117,3.8315,3.8274,3.8274,3.8274,3.7335,3.6724,3.6651,3.5652,3.5041,3.5041,3.4024,3.3031,3.2115,3.2115,3.2564,3.3572,3.3572,3.4104,3.4886,3.2949,3.2115,3.2115,3.2115,3.2115,3.2174,3.3193,3.3572,3.3732,3.4653,3.5041,3.4964,3.3866,3.3572,3.3572,3.3572,3.2868,3.2424,3.4419,3.434,3.3572,3.3572,3.3572,3.3572,3.3572,3.3572,3.4024,3.6104,3.6577,3.6577,3.6724,3.7393,3.7623,3.6337,3.6105,3.5501,3.3546,3.3218,3.2925,3.2226,3.209,3.2603,3.411,3.436,3.5033,3.6635,3.7465,3.7836,3.7888,3.8466,3.8831,3.888,3.888,3.888,3.888,4.082,4.1604,4.1169,4.2942,4.2484,3.9623,3.9139,3.8929,3.8929,3.8929,3.8929,4.2947,4.5368,4.6705,4.6799,4.7217,4.7531,4.74,4.7167,4.6917,4.6837,4.6295,4.5766,4.5601,4.5723,4.547,4.4314,4.4115,4.3929,4.3444,4.3368,4.3258,4.3027,4.2364,4.1596,4.0552,3.9881,3.9117,3.8315,3.8274,3.8274,3.8274,3.7335,3.6402,3.5652,3.4575,3.3652,3.2868,3.2564,3.2341,3.2115,3.2115,3.2174,3.2482,3.2482,3.2646,3.2811,3.2341,3.2115,3.2115,3.2115,3.2115,3.2115,3.2341,3.2949,3.3572,3.3031,3.333,3.3866,3.2811,3.2482,3.2482,3.2482,3.2258,3.2174,3.2729,3.2646,3.2482,3.2482,3.2482,3.2482,3.2482,3.2482,3.2811,3.4104,3.4419,3.4886,3.6402,3.5128,3.3557,3.3224,3.3196,3.3153,3.3274,3.2725,3.2524,3.2859,3.2456,3.2226,3.2642,3.3696,3.4545,3.5033,3.6322,3.738,3.7836,3.8076,3.8364,3.8847,3.888,3.888,3.888,3.9405,3.9765,4.0038,4.0528,4.0219,3.9091,3.9296,3.9437,3.9437,3.9437,3.9681,4.4345,4.6677,4.8157,4.8269,4.8402,4.8388,4.8124,4.7977,4.7739,4.7381,4.6989,4.6768,4.6768,4.6612,4.6054,4.4749,4.4558,4.4249,4.3444,4.3368,4.3368,4.3368,4.2915,4.2133,4.0958,4.0362,3.9584,3.8384,3.8274,3.8274,3.8274,3.7335,3.6476,3.5879,3.4419,3.333,3.2729,3.2341,3.2115,3.2115,3.2115,3.2115,3.2115,3.2115,3.2115,3.2115,3.2115,3.2115,3.2115,3.2115,3.2115,3.2115,3.2115,3.2424,3.2868,3.2258,3.2424,3.2868,3.2258,3.2115,3.2115,3.2115,3.2115,3.2115,3.2115,3.2115,3.2115,3.2115,3.1774,3.1408,3.1408,3.1042,3.0993,3.2036,3.2241,3.2545,3.3711,3.2618,3.1609,3.2456,3.2413,3.1949,3.1165,3.0669,3.0279,2.995,2.955,2.9416,2.9817,3.0652,3.1419,3.2091,3.3276,3.4479,3.5502,3.5858,3.6336,3.6928,3.6975,3.6975,3.6975,3.7566,3.8085,3.8378,3.7746,3.7401,3.7311,3.7401,3.7446,3.7446,3.7446,3.7591,4.584,4.762,4.9076,4.934,4.9176,4.8866,4.8678,4.8448,4.8169,4.777,4.7711,4.7711,4.7647,4.7312,4.6605,4.5336,4.5075,4.4688,4.3465,4.3368,4.3368,4.3368,4.3225,4.2543,4.0958,4.0678,3.9976,3.8384,3.8274,3.8274,3.8274,3.7335,3.6724,3.6724,3.4731,3.3652,3.3652,3.2564,3.2115,3.2115,3.2115,3.2115,3.2091,3.1798,3.1676,3.1676,3.1676,3.1676,3.1676,3.1676,3.1676,3.1676,3.1676,3.1676,3.1676,3.1676,3.1676,3.1676,3.1676,3.1676,3.1676,3.1676,3.1676,3.1676,3.1676,3.1676,3.1676,3.1676,3.1017,3.0285,3.0285,2.9602,2.9194,3.01,3.0087,2.9856,2.9856,2.9856,3.0324,3.1895,3.1841,3.0801,2.8287,2.7879,2.7377,2.603,2.5722,2.5964,2.67,2.6957,2.7566,2.8916,2.9743,3.0778,3.222,3.3017,3.376,3.4413,3.4578,3.4622,3.4622,3.5773,3.643,3.643,3.5291,3.489,3.5272,3.489,3.4676,3.4676,3.4762,3.4847,4.6752,4.8307,4.9118,4.9573,4.9642,4.9442,4.8883,4.8696,4.8566,4.8169,4.8101,4.8014,4.7679,4.7312,4.6605,4.5336,4.5075,4.4688,4.3465,4.3368,4.3368,4.3368,4.2714,4.1866,4.0927,4.0139,3.9318,3.8413,3.8274,3.8274,3.8274,3.7335,3.6724,3.6724,3.4731,3.3652,3.3652,3.2564,3.2115,3.2115,3.2115,3.2115,3.2042,3.0261,2.9556,2.9556,2.9556,2.9556,2.9556,2.9556,2.9556,2.9556,2.9556,2.9556,2.9556,2.9556,2.9556,2.9556,2.9556,2.9556,2.9556,2.9556,2.9556,2.9556,2.9556,2.9556,2.9556,2.9556,2.941,2.9263,2.9263,2.9116,2.8969,2.9194,2.7837,2.6531,2.6531,2.6531,2.6574,2.691,2.6893,2.6691,2.6187,2.6096,2.6269,2.67,2.6162,2.5722,2.5831,2.653,2.7149,2.7377,2.8709,2.9828,3.0639,3.2005,3.3097,3.376,3.4325,3.4622,3.4622,3.4852,3.4983,3.4983,3.5116,3.5066,3.4719,3.51,3.5231,3.5231,3.5671,3.6127,4.6814,4.8394,4.9536,4.9801,4.9763,4.9573,4.9176,4.9033,4.8941,4.8842,4.8505,4.8158,4.7948,4.745,4.6757,4.5766,4.5302,4.4783,4.386,4.3518,4.3368,4.3368,4.2568,4.1656,4.0865,3.943,3.8199,3.7324,3.6645,3.6296,3.6296,3.5769,3.5537,3.5537,3.3659,3.2633,3.2633,3.1165,3.0456,3.0456,3.0456,3.0456,3.0407,2.9459,2.8994,2.8994,2.8994,2.8994,2.8994,2.8994,2.8994,2.8994,2.8994,2.8994,2.8994,2.8994,2.8994,2.8994,2.8994,2.8994,2.8994,2.8994,2.8994,2.8994,2.8994,2.8994,2.8994,2.8994,2.8578,2.8137,2.8137,2.7674,2.7235,2.7235,2.6478,2.5655,2.5655,2.5655,2.5788,2.6269,2.6334,2.653,2.6893,2.666,2.6334,2.6334,2.5897,2.5655,2.5655,2.603,2.653,2.6957,2.7692,2.8714,3.0223,3.0995,3.2077,3.3542,3.3898,3.428,3.4578,3.4622,3.4622,3.4622,3.4847,3.4847,3.4622,3.4847,3.4974,3.4974,3.5231,3.5473,4.629,4.8133,4.9849,4.9847,4.9721,4.9553,4.9458,4.93,4.9236,4.9365,4.8808,4.832,4.8335,4.7702,4.695,4.6305,4.5688,4.5029,4.4265,4.3789,4.3465,4.3368,4.2396,4.135,4.046,3.8573,3.6992,3.6013,3.4952,3.4401,3.4401,3.4401,3.4401,3.4401,3.2792,3.1885,3.1678,3.0027,2.9119,2.8994,2.8994,2.8994,2.8969,2.8504,2.8211,2.8211,2.8211,2.8211,2.8211,2.8211,2.8211,2.8211,2.8211,2.8211,2.8211,2.8211,2.8211,2.8211,2.8211,2.8211,2.8211,2.8211,2.8211,2.8211,2.8211,2.8211,2.8211,2.8211,2.7697,2.7036,2.7036,2.6332,2.5655,2.5655,2.5655,2.5655,2.5655,2.5655,2.5831,2.6595,2.67,2.6893,2.7566,2.7149,2.6465,2.5788,2.5655,2.5655,2.5655,2.5655,2.5897,2.6635,2.6893,2.7826,2.9686,3.0111,3.1151,3.3066,3.348,3.3853,3.4369,3.4501,3.4622,3.4622,3.4622,3.4622,3.4622,3.4622,3.4457,3.4129,3.4257,3.4134,4.5129,4.7728,4.9582,4.9443,4.9591,4.9721,4.9582,4.9439,4.9358,4.9363,4.9051,4.8717,4.8735,4.8104,4.7341,4.6701,4.6234,4.5514,4.4314,4.4065,4.3878,4.3389,4.1898,4.0459,3.9211,3.746,3.5925,3.4662,3.4459,3.4401,3.4401,3.4401,3.4401,3.4401,3.3349,3.2389,3.1678,3.0579,2.9687,2.8994,2.8994,2.8994,2.892,2.6893,2.5947,2.5947,2.5947,2.5947,2.5947,2.5947,2.5947,2.5947,2.5947,2.5947,2.5947,2.5947,2.5947,2.5947,2.5947,2.5947,2.5947,2.5947,2.5947,2.5947,2.5947,2.5947,2.5947,2.5947,2.5874,2.5801,2.5801,2.5728,2.5655,2.5655,2.5655,2.5655,2.5655,2.5655,2.5655,2.5788,2.5788,2.5855,2.5831,2.5855,2.5788,2.5655,2.5655,2.5655,2.5655,2.5655,2.5722,2.5788,2.653,2.7377,2.8284,2.9571,3.0778,3.1815,3.2969,3.3668,3.3714,3.428,3.4622,3.4622,3.4622,3.4622,3.4622,3.4622,3.3931,3.2657,3.3143,3.2666,4.0578,4.3806,4.6936,4.7648,4.8747,4.9617,4.9583,4.9538,4.946,4.9405,4.9063,4.8777,4.8693,4.8284,4.7796,4.7339,4.6773,4.6002,4.4856,4.4363,4.3594,4.2224,4.0622,3.9121,3.7719,3.5422,3.3791,3.3268,3.2602,3.196,3.1392,3.1392,3.112,3.0661,3.0222,2.9648,2.8866,2.8467,2.7842,2.6991,2.6991,2.6991,2.6966,2.6044,2.5655,2.5655,2.5655,2.5655,2.5588,2.5091,2.5159,2.552,2.4452,2.4658,2.5588,2.5023,2.5159,2.5655,2.5655,2.5655,2.5655,2.5655,2.5655,2.5655,2.5655,2.5655,2.5655,2.5655,2.5655,2.5655,2.5655,2.5655,2.5655,2.5655,2.5655,2.5655,2.5655,2.5655,2.5655,2.5655,2.5655,2.5655,2.5655,2.5655,2.5655,2.5655,2.5655,2.5655,2.5655,2.5655,2.5453,2.4887,2.5673,2.6284,2.6547,2.8027,2.957,3.0807,3.224,3.2293,3.067,3.1507,3.2024,3.2024,3.2024,3.2024,3.2024,3.2024,3.1728,3.1209,3.1407,3.1184,3.6529,4.0188,4.4088,4.545,4.7345,4.8861,4.8812,4.8402,4.8137,4.8587,4.8497,4.843,4.8792,4.8472,4.8096,4.7863,4.7237,4.6393,4.5257,4.4326,4.3139,4.1418,3.9466,3.7688,3.6286,3.3926,3.2339,3.1962,3.0919,3.0028,2.9419,2.9123,2.8736,2.8188,2.8188,2.7817,2.7021,2.7021,2.653,2.5655,2.5655,2.5655,2.5655,2.5655,2.5655,2.5655,2.5655,2.5655,2.5588,2.4931,2.5091,2.552,2.4245,2.4383,2.5159,2.4521,2.4521,2.4863,2.4863,2.4863,2.4863,2.4863,2.5023,2.5227,2.5227,2.5453,2.5655,2.5655,2.5655,2.5655,2.5655,2.5655,2.5655,2.5655,2.5655,2.5655,2.5655,2.5655,2.5655,2.5655,2.5411,2.5168,2.5168,2.4924,2.473,2.473,2.473,2.473,2.473,2.4973,2.5091,2.4771,2.5006,2.525,2.5402,2.6491,2.7672,2.8934,3.0513,3.0555,2.8674,2.954,3.0161,3.0315,3.0315,3.0315,3.0315,3.0315,3.0117,2.969,2.969,2.946,3.4067,3.7742,4.1411,4.2997,4.535,4.7218,4.7092,4.5658,4.4875,4.6712,4.7159,4.7694,4.9101,4.8717,4.8201,4.8234,4.7548,4.657,4.5257,4.3881,4.2506,4.1338,3.855,3.6255,3.4938,3.3388,3.1962,3.0826,2.9855,2.936,2.936,2.8615,2.8188,2.8188,2.8188,2.7817,2.7021,2.7021,2.653,2.5655,2.5655,2.5655,2.5655,2.5655,2.5655,2.5655,2.5655,2.5655,2.5655,2.5655,2.5655,2.5655,2.5655,2.5091,2.4314,2.4314,2.3735,2.2958,2.2958,2.2958,2.2958,2.2958,2.3594,2.4314,2.4314,2.4931,2.5655,2.5655,2.5655,2.5655,2.5655,2.5655,2.5655,2.5655,2.5655,2.5655,2.5655,2.5655,2.5655,2.5655,2.4803,2.4135,2.4135,2.3257,2.2549,2.2549,2.2549,2.2549,2.2549,2.3476,2.4486,2.5533,2.4705,2.446,2.5213,2.4923,2.5072,2.5878,2.7604,2.8612,2.8581,2.921,2.9814,3.0315,3.0315,3.0315,3.0315,3.0315,2.9591,2.8208,2.8208,2.7454,2.9735,3.3443,3.7428,4.142,4.3713,4.4685,4.3573,4.3798,4.4622,4.6177,4.6813,4.7569,4.9088,4.9183,4.8829,4.8278,4.7625,4.6702,4.5267,4.3485,4.1461,3.9195,3.6872,3.4663,3.2838,3.1826,3.0832,2.9884,2.9477,2.8856,2.7817,2.7504,2.7085,2.6465,2.7085,2.6957,2.6096,2.67,2.653,2.5655,2.5655,2.5655,2.5655,2.5655,2.5655,2.5655,2.5655,2.5655,2.5655,2.5655,2.5294,2.4658,2.4014,2.4383,2.5091,2.3804,2.3594,2.3804,2.3171,2.2958,2.2958,2.2958,2.31,2.3454,2.4083,2.4521,2.4863,2.552,2.5655,2.5314,2.3916,2.355,2.355,2.355,2.355,2.355,2.355,2.355,2.355,2.355,2.3257,2.3037,2.3037,2.2744,2.2525,2.2525,2.2525,2.2525,2.2525,2.2352,2.2382,2.2689,2.2452,2.2277,2.2327,2.341,2.4292,2.5045,2.477,2.4932,2.5782,2.6315,2.6864,2.7388,2.739,2.739,2.739,2.739,2.7159,2.6698,2.6698,2.6501,2.6767,2.9798,3.3356,3.8624,3.9456,3.9395,4.0826,4.1325,4.2258,4.5058,4.5902,4.666,4.8322,4.934,4.9951,5.0035,4.8698,4.6903,4.461,4.2495,4.0124,3.7431,3.5261,3.3381,3.1853,3.0763,2.9971,2.9419,2.8796,2.8065,2.7085,2.67,2.6203,2.5655,2.6228,2.6203,2.5655,2.6203,2.5848,2.4658,2.4658,2.4795,2.5159,2.5159,2.5159,2.5159,2.552,2.5453,2.5159,2.552,2.5294,2.4727,2.4152,2.4452,2.4931,2.3454,2.3313,2.3619,2.2241,2.1972,2.2181,2.1831,2.2273,2.2896,2.3102,2.3645,2.4268,2.4431,2.4438,2.4082,2.2243,2.1707,2.1707,2.1707,2.191,2.2064,2.2064,2.2064,2.2206,2.2466,2.201,2.1604,2.1833,2.1549,2.128,2.128,2.128,2.128,2.128,2.0974,2.0803,2.0803,2.0912,2.0921,2.0567,2.1704,2.2684,2.3305,2.2767,2.2967,2.4134,2.4507,2.5015,2.5709,2.5775,2.5875,2.604,2.604,2.604,2.604,2.604,2.604,2.476,2.6762,2.9239,3.4681,3.3142,3.1902,3.7823,3.8074,3.8319,4.2875,4.4192,4.5099,4.7106,4.9176,5.0969,5.226,5.0184,4.7144,4.3633,4.1293,3.8944,3.6204,3.4056,3.2507,3.1686,3.0256,2.936,2.9301,2.7879,2.7021,2.6893,2.6162,2.5655,2.5588,2.5588,2.552,2.5453,2.5453,2.4566,2.2849,2.2849,2.3317,2.4175,2.4175,2.4175,2.4245,2.4996,2.4904,2.4198,2.4968,2.5278,2.5278,2.5278,2.4785,2.3877,2.2951,2.262,2.2349,2.0346,2.0243,2.0763,1.9922,2.0873,2.2219,2.1297,2.2326,2.3545,2.2615,2.2344,2.1931,2.0573,2.0268,2.0268,2.0268,2.0694,2.1092,2.1151,2.1151,2.1412,2.2165,2.0921,1.9955,2.0557,1.9914,1.9255,1.9255,1.9255,1.9255,1.9205,1.9421,1.9622,1.9566,1.9913,1.995,1.9658,1.9921,2.0377,2.1135,2.1628,2.2436,2.3655,2.3725,2.4165,2.5193,2.526,2.5504,2.5975,2.6007,2.604,2.604,2.604,2.604,2.1153,2.2683,2.4805,2.9793,2.7961,2.53,2.658,3.1751,3.6411,3.6948,3.9965,4.3608,4.7332,4.7489,4.7078,4.7085,4.7663,4.7284,4.4936,4.248,3.9811,3.6956,3.5231,3.344,3.1157,2.9942,2.9095,2.8494,2.7566,2.67,2.603,2.5788,2.5386,2.4658,2.4589,2.4314,2.3594,2.3594,2.3005,2.1912,2.1912,2.2375,2.3242,2.3242,2.3242,2.3198,2.2718,2.2383,2.2182,2.1792,2.1603,2.1603,2.1603,2.1499,2.1222,2.0169,1.9841,1.9602,1.8428,1.8169,1.8302,1.8103,1.8369,1.8831,1.9248,1.9765,2.0232,2.0782,2.0096,1.922,1.8821,1.8767,1.8767,1.8767,1.8418,1.8254,1.8875,1.8983,1.9197,1.9907,1.9688,1.9416,1.957,1.9401,1.9255,1.9255,1.9255,1.908,1.8573,1.8052,1.7541,1.7069,1.7113,1.7303,1.7726,1.8328,1.9405,2.1089,2.1319,2.2101,2.3685,2.3725,2.401,2.4692,2.5087,2.5331,2.547,2.5875,2.604,2.604,2.604,2.604,1.9303,2.0028,2.0688,2.1807,2.0808,1.9843,2.0591,2.5463,2.9648,2.9158,3.5006,4.0564,4.1817,4.4367,4.5977,4.4932,4.5322,4.5015,4.2824,4.0295,3.7687,3.501,3.3876,3.2705,3.1061,2.9608,2.8467,2.7613,2.6429,2.523,2.3821,2.3798,2.3389,2.2534,2.2511,2.2247,2.1781,2.0882,2.0018,1.9173,1.9869,2.032,2.054,2.1675,2.1754,2.1086,2.1047,2.0748,2.0276,1.9997,2.0053,2.0429,2.0429,2.0429,2.0345,1.9762,1.9257,1.8685,1.773,1.7655,1.7948,1.7529,1.7718,1.801,1.8135,1.8423,1.8767,1.8895,1.7853,1.6891,1.7585,1.7532,1.7373,1.769,1.7668,1.7743,1.816,1.8287,1.847,1.913,1.9003,1.8878,1.9205,1.9255,1.9255,1.9255,1.9255,1.9003,1.8339,1.7562,1.687,1.6205,1.5838,1.5984,1.7031,1.751,1.8447,2.0163,2.0593,2.1402,2.2847,2.293,2.3273,2.4096,2.4394,2.4655,2.4911,2.547,2.5708,2.5675,2.5942,2.604,1.7867,1.7481,1.6288,1.3446,1.2966,1.3619,1.5478,1.7955,2.0084,2.075,2.8797,3.5688,3.5541,4.0621,4.4504,4.3626,4.3089,4.2057,4.0112,3.755,3.5074,3.2635,3.2007,3.1573,3.0936,2.9153,2.756,2.6547,2.5,2.3283,2.1474,2.143,2.0991,2.0181,2.0181,1.9965,1.9559,1.779,1.6639,1.6171,1.7518,1.7878,1.7577,1.9667,1.9828,1.8509,1.9119,1.8891,1.81,1.8215,1.8672,1.9393,1.9393,1.9455,1.9559,1.9559,1.9107,1.8299,1.7422,1.7606,1.8128,1.7217,1.749,1.7955,1.7158,1.749,1.7899,1.703,1.5984,1.5447,1.6762,1.6675,1.6424,1.6977,1.7637,1.8057,1.7952,1.8109,1.8391,1.8827,1.8573,1.8419,1.8827,1.8929,1.8929,1.9104,1.908,1.8878,1.8316,1.769,1.6999,1.6225,1.5559,1.5651,1.6977,1.7084,1.7668,1.9029,1.9798,2.0729,2.1808,2.1852,2.2378,2.3413,2.3505,2.3823,2.4363,2.4875,2.5193,2.5296,2.5709,2.5975,1.4823,1.2603,1.0152,0.9643,0.5868,0.2724,0.4043,0.6045,0.895,1.3402,1.9562,2.718,3.7103,3.7043,3.6628,4.0088,4.0851,4.1127,4.1434,3.8743,3.5975,3.3787,3.2921,3.1759,2.9814,2.8172,2.6521,2.4795,2.3725,2.2364,2.0695,2.0588,2.0124,1.913,1.9066,1.8033,1.58,1.4872,1.4662,1.5309,1.556,1.6029,1.6532,1.692,1.697,1.663,1.535,1.4717,1.4501,1.3874,1.4095,1.4817,1.4817,1.5203,1.5781,1.5781,1.6125,1.6559,1.636,1.641,1.6355,1.5586,1.5415,1.5529,1.5377,1.5415,1.551,1.5318,1.5615,1.615,1.6924,1.7031,1.6977,1.7084,1.7191,1.7138,1.6588,1.7426,1.8109,1.7562,1.79,1.8109,1.751,1.7457,1.7668,1.8316,1.8442,1.8367,1.8264,1.816,1.7585,1.628,1.6005,1.626,1.7031,1.7084,1.7457,1.8367,1.9553,2.0567,2.1274,2.1319,2.1611,2.222,2.2676,2.3213,2.3814,2.4363,2.4839,2.5296,2.5366,2.5607,1.3641,1.1182,0.819,0.6128,0.2771,-0.0598,-0.303,-0.3016,-0.0818,0.4748,0.9625,1.5956,2.621,2.9323,3.1653,3.5771,3.8096,3.9355,3.9493,3.6567,3.3868,3.2516,3.1436,3.0531,2.9632,2.7912,2.6022,2.4213,2.24,2.0566,1.881,1.8361,1.7768,1.6801,1.6741,1.5974,1.4332,1.3952,1.3602,1.3202,1.4013,1.4163,1.375,1.5079,1.5211,1.4286,1.3495,1.291,1.2401,1.2141,1.2181,1.2488,1.299,1.3663,1.4332,1.4332,1.4864,1.5504,1.5504,1.5504,1.5467,1.5072,1.4959,1.4959,1.4959,1.4959,1.5072,1.5447,1.5559,1.5783,1.6816,1.6837,1.6675,1.7031,1.7084,1.7031,1.6729,1.716,1.751,1.7191,1.7386,1.7505,1.7182,1.7096,1.7201,1.7585,1.7637,1.7526,1.716,1.7106,1.6675,1.5615,1.5894,1.626,1.6567,1.6924,1.7457,1.8235,1.9156,1.9993,2.0641,2.0996,2.143,2.1957,2.2191,2.2493,2.2733,2.2581,2.2822,2.3391,2.3147,2.36,1.3096,0.0,0.7039,0.3255,0.0203,-0.3151,0.0,-0.8893,-0.8036,-0.3875,0.1392,0.7977,1.724,2.3027,2.7738,3.166,3.5295,3.7235,3.6309,3.471,3.3224,3.1995,3.0259,2.9234,2.9477,2.7409,2.5101,2.2868,2.086,1.8828,1.6861,1.6265,1.568,1.4978,1.4769,1.4332,1.353,1.3356,1.267,1.1494,1.2662,1.2632,1.1524,1.3444,1.359,1.2347,1.2194,1.1543,1.076,1.0816,1.0923,1.1048,1.175,1.2654,1.353,1.3721,1.4332,1.4996,1.5185,1.5242,1.5242,1.5242,1.5129,1.4959,1.4959,1.4959,1.5072,1.5671,1.5447,1.5279,1.6567,1.6621,1.6458,1.6977,1.7244,1.7298,1.6924,1.6977,1.7031,1.6654,1.6769,1.6819,1.6667,1.6596,1.6644,1.6824,1.7003,1.7016,1.6644,1.6621,1.6335,1.5559,1.5874,1.6115,1.6115,1.6729,1.7351,1.7952,1.8624,1.938,2.016,2.0735,2.102,2.1216,2.158,2.153,2.0949,2.0591,2.0742,2.1311,2.0995,2.1521,0.0,0.8992,0.4578,0.1549,-0.3475,-0.8074,-0.9756,-1.0333,0.0,-1.1672,-0.3271,0.7757,1.8802,2.2017,2.4341,2.8256,3.2676,3.4744,3.2446,3.5458,3.6965,3.4453,3.0921,2.8643,2.865,2.5983,2.2807,1.9312,1.888,1.7676,1.5263,1.511,1.5015,1.4959,1.4275,1.3489,1.2729,1.2018,1.1555,1.1494,1.1599,1.1599,1.1494,1.1657,1.1643,1.1494,1.0776,0.9975,0.9121,0.9121,0.953,1.018,1.0241,1.127,1.2788,1.353,1.4296,1.5052,1.5818,1.606,1.606,1.606,1.5559,1.4959,1.4959,1.4959,1.4959,1.5015,1.5015,1.5185,1.6005,1.6621,1.7031,1.7084,1.7668,1.7848,1.6479,1.6675,1.6708,1.5391,1.568,1.5986,1.5224,1.5129,1.5369,1.6058,1.672,1.7368,1.8064,1.812,1.781,1.7031,1.6458,1.6115,1.6115,1.6729,1.7138,1.7191,1.79,1.8905,2.016,2.0256,1.9839,1.8946,2.0463,2.0195,1.8011,1.8937,1.9562,1.9981,1.9956,2.0213,1.1233,0.7319,0.2482,-0.276,-0.7359,-1.0937,-1.2066,-1.2213,-1.0909,-0.6949,-0.0635,0.7149,1.6742,2.0774,2.4491,2.9655,3.2557,3.4356,3.4784,3.6174,3.6071,3.307,2.9823,2.7544,2.6796,2.4776,2.2693,2.0762,1.8818,1.7311,1.6349,1.5447,1.4959,1.4959,1.42,1.3431,1.267,1.1854,1.1207,1.0735,1.0735,1.0416,0.9912,0.9912,0.9604,0.9171,0.8883,0.8183,0.0,0.7995,0.8372,0.8736,0.9171,1.0451,1.1974,1.2256,1.314,1.4296,1.4581,1.5015,1.5411,1.5411,1.5185,1.4959,1.4959,1.4959,1.5072,1.5559,1.5671,1.5783,1.606,1.5929,1.5733,1.5465,1.5632,1.5689,1.4969,1.4745,1.4603,1.439,1.4098,1.3976,1.4321,1.4073,1.4076,1.4731,1.5011,1.5279,1.5559,1.56,1.536,1.4736,1.533,1.5363,1.4411,1.5229,1.5616,1.5283,1.634,1.7457,1.8604,1.8646,1.8765,1.9031,1.9222,1.8923,1.8056,1.8196,1.8098,1.7763,1.7442,1.7916,1.0594,0.6066,0.07,-0.5596,-1.0062,-1.3124,-1.3808,-1.3491,-1.1241,-0.4556,0.074,0.6825,1.5349,1.9779,2.4054,2.9812,3.1946,3.3535,3.5235,3.5746,3.4821,3.1911,2.9719,2.7792,2.613,2.4019,2.2109,2.0725,1.843,1.6924,1.6437,1.5504,1.4731,1.4236,1.3739,1.2948,1.1914,1.1388,1.0674,0.9888,0.9888,0.9443,0.857,0.857,0.8257,0.7763,0.7554,0.7038,0.6467,0.7183,0.7446,0.7364,0.7932,0.9035,1.0342,1.0876,1.1705,1.2697,1.324,1.397,1.458,1.458,1.4769,1.4959,1.4959,1.4882,1.4815,1.5129,1.5206,1.5206,1.5206,1.4858,1.4489,1.4343,1.4349,1.4336,1.4285,1.3738,1.3305,1.3681,1.3042,1.2735,1.3608,1.3438,1.3403,1.3906,1.4164,1.4295,1.4281,1.4325,1.4172,1.3807,1.4524,1.4533,1.3161,1.4019,1.4617,1.4441,1.5271,1.6207,1.7143,1.7354,1.7591,1.793,1.8048,1.7781,1.718,1.7242,1.6874,1.6145,1.5789,1.6185,1.0758,0.5198,-0.0786,-0.6466,-1.1327,-1.4814,-1.4813,-1.4235,-1.2154,-0.6784,-0.0317,0.6831,1.5385,1.916,2.272,2.7721,3.0348,3.1932,3.2708,3.3729,3.3604,3.153,3.0948,2.9626,2.6904,2.3682,2.075,1.8297,1.7518,1.6512,1.5072,1.4959,1.4293,1.2729,1.267,1.1899,1.032,1.0333,0.9827,0.8945,0.8945,0.8508,0.7763,0.7763,0.7763,0.769,0.7084,0.6641,0.6403,0.6692,0.6628,0.6395,0.6395,0.6984,0.7942,0.9518,1.0119,1.0363,1.2003,1.3123,1.3762,1.3762,1.4332,1.4959,1.494,1.466,1.4174,1.3412,1.3238,1.3238,1.3238,1.3422,1.3697,1.4085,1.4197,1.433,1.4824,1.4038,1.3184,1.3192,1.2801,1.2573,1.3105,1.32,1.3351,1.3879,1.4523,1.492,1.4919,1.4969,1.4963,1.4948,1.4359,1.3614,1.2713,1.3478,1.427,1.4922,1.4963,1.531,1.6107,1.6625,1.6339,1.5195,1.6796,1.6733,1.4782,1.5831,1.5994,1.5355,1.5355,1.5355,0.9649,0.3773,-0.2418,-1.0289,-1.5114,-1.7833,-1.7489,-1.602,-1.3097,-0.6897,-0.0316,0.7259,1.6997,2.0739,2.3852,2.8837,3.0733,3.1804,3.2595,3.3472,3.2965,3.0142,2.9249,2.827,2.6656,2.4476,2.2487,2.0921,1.8936,1.739,1.6512,1.604,1.5316,1.4293,1.3215,1.2434,1.1974,1.0857,0.9827,0.8945,0.8945,0.8173,0.6785,0.6785,0.6539,0.598,0.578,0.5644,0.5594,0.568,0.5995,0.6459,0.6619,0.7147,0.7856,0.8288,0.8809,0.9466,1.0476,1.1378,1.2123,1.2781,1.3489,1.3867,1.2511,1.2252,1.2593,1.3172,1.3614,1.4017,1.4352,1.4196,1.3823,1.3667,1.3635,1.3612,1.3487,1.2675,1.2058,1.2356,1.1452,1.0938,1.1849,1.1667,1.1618,1.2162,1.2391,1.2493,1.251,1.2757,1.2811,1.2518,1.2555,1.266,1.2766,1.3024,1.3384,1.3832,1.3857,1.4268,1.5141,1.5338,1.5367,1.5286,1.5774,1.5785,1.5186,1.5237,1.5268,1.5355,1.4697,1.4755,0.9742,0.2716,-0.453,-1.2937,-1.7502,-1.976,-1.9174,-1.6888,-1.3289,-0.7877,-0.0841,0.7474,1.7688,2.1379,2.3986,2.7922,2.9788,3.0901,3.1439,3.1589,3.1117,2.9637,2.8166,2.7062,2.6544,2.4968,2.3654,2.2862,2.03,1.8319,1.7236,1.6051,1.5111,1.4449,1.324,1.2181,1.1164,1.0232,0.9121,0.7922,0.7922,0.7228,0.5964,0.5964,0.5716,0.5273,0.5221,0.4686,0.396,0.4846,0.4698,0.3998,0.5594,0.6396,0.6845,0.7538,0.7841,0.8106,0.9153,0.9806,1.0299,1.1099,1.1582,1.1579,1.0052,1.0444,1.1522,1.1916,1.2656,1.3434,1.3715,1.3675,1.3459,1.3234,1.3169,1.3164,1.3093,1.25,1.2095,1.2337,1.1495,1.098,1.1587,1.144,1.1337,1.1658,1.1889,1.1946,1.1716,1.1915,1.2018,1.2019,1.2353,1.2737,1.3027,1.3217,1.3415,1.3651,1.3657,1.3908,1.445,1.4463,1.4671,1.5098,1.5126,1.5212,1.5355,1.51,1.5129,1.5355,1.4784,1.4755,1.0365,0.1838,-0.6736,-1.4405,-1.8719,-2.0989,-2.0515,-1.7396,-1.3656,-1.0406,-0.2301,0.7445,1.7837,2.1605,2.3918,2.6332,2.843,2.9742,2.9779,2.9039,2.8814,2.9691,2.7549,2.6207,2.667,2.5352,2.4442,2.4285,2.1598,1.934,1.7819,1.5645,1.419,1.3597,1.2832,1.1349,0.9043,0.8905,0.7986,0.6283,0.6315,0.5964,0.5215,0.5015,0.4944,0.4944,0.4833,0.3577,0.1746,0.3795,0.2806,0.0324,0.3521,0.4775,0.4969,0.6475,0.6506,0.6038,0.7544,0.8191,0.841,0.9033,0.896,0.847,0.7659,0.902,1.0639,0.9965,1.0824,1.1996,1.2099,1.2505,1.2928,1.2928,1.2928,1.3034,1.3395,1.3172,1.2866,1.2881,1.245,1.21,1.2091,1.2089,1.2036,1.2036,1.2399,1.2541,1.1999,1.2014,1.2272,1.2894,1.3184,1.3417,1.355,1.3855,1.4081,1.4135,1.4125,1.4128,1.4135,1.4138,1.4357,1.4842,1.487,1.5069,1.5441,1.5412,1.5412,1.5439,1.5383,1.5157,0.8278,0.0736,-0.7069,-1.4355,-1.9157,-2.2525,-2.432,-2.0905,-1.7974,-1.9852,-0.7222,0.7567,1.8666,2.3456,2.6792,2.9716,3.0601,3.0658,2.9994,2.9639,2.9264,2.8751,2.7848,2.7306,2.7512,2.6406,2.5639,2.5637,2.2867,2.116,2.1109,1.7131,1.4359,1.3355,1.1755,1.0531,0.9567,0.8762,0.7222,0.5071,0.5376,0.5395,0.517,0.3318,0.2468,0.2468,0.1493,0.0843,0.0324,-0.0065,-0.013,0.0065,0.0843,0.1104,0.1167,0.1546,0.1548,0.1681,0.3839,0.5538,0.687,0.7925,0.725,0.6037,0.6034,0.7251,0.864,0.8671,1.0016,1.1639,1.2438,1.3196,1.374,1.374,1.374,1.3745,1.3852,1.3571,1.3273,1.3298,1.2887,1.2525,1.2517,1.2268,1.2053,1.2053,1.1883,1.1575,1.1037,1.1619,1.25,1.3642,1.3247,1.3362,1.4392,1.4488,1.4727,1.5321,1.5099,1.5042,1.5372,1.5183,1.5214,1.5556,1.5556,1.5729,1.6134,1.5815,1.5807,1.6096,1.5492,1.5321,0.6514,-0.0342,-0.7485,-1.4491,-1.9215,-2.2603,-2.4342,-2.1289,-1.8673,-2.0878,-0.8102,0.6321,1.5793,2.1723,2.6401,3.0027,2.9969,2.9161,2.8476,2.8296,2.8298,2.8463,2.8352,2.8324,2.8429,2.7446,2.685,2.6966,2.4098,2.2097,2.1621,1.8034,1.5228,1.3548,1.1964,1.0316,0.8504,0.7332,0.6042,0.4668,0.4106,0.382,0.3776,0.2088,0.0835,0.006,-0.0581,-0.1569,-0.2842,-0.355,-0.3461,-0.2986,-0.2921,-0.2138,-0.1295,-0.2455,-0.1683,0.0194,0.1594,0.2594,0.3271,0.352,0.2978,0.2505,0.377,0.5694,0.7475,0.7875,0.9387,1.1201,1.2424,1.3647,1.4611,1.4786,1.4843,1.4786,1.4614,1.4387,1.4304,1.4507,1.4312,1.4059,1.389,1.3688,1.3381,1.2961,1.2902,1.2716,1.2061,1.274,1.3401,1.3845,1.3802,1.4036,1.4695,1.4986,1.5292,1.5719,1.5741,1.5818,1.6008,1.603,1.5989,1.6046,1.614,1.6227,1.6337,1.6134,1.612,1.631,1.5903,1.5843,0.3934,-0.1725,-0.7976,-1.436,-1.871,-2.1894,-2.3603,-2.135,-1.9201,-2.0388,-0.8727,0.4049,1.1881,1.918,2.5544,3.044,2.9238,2.7591,2.7152,2.6815,2.6977,2.8021,2.8644,2.9051,2.9224,2.8392,2.7863,2.8057,2.5052,2.2694,2.1443,1.8629,1.6155,1.4179,1.2864,1.0697,0.7541,0.6128,0.5016,0.4219,0.2744,0.1781,0.1294,0.0377,-0.0902,-0.2385,-0.257,-0.395,-0.6164,-0.6248,-0.635,-0.6431,-0.6326,-0.5006,-0.334,-0.5382,-0.4086,-0.1216,-0.0735,-0.0589,-0.0826,-0.2282,-0.2511,-0.1734,0.0747,0.333,0.5679,0.7189,0.922,1.1228,1.2461,1.4117,1.551,1.5875,1.5977,1.5875,1.556,1.5456,1.5527,1.5774,1.5854,1.5753,1.5475,1.537,1.5097,1.4375,1.4567,1.4479,1.3744,1.4416,1.4776,1.4357,1.4757,1.51,1.5155,1.5715,1.6091,1.6079,1.6453,1.6646,1.6627,1.6783,1.6768,1.6649,1.6848,1.6866,1.6721,1.6594,1.6579,1.6683,1.6595,1.652,-0.1509,-0.3908,-0.8389,-1.3226,-1.6894,-2.0578,-2.5549,-2.4672,-2.3747,-2.7098,-1.4273,0.0318,0.9583,1.8818,2.7524,3.509,3.2264,2.9058,2.8994,2.7505,2.6441,2.6396,2.7917,2.9127,2.9611,2.9034,2.8528,2.8353,2.5392,2.34,2.2866,1.9087,1.642,1.5355,1.4166,1.1984,0.8754,0.6956,0.4912,0.2646,0.1524,-0.0325,-0.2757,-0.3236,-0.3928,-0.4838,-0.5737,-0.6615,-0.7357,-0.7383,-0.738,-0.7386,-0.7392,-0.6883,-0.6249,-0.6582,-0.6586,-0.6302,-0.5575,-0.4252,-0.3562,-0.7739,-0.8221,-0.6627,-0.3473,-0.1544,0.0688,0.6202,1.0202,1.2961,1.3381,1.4972,1.6597,1.6865,1.69,1.69,1.6855,1.6659,1.647,1.6289,1.6253,1.6303,1.6478,1.6227,1.6039,1.6161,1.5753,1.5237,1.4683,1.5669,1.6407,1.6321,1.632,1.6421,1.6774,1.7175,1.7441,1.7441,1.7704,1.7843,1.7837,1.7546,1.7513,1.7842,1.7895,1.8009,1.8174,1.7726,1.7689,1.8009,1.7535,1.7338,-0.7813,-0.7254,-0.7449,-1.0739,-1.386,-1.7136,-2.099,-2.1428,-2.1505,-2.3233,-1.0507,0.3275,1.0908,2.0373,2.8952,3.5044,3.0833,2.6503,2.5449,2.5287,2.5324,2.5465,2.755,2.9186,2.9685,2.9368,2.9017,2.8847,2.586,2.3867,2.3466,1.9853,1.755,1.6993,1.5828,1.4193,1.2041,0.9955,0.596,0.0045,-0.1072,-0.2514,-0.418,-0.5401,-0.6456,-0.736,-0.7818,-0.8612,-0.9499,-0.9046,-0.9165,-0.9506,-0.907,-0.8872,-0.8865,-0.8692,-0.8758,-0.8863,-0.8592,-0.9093,-1.0051,-1.1244,-1.2236,-1.2152,-0.7703,-0.5124,-0.2856,0.1257,0.5333,0.935,1.3436,1.5798,1.7183,1.7281,1.7257,1.7047,1.6475,1.6352,1.6184,1.5494,1.5799,1.6413,1.6934,1.7141,1.7186,1.7099,1.7003,1.6682,1.585,1.644,1.7,1.7157,1.7046,1.7092,1.7404,1.7725,1.7914,1.7914,1.8205,1.8415,1.8402,1.8381,1.8365,1.8409,1.8466,1.8551,1.8587,1.8349,1.8331,1.8475,1.8265,1.8137,-1.3092,-1.024,-0.7214,-0.8957,-1.11,-1.3524,-1.6131,-1.7408,-1.7968,-1.7626,-0.6599,0.5075,1.1902,2.0591,2.8391,3.357,2.8902,2.4175,2.2872,2.3306,2.3911,2.4458,2.6873,2.8818,2.9565,2.9536,2.9269,2.8857,2.6144,2.4139,2.3319,2.0417,1.8381,1.7514,1.6425,1.5257,1.396,1.1507,0.6058,-0.2354,-0.4018,-0.5411,-0.6649,-0.7821,-0.9001,-1.0041,-1.0028,-1.0709,-1.18,-1.1263,-1.1347,-1.1752,-1.1187,-1.1071,-1.1203,-1.1023,-1.1016,-1.1367,-1.3011,-1.4712,-1.5917,-1.4406,-1.4888,-1.5276,-1.0874,-0.8388,-0.6487,-0.375,0.0443,0.5514,1.1575,1.4441,1.5871,1.6368,1.6323,1.5941,1.5182,1.4882,1.4516,1.3722,1.3966,1.4556,1.555,1.6555,1.7148,1.6944,1.734,1.7301,1.6248,1.6598,1.696,1.6982,1.713,1.7194,1.7182,1.7299,1.7426,1.7571,1.7773,1.7927,1.8063,1.8432,1.8511,1.8298,1.8601,1.8714,1.8601,1.8584,1.8575,1.8553,1.8614,1.8629,-1.6389,-1.1879,-0.8989,-0.8959,-0.9382,-1.0464,-1.333,-1.4722,-1.4922,-1.3296,-0.6316,0.2139,1.0883,1.7876,2.4594,3.1647,2.7796,2.4008,2.4149,2.2977,2.2292,2.2955,2.5573,2.7863,2.9233,2.9587,2.9187,2.7942,2.6099,2.417,2.2165,2.0452,1.8439,1.5948,1.5104,1.4036,1.2748,0.968,0.4068,-0.4012,-0.6908,-0.9562,-1.1844,-1.132,-1.1786,-1.2996,-1.3014,-1.332,-1.3857,-1.4071,-1.4013,-1.3851,-1.3818,-1.3576,-1.3267,-1.3246,-1.3577,-1.4805,-2.0495,-2.1134,-1.9192,-1.7847,-1.6039,-1.3995,-1.2244,-1.1611,-1.0805,-0.7356,-0.2009,0.3403,0.6749,0.9319,1.1513,1.3351,1.3435,1.3031,1.2984,1.1906,1.0955,1.0912,0.9932,0.9598,1.1115,1.3365,1.5033,1.525,1.6051,1.6239,1.5185,1.5905,1.6303,1.5731,1.6425,1.6647,1.5905,1.5635,1.5717,1.621,1.5898,1.5948,1.6425,1.7051,1.74,1.7365,1.8103,1.8491,1.8491,1.833,1.8295,1.8275,1.8408,1.8466,-2.4868,-1.9401,-1.3374,-0.8771,-0.744,-0.7697,-0.9203,-1.0201,-1.0782,-1.0672,-0.25,0.6173,1.1365,1.8486,2.474,2.8231,2.4561,2.092,1.9806,2.0787,2.185,2.2606,2.5509,2.77,2.831,2.7772,2.6888,2.5746,2.3599,2.2053,2.1395,1.8827,1.681,1.5543,1.4725,1.3545,1.1902,0.9705,0.5844,0.0323,-0.7808,-1.1692,-1.1768,-1.3078,-1.414,-1.4971,-1.5132,-1.5653,-1.6431,-1.7015,-1.753,-1.8039,-1.8548,-1.8817,-1.8924,-1.9097,-1.9293,-1.9817,-2.2482,-2.2849,-2.1964,-2.0893,-1.9782,-1.8479,-1.6567,-1.5468,-1.4312,-1.1728,-0.6014,0.0118,0.3766,0.7,0.9482,1.0182,1.0275,0.9955,0.9028,0.8741,0.8432,0.7613,0.7741,0.8171,0.875,0.9974,1.1397,1.2828,1.2674,1.2399,1.2366,1.3849,1.4887,1.4819,1.4925,1.4969,1.4744,1.366,1.3058,1.3237,1.2816,1.2638,1.2836,1.4022,1.4839,1.5172,1.6088,1.6755,1.7099,1.6709,1.674,1.7157,1.685,1.6887,-3.0819,-2.4812,-1.7537,-1.0195,-0.7022,-0.5781,-0.5903,-0.5999,-0.5844,-0.544,0.1886,0.9406,1.318,1.9082,2.3676,2.461,2.2113,1.9396,1.7368,1.9127,2.0874,2.1742,2.4619,2.6566,2.6565,2.5564,2.4381,2.3211,2.1362,1.9976,1.935,1.6861,1.492,1.3685,1.3125,1.2069,1.0448,0.8591,0.5718,0.1831,-0.6853,-1.1466,-1.2426,-1.5651,-1.7398,-1.792,-1.8258,-1.8758,-1.9364,-1.9982,-2.0514,-2.1084,-2.171,-2.2147,-2.244,-2.2627,-2.34,-2.4421,-2.4728,-2.4451,-2.3775,-2.2527,-2.1463,-2.0132,-1.7879,-1.6439,-1.5189,-1.3251,-0.8606,-0.3436,0.0,0.2916,0.5185,0.6108,0.6189,0.587,0.5138,0.4925,0.4688,0.3897,0.4108,0.462,0.5181,0.5858,0.7055,0.9165,0.9175,0.8927,0.8916,1.0807,1.2209,1.2291,1.217,1.2062,1.1925,1.0354,0.9446,0.9609,0.8941,0.8686,0.9112,1.0539,1.1551,1.208,1.3416,1.4295,1.4627,1.4473,1.4592,1.5028,1.4924,1.5089,-3.3799,-2.7511,-2.1086,-1.3424,-0.8375,-0.4867,-0.3658,-0.2273,-0.0488,0.2328,0.6444,1.102,1.6025,1.9182,2.0993,2.0878,2.0654,1.9706,1.7408,1.8188,1.935,2.0278,2.2776,2.4267,2.3942,2.3021,2.1831,2.0331,1.9523,1.8123,1.5993,1.473,1.2928,1.0381,1.0123,0.9458,0.829,0.6127,0.3339,-0.011,-0.4173,-0.8866,-1.4079,-1.8973,-2.1423,-2.1809,-2.2308,-2.2566,-2.2576,-2.2892,-2.2844,-2.2697,-2.312,-2.335,-2.3461,-2.3428,-2.5504,-2.8198,-2.7588,-2.6296,-2.4602,-2.28,-2.0803,-1.8613,-1.5857,-1.4447,-1.3424,-1.1721,-0.9443,-0.7008,-0.4561,-0.3059,-0.1529,0.1137,0.1196,0.0814,0.1417,0.0486,-0.0414,-0.0135,-0.1005,-0.1224,0.0393,0.1136,0.2238,0.4394,0.5694,0.61,0.5109,0.6981,0.8341,0.8103,0.8141,0.7961,0.7307,0.569,0.4883,0.5343,0.4325,0.4206,0.5323,0.6663,0.7596,0.8157,1.007,1.1098,1.1102,1.1602,1.1898,1.1946,1.2703,1.3056,-3.9169,-3.2225,-2.4427,-1.5092,-0.835,-0.3408,-0.1421,0.0,0.1375,0.3009,0.6441,1.0082,1.3267,1.5767,1.7456,1.7564,1.7808,1.7502,1.6307,1.7247,1.8547,1.9851,2.147,2.1613,1.9398,1.9603,1.8872,1.6527,1.5082,1.4299,1.4278,1.2321,1.0719,0.9658,0.9023,0.7866,0.6122,0.5011,0.2575,-0.1141,-0.3345,-0.7241,-1.2566,-1.5736,-1.8892,-2.1915,-2.2173,-2.2501,-2.2934,-2.4221,-2.4734,-2.4765,-2.6123,-2.6623,-2.6482,-2.5732,-2.604,-2.6798,-2.641,-2.5967,-2.5253,-2.3214,-2.1559,-1.9806,-1.7172,-1.4864,-1.2722,-1.0951,-0.8634,-0.6511,-0.5667,-0.4283,-0.3062,-0.2896,-0.2729,-0.2666,-0.2856,-0.2904,-0.2855,-0.2582,-0.2252,-0.1903,-0.1426,-0.0646,0.0346,0.1707,0.2174,0.2726,0.3682,0.4752,0.5711,0.6402,0.54,0.4474,0.3911,0.1982,0.0465,-0.0242,-0.0563,-0.078,-0.0856,0.1212,0.2887,0.3951,0.555,0.6802,0.7741,0.7526,0.7947,0.8942,0.8798,0.9566,-4.5221,-3.833,-2.9093,-1.7342,-1.1023,-0.6303,-0.1206,0.1322,0.291,0.4556,0.732,1.0226,1.2572,1.4478,1.5733,1.5941,1.6202,1.6063,1.5254,1.6447,1.7702,1.8489,1.9291,1.8898,1.6702,1.7017,1.6439,1.4066,1.2184,1.1345,1.1789,0.9742,0.8435,0.8103,0.7697,0.6747,0.5283,0.4498,0.262,-0.0343,-0.2296,-0.609,-1.1536,-1.3634,-1.7351,-2.2157,-2.299,-2.3688,-2.4213,-2.4985,-2.5405,-2.57,-2.6644,-2.6974,-2.6777,-2.5836,-2.5625,-2.5732,-2.5401,-2.5243,-2.4912,-2.3032,-2.1557,-1.9975,-1.7332,-1.4936,-1.2719,-1.066,-0.8858,-0.7285,-0.6425,-0.5455,-0.479,-0.5144,-0.5099,-0.5035,-0.545,-0.5432,-0.5263,-0.495,-0.4193,-0.3579,-0.3591,-0.2368,-0.1121,-0.0524,-0.0044,0.0784,0.2083,0.2812,0.3461,0.4039,0.2995,0.1734,0.052,-0.2021,-0.3789,-0.4458,-0.5287,-0.5534,-0.4948,-0.3301,-0.1781,-0.0466,0.1175,0.2399,0.3157,0.3477,0.4216,0.5423,0.5347,0.585,-4.9947,-4.3715,-3.378,-1.9969,-1.4741,-1.0822,0.0,0.1414,0.3853,0.622,0.8771,1.1198,1.2958,1.4463,1.5437,1.5366,1.5468,1.525,1.4423,1.5653,1.6586,1.6762,1.6829,1.6455,1.5328,1.5108,1.429,1.2493,1.0346,0.913,0.9276,0.7531,0.6517,0.6517,0.6386,0.5934,0.5169,0.4182,0.2834,0.1039,-0.1361,-0.5355,-1.0753,-1.2499,-1.6475,-2.1977,-2.3953,-2.5164,-2.5678,-2.5283,-2.5376,-2.5753,-2.5577,-2.5351,-2.5109,-2.4681,-2.4731,-2.5011,-2.4884,-2.4772,-2.4389,-2.2818,-2.1357,-1.9747,-1.698,-1.4924,-1.3141,-1.068,-0.9512,-0.8541,-0.6824,-0.6477,-0.6514,-0.6388,-0.6552,-0.6742,-0.6992,-0.7314,-0.7427,-0.6973,-0.6316,-0.5789,-0.5722,-0.3892,-0.2372,-0.2214,-0.1199,-0.0185,0.0646,0.1284,0.1635,0.1549,0.0998,-0.0304,-0.2544,-0.5775,-0.7761,-0.7934,-0.9555,-0.9689,-0.7879,-0.7107,-0.6082,-0.4836,-0.2997,-0.2008,-0.1888,-0.0613,0.0525,0.1568,0.1947,0.1906,0.0,0.0,0.0,0.0,0.0,0.0,0.0,-0.1063,0.2309,0.5236,0.9725,1.2721,1.1517,1.388,1.5502,1.4218,1.4777,1.5112,1.4209,1.4389,1.4807,1.5534,1.6369,1.6281,1.4715,1.3739,1.251,1.089,0.8879,0.803,0.8666,0.7742,0.721,0.721,0.6242,0.5342,0.4483,0.3319,0.1559,-0.0844,-0.1994,-0.4888,-0.9409,-1.2682,-1.5852,-1.8888,-2.1885,-2.3788,-2.48,-2.5083,-2.5286,-2.5356,-2.488,-2.3663,-2.2273,-2.4029,-2.4688,-2.5002,-2.6489,-2.7003,-2.6641,-2.4754,-2.3044,-2.1187,-1.8122,-1.5623,-1.3141,-1.0048,-0.9025,-0.8541,-0.6824,-0.6973,-0.769,-0.8265,-0.8432,-0.8465,-0.8513,-0.8574,-0.84,-0.7749,-0.7295,-0.6789,-0.6078,-0.4932,-0.3763,-0.2603,-0.1706,-0.0672,0.0611,0.0864,0.0828,0.0391,-0.0131,-0.1393,-0.3732,-0.729,-1.0313,-1.2414,-1.1996,-1.1723,-1.1752,-1.0411,-0.9177,-0.8214,-0.7006,-0.5991,-0.5279,-0.4909,-0.3743,-0.1942,-0.2344,-0.2496,0.0,0.0,0.0,0.0,0.0,0.0,0.0,0.0,0.0,0.0,0.0,1.5328,1.3832,0.0,1.6042,1.5223,1.4751,1.4285,1.3878,1.4322,1.4606,1.4515,1.4919,1.4697,1.339,1.2124,1.0906,0.9521,0.7375,0.6283,0.6657,0.5599,0.4926,0.4926,0.4368,0.3856,0.3417,0.2417,0.1049,-0.0687,-0.2155,-0.4726,-0.8347,-1.1547,-1.4619,-1.7531,-2.022,-2.2463,-2.4271,-2.5118,-2.5257,-2.4984,-2.5071,-2.4151,-2.2869,-2.4078,-2.4785,-2.5319,-2.6326,-2.6863,-2.6971,-2.5258,-2.3524,-2.1566,-1.8404,-1.5976,-1.3603,-1.0328,-0.9437,-0.9078,-0.7475,-0.7437,-0.7952,-0.8758,-0.8911,-0.9148,-0.9986,-0.9912,-0.9629,-0.9629,-0.8491,-0.7453,-0.6976,-0.5814,-0.4416,-0.2781,-0.1884,-0.0915,0.0261,0.0413,0.0207,-0.0311,-0.113,-0.2763,-0.5578,-0.8653,-1.183,-1.5236,-1.5821,-1.5816,-1.5395,-1.4587,-1.3654,-1.2434,-1.2076,-1.1193,-0.9938,-0.9449,-0.8242,-0.6366,-0.7388,-0.6635,0.0,0.0,0.0,0.0,0.0,0.0,0.0,0.0,0.0,0.0,0.0,0.0,0.0,0.0,0.0,1.6698,1.5095,1.3906,1.3647,1.4394,1.4557,1.3402,1.3294,1.2872,1.1844,1.0446,0.9262,0.8272,0.5951,0.4618,0.4618,0.3428,0.2734,0.2734,0.2484,0.2355,0.2355,0.1548,0.0631,-0.0296,-0.2201,0.0,-0.762,-1.0548,-1.3836,-1.7258,-1.9625,-2.2041,-2.4472,-2.5579,-2.5696,-2.5289,-2.5982,-2.5457,-2.4401,-2.4457,-2.4949,-2.5665,-2.619,-2.6794,-2.7071,-2.5774,-2.431,-2.2448,-1.9125,-1.6808,0.0,-1.1466,-1.0287,-0.9718,-0.8351,-0.8103,-0.8378,-0.8913,-0.9323,-0.9939,-1.1207,-1.0945,-1.0694,-1.1364,-0.9568,-0.7966,-0.7811,-0.6442,-0.4751,-0.2785,-0.1887,-0.1045,-0.0131,0.0,-0.0243,-0.0982,-0.2114,-0.4213,-0.7541,-0.9973,-1.3141,-1.725,-1.923,-1.9702,-1.8445,-1.8292,-1.7637,-1.6462,-1.6701,-1.6246,-1.5016,-1.423,-1.2774,-1.084,-1.1466,-0.97,0.0,0.0,0.0,0.0,0.0,0.0,0.0,0.0,0.0,0.0,0.0,0.0,0.0,0.0,0.0,0.0,1.5831,1.4814,1.3729,1.3729,1.3402,1.2342,1.2259,1.1749,1.0653,0.8511,0.7138,0.6975,0.4907,0.3616,0.3616,0.3517,0.0,0.0,0.0,0.181,0.181,0.0691,-0.0336,-0.1184,-0.2537,-0.4576,-0.7339,-1.1038,-1.4596,-1.8122,-2.1355,-2.4027,-2.6063,-2.6993,-2.7323,-2.7335,-2.8123,-2.686,-2.4681,-2.5042,-2.5233,-2.5669,-2.8063,0.0,0.0,-2.8103,-2.712,-2.5627,-2.2169,-1.9298,-1.661,-1.3801,-1.1687,-1.0039,-0.9047,-0.9387,-0.9946,-0.9547,-1.0685,-1.1767,-1.1548,-1.1408,-1.1392,-1.1429,-1.0048,-0.8556,-0.7905,-0.6734,-0.5157,-0.2875,-0.1829,-0.1045,-0.0131,0.0,-0.0517,-0.1832,-0.3225,0.0,-0.8965,-1.1633,-1.4795,-1.8764,-2.0179,-2.0722,-2.0336,-1.9639,-1.9165,-1.9043,-1.9279,-1.9668,-2.0158,-1.9288,-1.7423,-1.4681,-1.2553,-1.0416,0.0,0.0,0.0,0.0,0.0,0.0,0.0,0.0,0.0,0.0,0.0,0.0,0.0,0.0,0.0,0.0,1.8418,1.6519,1.4842,1.3496,1.2508,1.2093,1.0821,0.9541,0.8341,0.6811,0.5613,0.4926,0.3381,0.252,0.252,0.1827,0.148,0.148,0.1654,0.174,0.174,0.122,0.0861,0.042,-0.2097,-0.4096,-0.5636,-0.9743,-1.3168,-1.6029,-1.9478,-2.2975,-2.6239,-2.7595,-2.8451,-2.8883,0.0,0.0,0.0,0.0,-2.5421,-2.572,-2.7914,-2.8948,-2.9229,-2.8468,-2.712,-2.5362,-2.2294,-1.9404,-1.6742,-1.4593,-1.2895,-1.1581,-1.0902,-1.1005,-1.125,-1.1017,-1.2006,-1.3108,-1.3307,-1.3525,-1.3571,-1.3398,-1.2033,0.0,-0.8742,-0.6143,-0.397,-0.3009,-0.1571,-0.0446,-0.0064,0.0,-0.0523,-0.1962,-0.34,-0.6082,-1.0514,-1.3554,0.0,0.0,0.0,-2.3686,-2.388,-2.3557,0.0,0.0,0.0,-2.3624,-2.2889,-2.0301,0.0,0.0,-1.7437,-1.4137,0.0,0.0,0.0,0.0,0.0,0.0,0.0,0.0,0.0,0.0,0.0,0.0,0.0,0.0,0.0,0.0,1.9732,1.7898,1.525,1.4315,1.3338,1.1788,0.9457,0.767,0.6469,0.5102,0.3919,0.3087,0.1947,0.1246,0.126,0.0451,0.0,0.0,0.1171,0.189,0.189,0.189,0.188,0.177,-0.1764,-0.3878,-0.469,-0.907,-1.242,-1.5013,-1.8916,-2.2885,-2.6728,-2.8665,-2.9848,-3.061,-3.1544,-3.0315,-2.7756,-2.6068,-2.4922,-2.4572,-2.6732,-2.8136,-2.889,-2.8131,-2.6892,-2.5198,-2.251,-1.9592,-1.69,-1.5089,-1.3426,-1.2029,-1.1678,-1.1606,-1.168,-1.2133,-1.3229,-1.4374,-1.506,-1.5328,-1.5338,-1.484,-1.4085,-1.2718,-1.0055,-0.6538,-0.3758,-0.2788,-0.0943,0.0374,0.0448,0.0392,-0.0196,-0.1766,-0.3452,-0.6332,-1.0919,-1.428,-1.798,-2.2318,-2.4162,-2.5556,-2.6571,-2.6316,-2.676,-2.7917,-2.8401,-2.7865,0.0,0.0,0.0,0.0,0.0,0.0,0.0,0.0,0.0,0.0,0.0,0.0,0.0,0.0,0.0,0.0,0.0,0.0,0.0,0.0,0.0,0.0,0.0,0.0,1.4292,1.6452,1.644,1.0996,0.8257,0.6469,0.5365,0.3211,0.1857,0.1842,0.074,0.0094,0.0098,0.0,0.0,0.0,0.1367,0.2149,0.2149,0.2149,0.2109,0.2123,-0.1656,-0.4135,-0.533,-0.9793,-1.3542,-1.6691,-2.1489,-2.519,-2.7921,-3.0539,-3.1964,-3.2803,-3.5093,-3.2871,-2.8151,-2.6186,-2.3751,-2.1738,-2.4544,-2.6706,-2.8103,-2.7294,-2.6892,-2.6278,-2.3701,-2.0671,-1.7822,-1.5701,-1.2865,-1.037,-1.0386,-1.0336,-1.0726,-1.2277,-1.4077,-1.5635,-1.6193,-1.6319,-1.6013,-1.4957,-1.581,-1.5618,-1.1977,-0.8796,-0.5522,-0.1905,0.0148,0.0,0.1633,0.1502,0.0653,-0.1176,-0.3581,-0.6403,-0.9666,-1.3206,-1.7209,-2.1867,-2.3432,-2.5166,-2.7455,-2.66,-2.6773,-2.8345,-3.12,-3.2315,-3.1636,0.0,0.0,0.0,0.0,0.0,0.0,0.0,0.0,0.0,0.0,0.0,0.0,0.0,0.0,0.0,0.0,0.0,0.0,0.0,0.0,0.0,0.0,0.0,0.0,0.4937,0.5007,-0.2663,-0.0759,0.1023,0.0686,0.0605,0.0611,0.0623,0.0268,0.0,0.0,0.0,0.0,0.0,0.1177,0.1863,0.1863,0.1863,0.185,0.1827,-0.1918,-0.396,-0.4476,-0.951,-1.2898,-1.515,-2.1139,-2.5897,-2.9702,-3.3319,-3.6227,-3.8408,-3.7829,-3.3928,-2.8378,-2.6333,-2.3375,-2.049,-2.2104,-2.4658,-2.7409,-2.8294,-2.7805,-2.6419,-2.4333,-2.1186,-1.7839,-1.5775,-1.3396,-1.1311,-1.0539,-1.0904,-1.1582,-1.2153,-1.4419,-1.6689,-1.7442,-1.8249,-1.8674,-1.8208,-1.7985,-1.6468,-1.2213,-0.8272,-0.4772,-0.1833,0.0331,0.1665,0.1718,0.1694,0.0849,-0.1176,-0.3139,-0.558,-0.8855,-1.2856,-1.6887,-2.0899,-2.3171,-2.5209,-2.7119,-2.7792,-2.9049,-3.1024,-3.3371,-3.345,-3.1245,0.0,0.0,0.0,0.0,0.0,0.0,0.0,0.0,0.0,0.0,0.0,0.0,0.0,0.0,0.0,0.0,0.0,0.0,0.0,0.0,0.0,0.0,0.0,0.0,0.0,0.0,-1.0275,-0.8395,0.0,-0.3419,-0.2937,-0.1967,-0.0178,0.0,0.0,0.0,0.0,0.0,0.0,0.12,0.1908,0.1934,0.1934,0.1923,0.1798,-0.1992,-0.3846,-0.4061,-0.9249,-1.2876,-1.5415,-2.1801,-2.7274,-3.2105,-3.7532,-4.1318,-4.3425,-4.1401,-3.7173,-3.187,-2.852,-2.5328,-2.261,-2.2577,-2.4556,-2.7507,-2.9623,-2.95,-2.8196,-2.6542,-2.3384,-1.9798,-1.675,-1.4243,-1.2067,-1.0214,-1.0582,-1.1742,-1.2859,-1.5085,-1.7374,-1.9018,-2.0327,-2.1084,-2.0945,-1.951,-1.6989,-1.2886,-0.8632,-0.4691,-0.1385,0.0866,0.2403,0.2942,0.2529,0.157,-0.0065,-0.2421,-0.495,-0.7631,-1.2185,-1.6232,-1.9348,-2.2838,-2.5345,-2.6622,-2.8329,-3.0033,-3.1748,-3.3269,-3.3282,0.0,0.0,0.0,0.0,0.0,0.0,0.0,0.0,0.0,0.0,0.0,0.0,0.0,0.0,0.0,0.0,0.0,0.0,0.0,0.0,0.0,0.0,0.0,0.0,0.0,0.0,0.0,-1.2465,-1.4221,0.0,0.0,0.0,0.0,-0.0881,-0.0465,-0.0479,-0.0482,-0.0301,-0.0206,-0.0103,0.1338,0.1989,0.2058,0.2059,0.2028,0.1965,-0.1963,-0.3908,-0.4168,-0.9396,-1.376,-1.7418,-2.3838,-2.9488,-3.489,-4.2897,-4.6681,-4.7278,-4.5292,-4.1898,-3.7527,-3.2241,-2.9259,-2.7554,-2.579,-2.6495,-2.8615,-3.1323,-3.1877,-3.1285,-3.0022,-2.7216,0.0,0.0,-1.5557,-1.2874,-0.9644,-0.9598,-1.1134,-1.4177,-1.5916,-1.7716,-2.0676,-2.2201,-2.3021,-2.2996,-2.0531,-1.7456,-1.4002,0.0,-0.5267,-0.0681,0.1821,0.3627,0.5107,0.4043,0.2783,0.1833,-0.157,-0.4461,-0.6017,-1.116,-1.526,-1.7529,-2.2415,-2.5421,-2.6027,-2.815,-2.9661,-3.0475,-3.1283,0.0,0.0,0.0,0.0,0.0,0.0,0.0,0.0,0.0,0.0,0.0,0.0,0.0,0.0,0.0,0.0,0.0,0.0,0.0,0.0,0.0,0.0,0.0,0.0,0.0,0.0,-1.6639,-2.0432,-2.7145,-2.1821,-1.6349,0.0,0.0,0.0,0.0,0.0,0.0,-0.7613,-0.5199,-0.3051,-0.139,-0.0099,0.0505,0.0524,0.0524,0.0528,0.0537,-0.2678,-0.4694,-0.5932,-1.1512,-1.6191,-2.0301,-2.772,-3.3469,-3.8141,-4.4776,-4.6796,-4.5458,-4.273,-3.8224,-3.3105,-3.1478,-2.9739,-2.8352,-2.9399,-3.1285,-3.3202,-3.3322,-3.2885,-3.202,-3.0879,0.0,0.0,0.0,0.0,-1.633,-1.2655,-1.1697,-1.1627,-1.1566,-1.4326,-1.7454,-1.9589,-2.098,-2.2179,-2.3198,-2.2506,-1.9929,-1.4367,-0.9883,0.0,-0.0173,0.2169,0.3885,0.5107,0.4166,0.3004,0.1861,-0.1045,-0.353,-0.5215,-1.0026,-1.4188,-1.7214,-2.1371,-2.445,-2.6144,-2.7884,-2.9186,-3.0059,0.0,0.0,0.0,0.0,0.0,0.0,0.0,0.0,0.0,0.0,0.0,0.0,0.0,0.0,0.0,0.0,0.0,0.0,0.0,0.0,0.0,0.0,0.0,0.0,0.0,0.0,0.0,-2.0613,-2.4928,-3.0054,-2.5084,-1.9521,0.0,0.0,0.0,0.0,0.0,0.0,0.0,0.0,0.0,-0.4725,-0.5041,-0.4282,-0.231,-0.2314,-0.2034,-0.156,-0.4349,-0.6058,-0.7092,-1.3754,-1.91,-2.3374,-3.1186,-3.705,-4.1539,-4.547,-4.6045,-4.4187,0.0,0.0,0.0,0.0,-3.0086,-3.0013,-2.9893,-3.1689,-3.3928,-3.3727,0.0,0.0,0.0,0.0,0.0,0.0,0.0,-1.9125,-1.4554,-1.3628,-1.3707,-1.2692,-1.4758,-1.7712,-2.0481,-2.2021,-2.3115,-2.3937,-2.3341,-2.0869,-1.5163,-0.9976,0.0,0.0,0.0,0.5107,0.6512,0.5284,0.3842,0.2659,-0.0207,-0.294,-0.5279,-0.9888,-1.3948,-1.7098,-2.1483,-2.4583,-2.5884,-2.8019,-2.9102,0.0,0.0,0.0,0.0,0.0,0.0,0.0,0.0,0.0,0.0,0.0,0.0,0.0,0.0,0.0,0.0,0.0,0.0,0.0,0.0,0.0,0.0,0.0,0.0,0.0,0.0,0.0,0.0,0.0,-2.265,-2.6868,0.0,0.0,0.0,0.0,0.0,0.0,0.0,0.0,0.0,0.0,0.0,0.0,0.0,-1.0399,-0.6527,-0.661,-0.6101,-0.4981,-0.73,-0.8461,-0.8904,-1.6849,-2.2585,-2.6648,-3.4197,0.0,-4.4103,-4.4893,0.0,0.0,0.0,0.0,0.0,0.0,0.0,0.0,0.0,0.0,0.0,0.0,0.0,0.0,0.0,0.0,0.0,0.0,0.0,0.0,0.0,0.0,-1.6616,-1.5596,-1.6369,-1.8409,-2.1892,-2.372,-2.4553,-2.4357,-2.3195,-2.0676,0.0,0.0,0.0,0.0,0.0,0.0,0.8289,0.6691,0.4949,0.3668,0.0607,-0.2659,-0.5789,-1.0321,-1.4341,-1.7437,-2.2403,-2.5406,-2.5909,-2.8621,0.0,0.0,0.0,0.0,0.0,0.0,0.0,0.0,0.0,0.0,0.0,0.0,0.0,0.0,0.0,0.0,0.0,0.0,0.0,0.0,0.0,0.0,0.0,0.0,0.0,0.0,0.0,0.0,0.0,0.0,0.0,0.0,0.0,0.0,0.0,0.0,0.0,0.0,0.0,0.0,0.0,0.0,0.0,0.0,0.0,0.0,0.0,0.0,0.0,0.0,-1.3297,-1.422,-1.5498,-2.2632,-2.7446,-3.0643,-3.6624,-4.0503,-4.2503,-4.2049,0.0,0.0,0.0,0.0,0.0,0.0,0.0,0.0,0.0,0.0,0.0,0.0,0.0,0.0,0.0,0.0,0.0,0.0,0.0,0.0,0.0,0.0,-1.9098,-1.6809,-1.8137,-2.0192,-2.1122,0.0,0.0,0.0,0.0,0.0,0.0,0.0,0.0,0.0,0.0,0.0,0.8001,0.7134,0.5726,0.3724,0.0593,-0.2667,-0.5728,-1.1018,-1.5627,-1.931,-2.3572,-2.6663,0.0,0.0,0.0,0.0,0.0,0.0,0.0,0.0,0.0,0.0,0.0,0.0,0.0,0.0,0.0,0.0,0.0,0.0,0.0,0.0,0.0,0.0,0.0,0.0,0.0,0.0,0.0,0.0,0.0,0.0,0.0,0.0,0.0,0.0,0.0,0.0,0.0,0.0,0.0,0.0,0.0,0.0,0.0,0.0,0.0,0.0,0.0,0.0,0.0,0.0,0.0,0.0,0.0,0.0,0.0,0.0,0.0,0.0,-3.542,-3.7708,0.0,0.0,0.0,0.0,0.0,0.0,0.0,0.0,0.0,0.0,0.0,0.0,0.0,0.0,0.0,0.0,0.0,0.0,0.0,0.0,0.0,0.0,0.0,0.0,0.0,0.0,0.0,0.0,0.0,0.0,0.0,0.0,0.0,0.0,0.0,0.0,0.0,0.0,0.0,0.0,0.9368,0.8381,0.6605,0.3799,0.1043,-0.2264,-0.6082,-1.1521,-1.6169,-1.971,-2.3971,0.0,0.0,0.0,0.0,0.0,0.0,0.0,0.0,0.0,0.0,0.0,0.0,0.0,0.0,0.0,0.0,0.0,0.0,0.0,0.0,0.0,0.0,0.0,0.0,0.0,0.0,0.0,0.0,0.0,0.0,0.0,0.0,0.0,0.0,0.0,0.0,0.0,0.0,0.0,0.0,0.0,0.0,0.0,0.0,0.0,0.0,0.0,0.0,0.0,0.0,0.0,0.0,0.0,0.0,0.0,0.0,0.0,0.0,0.0,-3.2021,-3.3243,0.0,0.0,0.0,0.0,0.0,0.0,0.0,0.0,0.0,0.0,0.0,0.0,0.0,0.0,0.0,0.0,0.0,0.0,0.0,0.0,0.0,0.0,0.0,0.0,0.0,0.0,0.0,0.0,0.0,0.0,0.0,0.0,0.0,0.0,0.0,0.0,0.0,0.0,0.0,0.0,1.0609,0.956,0.7492,0.3885,0.139,-0.1829,-0.6432,-1.1984,-1.6684,-2.0052,-2.4339,0.0,0.0,0.0,0.0,0.0,0.0,0.0,0.0,0.0,0.0,0.0,0.0,0.0,0.0,0.0,0.0,0.0,0.0,0.0,0.0,0.0,0.0,0.0,0.0,0.0,0.0,0.0,0.0,0.0,0.0,0.0,0.0,0.0,0.0,0.0,0.0,0.0,0.0,0.0,0.0,0.0,0.0,0.0,0.0,0.0,0.0,0.0,0.0,0.0,0.0,0.0,0.0,0.0,0.0,0.0,0.0,0.0,0.0,0.0,0.0,0.0,0.0,0.0,0.0,0.0,0.0,0.0,0.0,0.0,0.0,0.0,0.0,0.0,0.0,0.0,0.0,0.0,0.0,0.0,0.0,0.0,0.0,0.0,0.0,0.0,0.0,0.0,0.0,0.0,0.0,0.0,0.0,0.0,0.0,0.0,0.0,0.0,0.0,0.0,0.0,0.0,1.0177,1.0008,0.8477,0.3975,0.139,-0.1829,-0.6432,-1.2615,-1.7831,-2.151,0.0,0.0,0.0,0.0,0.0,0.0,0.0,0.0,0.0,0.0,0.0,0.0,0.0,0.0,0.0,0.0,0.0,0.0,0.0,0.0,0.0,0.0,0.0,0.0,0.0,0.0,0.0,0.0,0.0,0.0,0.0,0.0,0.0,0.0,0.0,0.0,0.0,0.0,0.0,0.0,0.0,0.0,0.0,0.0,0.0,0.0,0.0,0.0,0.0,0.0,0.0,0.0,0.0,0.0,0.0,0.0,0.0,0.0,0.0,0.0,0.0,0.0,0.0,0.0,0.0,0.0,0.0,0.0,0.0,0.0,0.0,0.0,0.0,0.0,0.0,0.0,0.0,0.0,0.0,0.0,0.0,0.0,0.0,0.0,0.0,0.0,0.0,0.0,0.0,0.0,0.0,0.0,0.0,0.0,0.0,0.0,0.0,0.0,0.0,0.0,0.0,0.0,1.0665,1.035,0.8554,0.3967,0.139,-0.1829,-0.6432,-1.2627,-1.7736,-2.1022,0.0,0.0,0.0,0.0,0.0,0.0,0.0,0.0,0.0,0.0,0.0,0.0,0.0,0.0,0.0,0.0,0.0,0.0,0.0,0.0,0.0,0.0,0.0,0.0,0.0,0.0,0.0,0.0,0.0,0.0,0.0,0.0,0.0,0.0,0.0,0.0,0.0,0.0,0.0,0.0,0.0,0.0,0.0,0.0,0.0,0.0,0.0,0.0,0.0,0.0,0.0,0.0,0.0,0.0,0.0,0.0,0.0,0.0,0.0,0.0,0.0,0.0,0.0,0.0,0.0,0.0,0.0,0.0,0.0,0.0,0.0,0.0,0.0,0.0,0.0,0.0,0.0,0.0,0.0,0.0,0.0,0.0,0.0,0.0,0.0,0.0,0.0,0.0,0.0,0.0,0.0,0.0,0.0,0.0,0.0,0.0,0.0,0.0,0.0,0.0,0.0,0.0,1.0767,1.0512,0.853,0.3963,0.139,-0.1829,-0.6432,-1.2901,-1.8132,-2.1532,0.0,0.0,0.0,0.0,0.0,0.0,0.0,0.0,0.0,0.0,0.0,0.0,0.0,0.0,0.0,0.0,0.0,0.0,0.0,0.0,0.0,0.0,0.0,0.0,0.0,0.0,0.0,0.0,0.0,0.0,0.0,0.0,0.0,0.0,0.0,0.0,0.0,0.0,0.0,0.0,0.0,0.0,0.0,0.0,0.0,0.0,0.0,0.0,0.0,0.0,0.0,0.0,0.0,0.0,0.0,0.0,0.0,0.0,0.0,0.0,0.0,0.0,0.0,0.0,0.0,0.0,0.0,0.0,0.0,0.0,0.0,0.0,0.0,0.0,0.0,0.0,0.0,0.0,0.0,0.0,0.0,0.0,0.0,0.0,0.0,0.0,0.0,0.0,0.0,0.0,0.0,0.0,0.0,0.0,0.0,0.0,0.0,0.0,0.0,0.0,0.0,0.0,1.0126,1.0507,0.8563,0.3975,0.139,-0.1829,-0.6432,-1.3368,-1.9407,0.0,0.0,0.0,0.0,0.0,0.0,0.0,0.0,0.0,0.0,0.0,0.0,0.0,0.0,0.0,0.0,0.0,0.0,0.0,0.0,0.0,0.0,0.0,0.0,0.0,0.0,0.0,0.0,0.0,0.0,0.0,0.0,0.0,0.0,0.0,0.0,0.0,0.0,0.0,0.0,0.0,0.0,0.0,0.0,0.0,0.0,0.0,0.0,0.0,0.0,0.0,0.0,0.0,0.0,0.0,0.0,0.0,0.0,0.0,0.0,0.0,0.0,0.0,0.0,0.0,0.0,0.0,0.0,0.0,0.0,0.0,0.0,0.0,0.0,0.0,0.0,0.0,0.0,0.0,0.0,0.0,0.0,0.0,0.0,0.0,0.0,0.0,0.0,0.0,0.0,0.0,0.0,0.0,0.0,0.0,0.0,0.0,0.0,0.0,0.0,0.0,0.0,0.0,0.88,0.9262,0.7672,0.3885,0.139,-0.1829,-0.6432,-1.3368,-1.9367,-2.3841,0.0,0.0,0.0,0.0,0.0,0.0,0.0,0.0,0.0,0.0,0.0,0.0,0.0,0.0,0.0,0.0,0.0,0.0,0.0,0.0,0.0,0.0,0.0,0.0,0.0,0.0,0.0,0.0,0.0,0.0,0.0,0.0,0.0,0.0,0.0,0.0,0.0,0.0,0.0,0.0,0.0,0.0,0.0,0.0,0.0,0.0,0.0,0.0,0.0,0.0,0.0,0.0,0.0,0.0,0.0,0.0,0.0,0.0,0.0,0.0,0.0,0.0,0.0,0.0,0.0,0.0,0.0,0.0,0.0,0.0,0.0,0.0,0.0,0.0,0.0,0.0,0.0,0.0,0.0,0.0,0.0,0.0,0.0,0.0,0.0,0.0,0.0,0.0,0.0,0.0,0.0,0.0,0.0,0.0,0.0,0.0,0.0,0.0,0.0,0.0,0.0,0.0,0.0,0.9113,0.7758,0.4061,0.1477,-0.1829,-0.6432,-1.3657,-2.0004,-2.4744,0.0,0.0,0.0,0.0,0.0,0.0,0.0,0.0,0.0,0.0,0.0,0.0,0.0,0.0,0.0,0.0,0.0,0.0,0.0,0.0,0.0,0.0,0.0,0.0,0.0,0.0,0.0,0.0,0.0,0.0,0.0,0.0,0.0,0.0,0.0,0.0,0.0,0.0,0.0,0.0,0.0,0.0,0.0,0.0,0.0,0.0,0.0,0.0,0.0,0.0,0.0,0.0,0.0,0.0,0.0,0.0,0.0,0.0,0.0,0.0,0.0,0.0,0.0,0.0,0.0,0.0,0.0,0.0,0.0,0.0,0.0,0.0,0.0,0.0,0.0,0.0,0.0,0.0,0.0,0.0,0.0,0.0,0.0,0.0,0.0,0.0,0.0,0.0,0.0,0.0,0.0,0.0,0.0,0.0,0.0,0.0,0.0,0.0,0.0,0.0,0.0,0.0,0.0,0.965,0.8589,0.4327,0.1564,-0.1829,-0.6432,-1.421,-2.1097,-2.6285,-3.1897,0.0,0.0,0.0,0.0,0.0,0.0,0.0,0.0,0.0,0.0,0.0,0.0,0.0,0.0,0.0,0.0,0.0,0.0,0.0,0.0,0.0,0.0,0.0,0.0,0.0,0.0,0.0,0.0,0.0,0.0,0.0,0.0,0.0,0.0,0.0,0.0,0.0,0.0,0.0,0.0,0.0,0.0,0.0,0.0,0.0,0.0,0.0,0.0,0.0,0.0,0.0,0.0,0.0,0.0,0.0,0.0,0.0,0.0,0.0,0.0,0.0,0.0,0.0,0.0,0.0,0.0,0.0,0.0,0.0,0.0,0.0,0.0,0.0,0.0,0.0,0.0,0.0,0.0,0.0,0.0,0.0,0.0,0.0,0.0,0.0,0.0,0.0,0.0,0.0,0.0,0.0,0.0,0.0,0.0,0.0,0.0,0.0,0.0,0.0,0.0,0.0,0.0,0.7911,0.763,0.429,0.1564,-0.1829,-0.6432,-1.421,-2.1097,-2.6285,-3.1997,0.0,0.0,0.0,0.0,0.0,0.0,0.0,0.0,0.0,0.0,0.0,0.0,0.0,0.0,0.0,0.0,0.0,0.0,0.0,0.0,0.0,0.0,0.0,0.0,0.0,0.0,0.0,0.0,0.0,0.0,0.0,0.0,0.0,0.0,0.0,0.0,0.0,0.0,0.0,0.0,0.0,0.0,0.0,0.0,0.0,0.0,0.0,0.0,0.0,0.0,0.0,0.0,0.0,0.0,0.0,0.0,0.0,0.0,0.0,0.0,0.0,0.0,0.0,0.0,0.0,0.0,0.0,0.0,0.0,0.0,0.0,0.0,0.0,0.0,0.0,0.0,0.0,0.0,0.0,0.0,0.0,0.0,0.0,0.0,0.0,0.0,0.0,0.0,0.0,0.0,0.0,0.0,0.0,0.0,0.0,0.0,0.0,0.0,0.0,0.0,0.0,0.0,0.2607,0.4205,0.3919,0.1558,-0.1821,-0.6432,-1.421,-2.11,-2.6307,-3.2796,0.0,0.0,0.0,0.0,0.0,0.0,0.0,0.0,0.0,0.0,0.0,0.0,0.0,0.0,0.0,0.0,0.0,0.0,0.0,0.0,0.0,0.0,0.0,0.0,0.0,0.0,0.0,0.0,0.0,0.0,0.0,0.0,0.0,0.0,0.0,0.0,0.0,0.0,0.0,0.0,0.0,0.0,0.0,0.0,0.0,0.0,0.0,0.0,0.0,0.0,0.0,0.0,0.0,0.0,0.0,0.0,0.0,0.0,0.0,0.0,0.0,0.0,0.0,0.0,0.0,0.0,0.0,0.0,0.0,0.0,0.0,0.0,0.0,0.0,0.0,0.0,0.0,0.0,0.0,0.0,0.0,0.0,0.0,0.0,0.0,0.0,0.0,0.0,0.0,0.0,0.0,0.0,0.0,0.0,0.0,0.0,0.0,0.0,0.0,0.0,0.0,0.0,0.0,0.0167,0.3441,0.1552,-0.1898,-0.6611,-1.4346,-2.1107,-2.6489,0.0,0.0,0.0,0.0,0.0,0.0,0.0,0.0,0.0,0.0,0.0,0.0,0.0,0.0,0.0,0.0,0.0,0.0,0.0,0.0,0.0,0.0,0.0,0.0,0.0,0.0,0.0,0.0,0.0,0.0,0.0,0.0,0.0,0.0,0.0,0.0,0.0,0.0,0.0,0.0,0.0,0.0,0.0,0.0,0.0,0.0,0.0,0.0,0.0,0.0,0.0,0.0,0.0,0.0,0.0,0.0,0.0,0.0,0.0,0.0,0.0,0.0,0.0,0.0,0.0,0.0,0.0,0.0,0.0,0.0,0.0,0.0,0.0,0.0,0.0,0.0,0.0,0.0,0.0,0.0,0.0,0.0,0.0,0.0,0.0,0.0,0.0,0.0,0.0,0.0,0.0,0.0,0.0,0.0,0.0,0.0,0.0,0.0,0.0,0.0,0.0,0.0,0.0,0.0,-0.0771,0.3104,0.1382,-0.2163,-0.7614,-1.4715,-2.1487,-2.7567,0.0,0.0,0.0,0.0,0.0,0.0,0.0,0.0,0.0,0.0,0.0,0.0,0.0,0.0]}]]]